     2.10           OBSERVATION DATA    G (GPS)             RINEX VERSION / TYPE
teqc 2005Sep1 20060522 13:36:33UTC                          PGM / RUN BY / DATE
MSXP|IAx86-PII|bcc32 5.0|MSWin95->XP|486/DX+                COMMENT
JPS2RIN 1.40 RUN BY 22-MAY-06 15:13                         COMMENT
build Feb 6 2004 (c) Javad Navigation Systems               COMMENT
Use -p (profile) switch to override ANTENNA TYPE and DELTA  COMMENT
and other fields                                            COMMENT
TAB0509a.jps                                                COMMENT
SE TPS 00000000                                             COMMENT
TAB0509a_3541                                               MARKER NAME
OBSERVER AGENCY                                             OBSERVER / AGENCY
MT311233541 TPS LEGACY 2.3 Apr,28,2004 p4                   REC # / TYPE / VERS
TAB0509a -Unknown-                                          ANT # / TYPE
   387274.5261  -738628.6829  6302224.9192                  APPROX POSITION XYZ
        0.0000        0.0000        0.0000                  ANTENNA: DELTA H/E/N
     1     1                                                WAVELENGTH FACT L1/2
     7    C1    P1    P2    L1    L2    D1    D2            # / TYPES OF OBSERV
    30.0000                                                 INTERVAL
Forced Modulo Decimation to 30 seconds                      COMMENT
teqc windowed: start @ 2006 May 9 15:33:00.000              COMMENT
  2006     5     9    15    33    0.0000000     GPS         TIME OF FIRST OBS
                                                            END OF HEADER
 06  5  9 15 33  0.0000000  0  7G 6G 7G10G13G16G21G27
  22606996.681                                   118800567.675 6
     -2021.454
  22428397.692    22428397.3754   22428400.5244  117862019.721 7  91840553.61444
      1834.856        1429.743
  20917582.955    20917582.4074   20917585.5444  109922640.387 8  85654020.66146
       310.555         241.985
  23215142.950    23215142.8684   23215144.6494  121996393.383 6  95062146.44842
     -2917.420       -2273.294
  22337984.743    22337984.6184   22337986.5274  117386901.473 7  91470327.37144
      -508.574        -396.277
  23333144.806    23333144.8594   23333146.6464  122616509.292 6  95545343.38442
      3535.723        2755.136
  23078797.587    23078797.5604   23078800.5714  121279896.500 7  94503833.70744
      2369.450        1846.332
 06  5  9 15 33 30.0000000  0  8G 6G 7G 8G10G13G16G21G27
  22618647.511    22618648.4464   22618651.5814  118861796.418 6  92619597.37941
     -2060.883       -1605.913
  22418040.422    22418040.7584   22418044.0364  117807595.714 7  91798145.32342
      1792.852        1397.002
  24568050.661                                   129105982.492 5
      4083.865
  20915941.565    20915941.0944   20915944.4624  109914015.484 8  85647299.93846
       263.897         205.611
  23231902.838    23231904.0794   23231906.3654  122084465.917 5  95130774.31743
     -2954.941       -2302.553
  22341015.746    22341015.5154   22341018.0544  117402830.115 7  91482739.28042
      -553.967        -431.636
  23313059.030    23313058.9674   23313060.8404  122510957.382 6  95463095.17143
      3500.520        2727.694
  23065382.339    23065382.3984   23065385.9544  121209398.060 7  94448899.86744
      2330.206        1815.717
 06  5  9 15 34  0.0000000  0  8G 6G 7G 8G10G13G16G21G27
  22630524.066    22630524.4004   22630528.7664  118924208.356 6  92668230.13143
     -2099.878       -1636.261
  22407923.040    22407923.0934   22407926.6874  117754426.682 7  91756714.86844
      1751.676        1364.942
  24544822.154    24544821.6944   24544827.7284  128983911.973 6 100506958.21542
      4053.520        3158.623
  20914564.066    20914563.7254   20914567.1354  109906777.916 8  85641660.26346
       218.360         170.152
  23248871.238    23248871.5234   23248874.9104  122173638.368 6  95200259.28343
     -2990.408       -2330.205
  22344303.950    22344303.4364   22344305.8474  117420110.160 7  91496204.22444
      -598.241        -466.149
  23293172.498    23293172.0904   23293174.5284  122406453.271 6  95381663.39843
      3466.219        2700.963
  23052189.619    23052189.5764   23052193.1504  121140070.501 7  94394878.41344
      2291.607        1785.663
 06  5  9 15 34 30.0000000  0  9G 6G 7G 8G10G13G16G21G27G29
  22642614.608    22642614.5024   22642618.8204  118987742.250 6  92717736.99243
     -2136.252       -1664.604
  22398033.370    22398033.2854   22398037.2844  117702456.504 7  91716218.62144
      1712.513        1334.423
  24521760.060    24521759.2164   24521764.4854  128862718.489 5 100412521.85742
      4025.234        3136.512
  20913440.045    20913439.4784   20913442.8134  109900869.735 8  85637056.47046
       174.886         136.287
  23266038.523    23266038.9944   23266041.1254  122263850.360 6  95270554.28543
     -3024.233       -2356.551
  22347838.565    22347838.5244   22347840.4934  117438683.279 7  91510676.76244
      -640.535        -499.120
  23273474.844    23273475.2164   23273476.7554  122302941.824 6  95301005.12843
      3433.975        2675.846
  23039209.589    23039208.9724   23039212.8144  121071858.069 7  94341725.89644
      2255.184        1757.282
  24361255.924    24361256.8584   24361261.3564  128019261.164 5  99755292.13441
      4050.032        3155.823
 06  5  9 15 35  0.0000000  0  9G 6G 7G 8G10G13G16G21G27G29
  22654913.057    22654913.0704   22654917.0614  119052370.448 6  92768096.59043
     -2171.540       -1692.094
  22388367.524    22388367.0044   22388370.9374  117651660.466 7  91676637.27544
      1674.545        1304.827
  24498859.832    24498859.4114   24498865.4264  128742378.737 5 100318750.70842
      3998.032        3115.303
  20912563.753    20912563.2174   20912566.5784  109896264.612 8  85633468.04046
       132.770         103.465
  23283397.395    23283398.5004   23283400.0194  122355072.947 6  95341636.76543
     -3056.508       -2381.683
  22351613.799    22351613.6174   22351616.2544  117458522.088 7  91526135.55144
      -681.406        -530.965
  23253962.010    23253962.0304   23253963.5584  122200399.675 6  95221102.11943
      3402.831        2651.577
  23026436.516    23026436.4484   23026439.8824  121004736.207 7  94289423.16744
      2220.179        1730.012
  24338211.300    24338212.2364   24338217.5874  127898159.855 5  99660927.56841
      4023.989        3135.534
 06  5  9 15 35 30.0000000  0  9G 6G 7G 8G10G13G16G21G27G29
  22667410.139    22667409.9234   22667413.2184  119118039.831 6  92819267.49743
     -2205.903       -1718.871
  22378915.287    22378915.2884   22378918.8854  117601989.331 7  91637932.49644
      1637.451        1275.950
  24476112.304    24476113.0404   24476117.3254  128622845.090 6 100225607.67942
      3971.280        3094.563
  20911925.680    20911925.1734   20911928.6234  109892911.566 8  85630855.26046
        91.390          71.222
  23300938.696    23300939.1204   23300941.5784  122447252.058 6  95413464.55243
     -3088.193       -2406.369
  22355619.781    22355619.8554   22355621.9864  117479574.594 7  91542540.07344
      -721.460        -562.166
  23234623.976    23234623.9344   23234626.3434  122098777.917 6  95141916.32743
      3372.459        2627.925
  23013861.660    23013861.5654   23013865.3964  120938655.671 7  94237931.85144
      2185.721        1703.167
  24315312.136    24315313.0344   24315317.8984  127777822.864 5  99567158.54941
      3998.754        3115.936
 06  5  9 15 36  0.0000000  0  9G 6G 7G 8G10G13G16G21G27G29
  22680103.871    22680104.2964   22680108.0574  119184749.448 6  92871248.97643
     -2240.482       -1745.837
  22369677.647    22369677.9914   22369681.3854  117553445.469 7  91600106.09144
      1599.643        1246.483
  24453520.460    24453519.8974   24453526.0944  128504121.379 6 100133095.81342
      3944.243        3073.423
  20911526.124    20911525.6384   20911528.9194  109890811.564 8  85629218.86346
        49.450          38.533
  23318662.095    23318661.8754   23318664.3294  122540386.401 6  95486036.70943
     -3120.061       -2431.210
  22359857.097    22359857.1114   22359859.0464  117501841.112 7  91559890.59344
      -762.068        -593.809
  23215461.687    23215460.5874   23215464.0144  121998080.460 6  95063450.79843
      3341.551        2603.844
  23001485.858    23001485.6264   23001489.2414  120873619.651 7  94187254.44144
      2150.744        1675.892
  24292559.027    24292558.2824   24292563.0544  127658254.176 5  99473988.38541
      3973.298        3096.045
 06  5  9 15 36 30.0000000  0  9G 6G 7G 8G10G13G16G21G27G29
  22692984.624    22692985.2854   22692988.7784  119252438.597 6  92923993.75943
     -2272.674       -1770.895
  22360644.008    22360643.7924   22360647.3864  117505972.101 7  91563113.84944
      1564.451        1219.041
  24431072.126    24431071.2874   24431077.2964  128386151.789 6 100041171.59142
      3919.633        3054.259
  20911353.521    20911353.2344   20911356.5054  109889905.948 8  85628513.17246
        10.238           7.975
  23336554.670    23336555.7324   23336557.6714  122634414.908 6  95559305.63543
     -3149.406       -2454.052
  22364314.207    22364314.2594   22364316.0284  117525262.072 7  91578140.67044
      -800.115        -623.450
  23196464.493    23196464.6174   23196467.4004  121898251.091 6  94985661.67043
      3313.094        2581.643
  22989297.567    22989297.7854   22989301.4894  120809571.589 7  94137346.86744
      2118.277        1650.604
  24269941.403    24269942.0154   24269947.1774  127539397.160 5  99381372.59641
      3950.180        3077.990
 06  5  9 15 37  0.0000000  0  9G 6G 7G 8G10G13G16G21G27G29
  22706048.337    22706048.7564   22706052.7024  119321088.283 6  92977486.93143
     -2304.137       -1795.458
  22351810.962    22351810.7574   22351814.5724  117459553.584 7  91526943.57144
      1529.753        1192.023
  24408763.799    24408763.7254   24408768.1604  128268922.651 6  99949824.29642
      3895.536        3035.473
  20911405.578    20911405.1694   20911408.2924  109890177.667 8  85628724.88446
       -28.636         -22.338
  23354613.715    23354614.2234   23354618.0314  122729318.013 6  95633256.03743
     -3177.755       -2476.176
  22368987.129    22368987.2364   22368989.2144  117549819.545 7  91597276.34244
      -837.448        -652.578
  23177630.785    23177629.8214   23177632.3574  121799275.845 6  94908538.14043
      3285.055        2559.763
  22977295.272    22977295.0174   22977298.0954  120746496.069 7  94088197.11444
      2086.506        1625.833
  24247455.356    24247454.8924   24247460.3934  127421237.808 5  99289300.32541
      3927.363        3060.324
 06  5  9 15 37 30.0000000  0  9G 6G 7G 8G10G13G16G21G27G29
  22719285.418    22719285.5644   22719289.3584  119390648.838 6  93031689.90243
     -2333.370       -1818.221
  22343169.143    22343169.4404   22343173.2054  117414143.634 7  91491559.18644
      1497.348        1166.767
  24386587.880    24386587.5074   24386593.0554  128152388.893 6  99859018.86142
      3873.293        3018.105
  20911672.242    20911671.5824   20911674.9134  109891578.462 8  85629816.40246
       -64.982         -50.632
  23372830.723    23372831.2954   23372834.1194  122825044.957 6  95707848.42143
     -3204.192       -2496.774
  22373867.480    22373867.3604   22373869.5824  117575464.968 7  91617259.78344
      -872.473        -679.833
  23158949.059    23158949.6514   23158952.0474  121701109.144 6  94832044.63243
      3259.135        2539.593
  22965468.392    22965468.5774   22965472.0744  120684347.158 7  94039769.39744
      2056.679        1602.615
  24225095.089    24225094.2924   24225099.5134  127303730.987 5  99197736.50541
      3906.453        3044.011
 06  5  9 15 38  0.0000000  0  9G 6G 7G 8G10G13G16G21G27G29
  22732685.511    22732685.4244   22732689.2734  119461066.288 6  93086560.59143
     -2360.680       -1839.510
  22334710.796    22334710.4774   22334714.1514  117369692.141 7  91456921.67044
      1466.178        1142.456
  24364535.462    24364535.4724   24364539.7524  128036502.043 6  99768717.52942
      3852.947        3002.340
  20912143.602    20912143.2224   20912146.5314  109894056.508 8  85631747.32846
       -99.935         -77.877
  23391192.852    23391194.4174   23391196.2764  122921541.516 6  95783040.47843
     -3228.836       -2515.963
  22378944.516    22378944.2664   22378946.6544  117602145.426 7  91638049.74744
      -906.172        -706.096
  23140413.940    23140413.9054   23140416.0114  121603702.004 6  94756142.98143
      3234.980        2520.743
  22953808.411    22953808.7924   22953811.9554  120623075.442 7  93992025.20244
      2028.244        1580.450
  24202849.959    24202850.1614   24202854.0674  127186827.828 5  99106643.11541
      3887.997        3029.574
 06  5  9 15 38 30.0000000  0  9G 6G 7G 8G10G13G16G21G27G29
  22746245.432    22746246.2614   22746249.5794  119532326.237 6  93142087.80043
     -2389.601       -1862.015
  22326431.896    22326431.6374   22326435.5634  117326187.806 7  91423022.18044
      1434.153        1117.538
  24342604.176    24342605.5224   24342608.2714  127921252.517 6  99678912.81242
      3830.658        2984.950
  20912817.952    20912817.3404   20912820.8454  109897599.164 8  85634507.81546
      -136.030        -105.999
  23409700.239    23409700.7374   23409702.6614  123018792.646 6  95858820.51943
     -3254.487       -2535.975
  22384216.059    22384216.0294   22384218.3584  117629847.603 7  91659635.83744
      -940.597        -732.928
  23122020.782    23122019.6264   23122022.9124  121507044.204 6  94680825.19743
      3209.166        2500.689
  22942314.017    22942313.9164   22942317.1594  120562669.709 7  93944955.79244
      1998.830        1557.543
  24180715.633    24180715.8004   24180720.4484  127070518.099 5  99016012.04841
      3866.808        3013.010
 06  5  9 15 39  0.0000000  0  9G 6G 7G 8G10G13G16G21G27G29
  22759957.523    22759957.9614   22759961.7334  119604382.534 6  93198235.53343
     -2414.793       -1881.636
  22318325.878    22318325.6134   22318329.2794  117283588.347 7  91389827.78344
      1405.220        1094.980
  24320786.257    24320786.7414   24320790.4164  127806599.266 6  99589572.73642
      3812.438        2970.721
  20913686.361    20913685.7214   20913688.9944  109902162.247 8  85638063.44846
      -168.709        -131.467
  23428340.282    23428340.5774   23428343.8574  123116751.719 6  95935152.19943
     -3276.522       -2553.126
  22389673.432    22389673.5974   22389674.8624  117658526.333 6  91681982.87744
      -971.837        -757.252
  23103761.603    23103762.5674   23103763.7744  121411094.779 6  94606059.48543
      3186.847        2483.249
  22930975.647    22930975.6854   22930979.5844  120503088.214 7  93898528.65144
      1972.796        1537.251
  24158688.268    24158688.1584   24158693.3524  126954760.688 5  98925811.36041
      3849.912        3000.022
 06  5  9 15 39 30.0000000  0  9G 6G 7G 8G10G13G16G21G27G29
  22773812.898    22773813.4284   22773817.1544  119677194.356 6  93254972.01643
     -2439.604       -1900.969
  22310384.529    22310384.3214   22310388.3684  117241856.620 7  91357309.57444
      1376.647        1072.729
  24299075.138    24299074.2294   24299079.6184  127692506.826 6  99500669.62042
      3793.863        2956.257
  20914741.440    20914740.7674   20914744.2884  109907706.987 8  85642383.99746
      -201.245        -156.807
  23447108.754    23447109.0454   23447111.7784  123215377.359 6  96012003.29843
     -3298.538       -2570.250
  22395308.984    22395309.0424   22395311.4974  117688141.893 7  91705059.93344
     -1002.774        -781.367
  23085631.581    23085630.9804   23085633.2644  121315817.606 6  94531817.56343
      3164.688        2466.033
  22919787.894    22919787.9574   22919791.1244  120444294.105 7  93852715.06944
      1946.667        1516.883
  24136759.606    24136759.0344   24136764.7154  126839520.143 5  98836013.60641
      3832.786        2986.608
 06  5  9 15 40  0.0000000  0  9G 6G 7G 8G10G13G16G21G27G29
  22787811.229    22787811.0624   22787815.7154  119750753.489 6  93312290.84443
     -2465.133       -1920.912
  22302607.392    22302607.2324   22302611.0984  117200987.534 7  91325463.54044
      1347.161        1049.736
  24277470.291    24277469.2354   24277474.6464  127578971.681 6  99412200.73542
      3774.483        2941.174
  20915981.944    20915981.7124   20915984.9054  109914226.818 8  85647464.37146
      -234.220        -182.506
  23466001.706    23466001.5784   23466004.3254  123314660.589 6  96089366.79443
     -3321.058       -2587.843
  22401121.617    22401121.6534   22401123.5354  117718687.110 7  91728861.33444
     -1034.317        -805.941
  23067628.620    23067626.9744   23067629.9534  121221208.691 6  94458096.35143
      3141.716        2448.083
  22908749.012    22908748.6374   22908752.0714  120386282.557 7  93807511.26244
      1920.026        1496.122
  24114925.975    24114927.6274   24114932.6054  126724791.691 5  98746614.70841
      3814.961        2972.730
 06  5  9 15 40 30.0000000  0  9G 6G 7G 8G10G13G16G21G27G29
  22801946.576    22801947.0724   22801950.4514  119825034.846 6  93370172.36443
     -2487.745       -1938.489
  22294990.424    22294990.0514   22294993.6234  117160960.015 7  91294273.26944
      1320.521        1029.009
  24255967.020    24255967.5314   24255972.0584  127465974.304 6  99324150.90642
      3757.912        2928.228
  20917404.033    20917403.5474   20917406.7734  109921698.958 8  85653286.80546
      -264.667        -206.222
  23485014.890    23485015.0144   23485017.9084  123414576.320 6  96167223.17443
     -3340.653       -2603.114
  22407106.574    22407106.5844   22407108.8154  117750138.214 7  91753368.65444
     -1063.142        -828.414
  23049747.523    23049747.4254   23049749.4254  121127248.248 6  94384880.44643
      3121.371        2432.222
  22897854.424    22897854.3504   22897857.7714  120329032.898 7  93762901.13544
      1896.014        1477.405
  24093189.402    24093190.1654   24093193.5854  126610555.988 5  98657599.78241
      3799.935        2960.990
 06  5  9 15 41  0.0000000  0  9G 6G 7G 8G10G13G16G21G27G29
  22816215.044    22816215.5384   22816219.5834  119900018.526 6  93428601.22243
     -2510.787       -1956.398
  22287530.212    22287529.9584   22287533.8374  117121757.118 7  91263725.53644
      1293.408        1007.854
  24234563.411    24234564.2744   24234568.8204  127353499.461 6  99236508.21642
      3740.907        2915.005
  20919003.721    20919003.2014   20919006.6194  109930104.904 8  85659836.87446
      -295.328        -230.109
  23504144.365    23504144.7574   23504148.7054  123515103.458 6  96245555.98843
     -3360.569       -2618.642
  22413260.419    22413260.1464   22413262.0834  117782475.792 6  91778566.73344
     -1092.231        -851.087
  23031987.628    23031987.3994   23031989.8324  121033920.153 6  94312157.26943
      3100.750        2416.164
  22887101.871    22887101.8094   22887105.3824  120272528.937 7  93718872.06444
      1871.528        1458.347
  24071542.179    24071540.6474   24071545.9954  126496798.034 5  98568957.41841
      3784.431        2948.989
 06  5  9 15 41 30.0000000  0  9G 6G 7G 8G10G13G16G21G27G29
  22830610.711    22830609.9674   22830614.3504  119975663.561 6  93487545.42443
     -2532.245       -1973.170
  22280219.689    22280220.0424   22280223.7744  117083341.749 7  91233791.48444
      1267.639         987.753
  24213252.342    24213253.5844   24213258.7794  127241511.672 6  99149245.04542
      3725.115        2902.692
  20920773.384    20920773.0124   20920776.2794  109939405.254 8  85667083.88646
      -324.569        -252.914
  23523382.467    23523383.5964   23523386.0014  123616200.836 6  96324333.08843
     -3379.129       -2633.061
  22419575.187    22419575.0194   22419577.6834  117815660.154 7  91804424.68344
     -1119.991        -872.718
  23014341.864    23014341.6994   23014344.2284  120941188.607 6  94239898.93143
      3081.297        2400.998
  22876483.817    22876484.6924   22876487.8644  120216733.438 7  93675395.04844
      1848.419        1440.312
  24049977.988    24049979.1474   24049983.9354  126383480.902 5  98480658.36941
      3770.146        2937.730
 06  5  9 15 42  0.0000000  0  9G 6G 7G 8G10G13G16G21G27G29
  22845127.849    22845127.8774   22845132.8634  120051954.563 6  93546992.93643
     -2553.210       -1989.526
  22273057.848    22273057.5334   22273061.1624  117045701.958 7  91204461.77844
      1242.264         967.999
  24192033.827    24192034.0164   24192037.5864  127130000.685 6  99062353.42642
      3709.756        2890.748
  20922710.985    20922710.4424   20922713.8634  109949586.564 8  85675017.35346
      -353.406        -275.371
  23542726.671    23542726.9804   23542729.6814  123717852.744 6  96403542.35642
     -3397.109       -2647.132
  22426048.124    22426048.2224   22426050.2834  117849676.919 7  91830931.23744
     -1147.234        -893.950
  22996807.169    22996806.7954   22996809.2664  120849043.155 7  94168097.25543
      3062.315        2386.191
  22865999.870    22865999.4224   22866003.1954  120161635.155 7  93632461.30844
      1825.537        1422.501
  24028496.995    24028495.3194   24028502.1014  126270594.316 5  98392694.82641
      3756.458        2927.062
 06  5  9 15 42 30.0000000  0  9G 6G 7G 8G10G13G16G21G27G29
  22859767.277    22859767.4064   22859771.2064  120128885.051 6  93606938.78043
     -2575.437       -2006.807
  22266041.896    22266042.1064   22266045.1864  117008834.770 7  91175734.09544
      1215.628         947.232
  24170904.624    24170903.1264   24170909.0484  127018965.302 6  98975832.33642
      3692.573        2877.332
  20924815.160    20924814.6614   20924818.0834  109960644.185 8  85683633.65146
      -383.568        -298.875
  23562174.893    23562174.1544   23562177.3344  123820052.067 6  96483178.19243
     -3416.215       -2662.000
  22432679.183    22432678.4874   22432680.7744  117884520.351 7  91858081.95444
     -1175.597        -916.067
  22979383.817    22979383.9274   22979385.6064  120757481.957 6  94096750.79643
      3041.891        2370.314
  22855646.859    22855646.8134   22855650.4904  120107231.433 7  93590068.78844
      1801.396        1403.703
  24007096.230    24007096.1184   24007100.0454  126158136.692 5  98305065.51141
      3740.762        2914.891
 06  5  9 15 43  0.0000000  0  9G 6G 7G 8G10G13G16G21G27G29
  22874526.654    22874526.5604   22874530.0034  120206443.554 6  93667373.99443
     -2595.132       -2022.163
  22259171.943    22259171.5994   22259175.5264  116972732.110 7  91147602.15444
      1191.306         928.286
  24149864.746    24149864.4384   24149868.5984  126908398.985 6  98889676.74742
      3678.041        2865.996
  20927084.119    20927083.7494   20927087.1944  109972568.399 8  85692925.22646
      -411.315        -320.507
  23581723.848    23581724.8234   23581727.1594  123922786.550 6  96563230.99242
     -3432.958       -2675.029
  22439465.279    22439464.6584   22439466.7514  117920180.073 7  91885868.73544
     -1201.652        -936.369
  22962070.148    22962070.2264   22962071.6364  120666498.370 6  94025854.43343
      3023.753        2356.174
  22845424.688    22845424.8964   22845428.6204  120053514.681 7  93548211.57444
      1779.568        1386.675
  23985776.326    23985776.2904   23985779.3374  126046101.141 5  98217765.06441
      3727.760        2904.732
 06  5  9 15 43 30.0000000  0  9G 6G 7G 8G10G13G16G21G27G29
  22889399.919    22889400.1994   22889403.5614  120284606.529 6  93728280.20443
     -2616.104       -2038.483
  22252443.409    22252443.4964   22252446.7444  116937374.115 7  91120050.47944
      1165.475         908.152
  24128910.275    24128909.0484   24128914.2474  126798283.383 6  98803872.37342
      3662.361        2853.788
  20929514.152    20929513.7494   20929517.1214  109985337.786 8  85702875.37146
      -440.423        -343.189
  23601371.292    23601371.0044   23601374.9144  124026032.617 6  96643682.45942
     -3450.619       -2688.844
  22446401.333    22446401.3994   22446403.7824  117956633.867 7  91914274.29044
     -1229.003        -957.679
  22944862.607    22944862.1944   22944864.3844  120576073.362 6  93955393.37543
      3004.157        2340.914
  22835329.982    22835330.2324   22835333.6054  120000465.232 7  93506874.32544
      1756.526        1368.724
  23964533.733    23964533.3304   23964536.9004  125934469.525 5  98130779.51841
      3713.655        2893.763
 06  5  9 15 44  0.0000000  0  9G 6G 7G 8G10G13G16G21G27G29
  22904392.110    22904392.7104   22904395.5994  120363388.963 6  93789669.13943
     -2635.573       -2053.675
  22245860.257    22245860.0224   22245863.9294  116902778.729 7  91093093.03744
      1140.950         889.063
  24108045.463    24108045.2284   24108049.6474  126688638.388 6  98718434.70842
      3647.483        2842.208
  20932108.105    20932107.6234   20932110.8364  109998968.316 8  85713496.53246
      -468.143        -364.770
  23621118.662    23621118.7954   23621121.4914  124129804.096 6  96724543.30742
     -3467.415       -2701.852
  22453492.614    22453493.0864   22453494.3124  117993897.027 7  91943310.47644
     -1255.061        -977.946
  22927765.796    22927764.4754   22927767.7574  120486226.438 6  93885382.77843
      2985.858        2326.648
  22825365.535    22825365.4104   22825369.2974  119948101.710 7  93466071.56444
      1734.400        1351.480
  23943372.153    23943371.9174   23943375.6104  125823260.985 5  98044123.70841
      3700.632        2883.659
 06  5  9 15 44 30.0000000  0  9G 6G 7G 8G10G13G16G21G27G29
  22919494.101    22919494.1524   22919498.5114  120442749.459 6  93851508.45743
     -2655.217       -2068.975
  22239414.892    22239414.6084   22239418.4164  116868908.454 7  91066700.55044
      1116.463         869.979
  24087262.869    24087263.1614   24087267.7744  126579428.455 6  98633336.06842
      3632.744        2830.692
  20934858.378    20934857.8824   20934861.0684  110013420.667 8  85724758.08246
      -495.656        -386.219
  23640958.211    23640958.9714   23640961.0334  124234059.765 6  96805781.46542
     -3483.697       -2714.646
  22460730.221    22460730.0854   22460731.7614  118031929.567 7  91972946.18944
     -1281.034        -998.217
  22910771.658    22910771.2074   22910772.6334  120396921.242 6  93815794.31043
      2967.431        2312.288
  22815524.925    22815524.9874   22815528.3784  119896386.765 7  93425774.20444
      1712.681        1334.563
  23922282.526    23922282.5874   23922286.5154  125712438.743 5  97957768.68141
      3687.349        2873.222
 06  5  9 15 45  0.0000000  0  9G 6G 7G 8G10G13G16G21G27G29
  22934700.787    22934701.2244   22934704.7084  120522662.653 6  93913778.42443
     -2673.404       -2083.171
  22233103.437    22233103.3344   22233107.3504  116835741.220 7  91040855.90444
      1093.516         852.096
  24066560.130    24066560.0754   24066564.8204  126470632.857 6  98548560.29942
      3619.133        2820.137
  20937760.379    20937759.8994   20937763.2254  110028671.333 8  85736641.68546
      -522.062        -406.801
  23660883.923    23660884.9234   23660887.5194  124338773.641 6  96887376.66442
     -3498.438       -2726.050
  22468108.740    22468108.8644   22468111.1014  118070706.597 7  92003162.02744
     -1305.119       -1016.957
  22893876.316    22893876.1944   22893878.6154  120308137.088 6  93746611.87043
      2950.384        2298.988
  22805802.786    22805802.7924   22805806.2474  119845298.916 7  93385965.47944
      1692.005        1318.452
  23901264.370    23901263.2624   23901266.7654  125601982.764 5  97871699.05941
      3675.139        2863.735
 06  5  9 15 45 30.0000000  0 10G 6G 7G 8G10G13G15G16G21G27G29
  22950014.947    22950015.3364   22950019.5324  120603139.439 6  93976487.56243
     -2693.207       -2098.641
  22226928.611    22226928.2244   22226932.0784  116803291.634 7  91015570.51444
      1068.324         832.453
  24045938.887    24045938.9774   24045943.2934  126362267.785 6  98464120.01342
      3603.926        2808.246
  20940816.795    20940816.4254   20940819.6284  110044732.762 8  85749157.04646
      -550.026        -428.596
  23680899.521    23680900.0394   23680902.5504  124443956.615 6  96969337.39042
     -3515.045       -2738.939
  24545760.158                                   128988872.574 4
      3918.701
  22475632.121    22475631.9214   22475633.6174  118110240.216 7  92033967.41943
     -1331.790       -1037.739
  22877082.942    22877082.8674   22877085.3234  120219889.675 6  93677847.67943
      2931.267        2284.100
  22796203.485    22796203.2044   22796206.7044  119794852.585 7  93346656.64244
      1669.707        1301.051
  23880318.180    23880316.1784   23880322.4434  125491908.828 5  97785927.22341
      3661.686        2853.299
 06  5  9 15 46  0.0000000  0 10G 6G 7G 8G10G13G15G16G21G27G29
  22965438.435    22965438.3734   22965441.6414  120684188.722 6  94039642.76043
     -2710.481       -2112.048
  22220892.624    22220892.1644   22220895.9274  116771571.845 7  90990853.81644
      1045.866         814.958
  24025402.490    24025402.0774   24025407.0084  126254347.770 6  98380026.51042
      3590.569        2797.844
  20944029.646    20944029.0894   20944032.2384  110061615.553 8  85762312.43846
      -575.770        -448.658
  23701006.533    23701006.7764   23701009.9474  124549616.484 6  97051669.74542
     -3529.045       -2749.926
  24523414.116                                   128871438.062 5
      3909.791
  22483301.187    22483300.7534   22483302.6934  118150540.477 6  92065370.19843
     -1355.305       -1056.095
  22860394.784    22860395.0594   22860397.2974  120132192.854 6  93609512.49743
      2914.729        2271.234
  22786728.596    22786728.6714   22786731.8754  119745061.229 7  93307858.17844
      1649.579        1285.381
  23859445.412    23859446.5664   23859451.1644  125382230.726 5  97700463.78841
      3650.059        2844.197
 06  5  9 15 46 30.0000000  0 10G 6G 7G 8G10G13G15G16G21G27G29
  22980961.218    22980960.9844   22980965.5454  120765760.320 6  94103205.03243
     -2728.111       -2125.814
  22214985.876    22214986.1734   22214989.6644  116740534.681 7  90966669.01844
      1022.731         796.937
  24004942.227    24004941.5574   24004946.3444  126146827.296 6  98296244.38242
      3577.145        2787.400
  20947389.305    20947388.8404   20947392.0234  110079270.723 8  85776069.68346
      -601.797        -468.934
  23721194.096    23721193.9604   23721196.7684  124655702.489 6  97134334.15142
     -3543.484       -2761.096
  24501119.401                                   128754281.347 5
      3900.273
  22491106.754    22491106.0424   22491108.3504  118191557.671 7  92097331.60743
     -1379.639       -1075.068
  22843803.276    22843803.2494   22843805.6244  120045000.660 6  93541570.52243
      2897.517        2257.790
  22777369.667    22777369.3054   22777372.9954  119695878.166 7  93269533.71244
      1628.941        1269.312
  23838641.945    23838642.2834   23838645.8874  125272902.599 5  97615272.99641
      3638.177        2834.863
 06  5  9 15 47  0.0000000  0 10G 6G 7G 8G10G13G15G16G21G27G29
  22996583.327    22996583.6074   22996588.0384  120847858.090 6  94167177.27643
     -2745.363       -2139.223
  22209211.715    22209211.6104   22209215.3774  116710187.943 7  90943022.20944
       999.957         779.203
  23984559.336    23984559.6674   23984563.2544  126039716.076 6  98212781.18742
      3563.532        2776.784
  20950896.924    20950896.4984   20950899.8964  110097704.303 8  85790433.48446
      -627.462        -488.934
  23741462.860    23741463.3644   23741464.6964  124762218.588 6  97217333.70242
     -3557.759       -2772.382
  24478879.812                                   128637411.697 5
      3890.671
  22499049.306    22499049.2404   22499051.1114  118233296.688 7  92129855.50443
     -1403.394       -1093.541
  22827308.783    22827308.7714   22827310.5584  119958321.860 7  93474028.62843
      2880.618        2244.644
  22768127.398    22768127.0464   22768130.7784  119647311.199 7  93231689.32544
      1608.567        1253.419
  23817905.632    23817906.5464   23817909.7484  125163933.770 5  97530362.24641
      3626.359        2825.762
 06  5  9 15 47 30.0000000  0 10G 6G 7G 8G10G13G15G16G21G27G29
  23012306.748    23012307.6604   23012311.3274  120930482.462 6  94231559.77743
     -2763.834       -2153.648
  22203568.693    22203568.8004   22203572.5594  116680535.634 7  90919916.50144
       975.866         760.411
  23964255.553    23964255.7504   23964260.7124  125933019.668 6  98129641.20542
      3548.690        2765.191
  20954553.468    20954553.0944   20954556.3574  110116918.663 8  85805405.68146
      -654.286        -509.829
  23761814.324    23761814.4764   23761817.5774  124869164.738 6  97300668.33342
     -3572.935       -2784.132
  24456695.145                                   128520834.342 5
      3879.913
  22507129.450    22507129.5464   22507131.7604  118275758.845 7  92162942.85843
     -1428.312       -1112.966
  22810912.787    22810912.7224   22810914.9004  119872161.881 6  93406890.99743
      2862.384        2230.427
  22759003.235    22759003.5734   22759006.6024  119599364.612 7  93194328.34744
      1587.016        1236.635
  23797238.593    23797239.0714   23797242.8194  125055329.604 6  97445735.64641
      3613.029        2815.387
 06  5  9 15 48  0.0000000  0 11G 3G 6G 7G 8G10G13G15G16G21G27G29
  24380117.317    24380116.4854   24380120.5054  128118397.534 5  99832523.38941
      3472.213        2705.637
  23028127.059    23028127.1664   23028131.8334  121013619.508 6  94296341.89043
     -2779.745       -2166.037
  22198055.917    22198056.0194   22198059.7024  116651566.422 7  90897343.08944
       953.974         743.358
  23944029.025    23944029.3594   23944033.1164  125826728.952 6  98046817.37842
      3536.256        2755.514
  20958355.978    20958355.5214   20958358.8484  110136900.715 8  85820976.08646
      -678.809        -528.934
  23782244.849    23782245.8354   23782248.5504  124976526.074 6  97384326.49142
     -3585.866       -2794.159
  24434565.879                                   128404540.133 5
      3871.501
  22515344.629    22515344.8814   22515346.5834  118318930.796 7  92196583.32343
     -1451.145       -1130.780
  22794613.793    22794614.3294   22794616.2224  119786511.245 6  93340150.24943
      2846.325        2217.916
  22749995.561    22749995.5314   22749998.8464  119552027.961 7  93157442.65444
      1567.621        1221.516
  23776640.299    23776639.4864   23776642.7724  124947080.389 6  97361385.58841
      3602.442        2807.121
 06  5  9 15 48 30.0000000  0 11G 3G 6G 7G 8G10G13G15G16G21G27G29
  24360326.444    24360324.8984   24360329.0894  128014391.471 5  99751479.79341
      3460.265        2696.281
  23044037.661    23044038.3824   23044042.8634  121097234.359 6  94361496.25543
     -2795.560       -2178.353
  22192667.614    22192667.3774   22192671.1654  116623249.477 7  90875277.94344
       932.544         726.645
  23923874.462    23923873.7764   23923878.7424  125720814.656 6  97964286.85843
      3523.480        2745.553
  20962298.371    20962297.8344   20962300.8914  110157617.276 8  85837118.82746
      -703.266        -547.988
  23802746.889    23802747.7754   23802749.7414  125084267.766 6  97468281.01442
     -3598.306       -2803.870
  24412483.343    24412482.6894   24412486.0784  128288499.095 5  99965060.97241
      3863.446        3010.448
  22523688.612    22523688.6564   22523690.5564  118362778.659 7  92230750.47043
     -1473.274       -1147.979
  22778406.810    22778406.5564   22778408.3744  119701340.303 6  93273783.29943
      2830.625        2205.676
  22741097.739    22741097.7384   22741101.2764  119505270.659 7  93121008.39644
      1548.359        1206.511
  23756102.698    23756102.9384   23756106.6854  124839156.866 6  97277289.41542
      3591.489        2798.638
 06  5  9 15 49  0.0000000  0 11G 3G 6G 7G 8G10G13G15G16G21G27G29
  24340604.905    24340606.5434   24340610.2804  127910759.714 5  99670727.81841
      3447.920        2686.740
  23060041.933    23060042.1794   23060045.9944  121181331.301 6  94427026.30043
     -2811.454       -2190.754
  22187404.606    22187404.5644   22187408.0164  116595592.033 7  90853726.69544
       910.737         709.676
  23903792.877    23903792.5094   23903796.6984  125615286.098 6  97882056.93942
      3511.123        2735.898
  20966381.404    20966380.8634   20966384.3354  110179074.299 8  85853838.54846
      -727.653        -567.005
  23823322.762    23823322.6814   23823325.9434  125192393.444 6  97552534.77742
     -3610.536       -2813.352
  24390451.217    24390453.3734   24390457.1824  128172720.504 5  99874843.86841
      3854.541        3003.499
  22532162.154    22532162.3754   22532163.9344  118407307.656 6  92265448.38843
     -1495.805       -1165.523
  22762292.129    22762291.9674   22762294.1474  119616657.431 7  93207796.64543
      2814.355        2193.002
  22732311.891    22732311.9394   22732315.1934  119459100.521 7  93085031.68544
      1529.195        1191.565
  23735628.717    23735629.7944   23735631.8874  124731567.695 6  97193453.78242
      3580.551        2790.059
 06  5  9 15 49 30.0000000  0 11G 3G 6G 7G 8G10G13G15G16G21G27G29
  24320956.268    24320954.2824   24320958.9414  127807499.801 5  99590265.56841
      3435.781        2677.221
  23076134.762    23076135.1694   23076139.2484  121265902.376 6  94492925.80443
     -2826.926       -2202.802
  22182266.352    22182266.3784   22182269.5864  116568589.690 7  90832685.91744
       889.118         692.824
  23883784.591    23883784.9044   23883788.4644  125510140.692 6  97800125.55742
      3498.431        2726.085
  20970604.198    20970603.8774   20970607.0064  110201265.505 8  85871130.37346
      -752.014        -585.976
  23843970.548    23843971.3054   23843973.3834  125300894.959 6  97637081.40842
     -3622.890       -2822.955
  24368468.792    24368467.8964   24368470.1334  128057201.389 5  99784829.07341
      3846.225        2997.019
  22540763.842    22540764.0834   22540766.1634  118452510.331 6  92300671.23043
     -1517.989       -1182.848
  22746269.790    22746269.5284   22746271.3374  119532459.699 7  93142188.03143
      2798.361        2180.527
  22723637.429    22723637.0054   22723640.4314  119413513.466 7  93049509.32944
      1509.836        1176.501
  23715219.080    23715219.2874   23715222.8194  124624309.986 5  97109876.41742
      3569.656        2781.543
 06  5  9 15 50  0.0000000  0 11G 3G 6G 7G 8G10G13G15G16G21G27G29
  24301374.766    24301377.5374   24301377.6024  127704613.069 5  99510094.12741
      3422.849        2667.153
  23092318.114    23092317.9014   23092321.0034  121350943.979 6  94559191.98243
     -2843.000       -2215.325
  22177252.708    22177252.6854   22177255.4804  116542242.065 7  90812155.29444
       866.889         675.490
  23863849.094    23863848.4664   23863853.0294  125405380.062 6  97718494.02743
      3484.955        2715.549
  20974966.623    20974966.0084   20974969.3894  110224188.847 8  85888992.69346
      -776.736        -605.242
  23864687.837    23864689.3954   23864690.9854  125409768.234 6  97721917.70842
     -3635.782       -2833.122
  24346536.094    24346535.9554   24346541.4264  127941942.936 5  99695017.32041
      3837.052        2989.998
  22549493.653    22549493.7264   22549495.8004  118498384.075 7  92336416.97443
     -1540.758       -1200.604
  22730340.263    22730339.6934   22730342.0274  119448748.735 7  93076958.72243
      2781.766        2167.622
  22715072.983    22715073.0194   22715076.3764  119368509.242 7  93014441.12244
      1489.905        1160.965
  23694870.816    23694872.7814   23694874.8544  124517384.888 6  97026558.13442
      3558.069        2772.565
 06  5  9 15 50 30.0000000  0 11G 3G 6G 7G 8G10G13G15G16G21G27G29
  24281869.285    24281867.2774   24281869.7964  127602098.670 5  99430212.79341
      3410.675        2657.657
  23108589.276    23108588.7694   23108593.8294  121436449.913 6  94625819.99243
     -2858.180       -2227.177
  22172362.645    22172362.5964   22172366.5544  116516546.490 7  90792132.77944
       845.380         658.719
  23843986.566    23843986.8664   23843990.7194  125301003.492 6  97637161.76143
      3472.555        2705.881
  20979467.017    20979466.5954   20979469.7394  110247839.788 8  85907421.96846
      -800.740        -623.954
  23885475.502    23885476.0324   23885479.2604  125519006.828 6  97807038.65042
     -3647.579       -2842.269
  24324653.247    24324650.8894   24324656.9484  127826944.024 5  99605407.89041
      3828.806        2983.434
  22558350.459    22558349.8014   22558351.1644  118544923.537 6  92372681.48443
     -1562.638       -1217.648
  22714502.863    22714502.4954   22714504.4814  119365522.713 7  93012107.30543
      2765.815        2155.174
  22706619.426    22706619.3564   22706622.9754  119324085.912 7  92979825.55044
      1470.847        1146.113
  23674587.952    23674587.5674   23674592.0174  124410791.607 6  96943498.50442
      3547.205        2764.089
 06  5  9 15 51  0.0000000  0 11G 3G 6G 7G 8G10G13G15G16G21G27G29
  24262425.299    24262426.3334   24262428.9854  127499929.159 5  99350600.14441
      3399.715        2649.070
  23124942.304    23124943.3824   23124945.7644  121522387.649 6  94692784.41443
     -2872.025       -2238.016
  22167592.114    22167591.7094   22167595.0344  116491473.435 7  90772595.31944
       825.144         642.956
  23824191.909    23824192.1104   23824196.5904  125196983.252 6  97556107.14943
      3461.419        2697.182
  20984100.383    20984099.9034   20984103.1214  110272186.884 8  85926393.70146
      -823.324        -641.577
  23906326.105    23906326.2854   23906328.5994  125628577.501 6  97892418.34842
     -3658.052       -2850.467
  24302812.788    24302815.0984   24302813.5574  127712176.632 5  99515978.76541
      3821.483        2977.777
  22567326.756    22567326.6054   22567328.3804  118592096.690 7  92409439.76143
     -1583.258       -1233.716
  22698752.293    22698751.8324   22698754.4034  119282753.458 6  92947611.81243
      2751.051        2143.649
  22698271.163    22698271.2704   22698274.3144  119280214.884 7  92945640.37344
      1453.017        1132.202
  23654360.921    23654362.1824   23654364.6404  124304502.070 6  96860675.54442
      3537.836        2756.728
 06  5  9 15 51 30.0000000  0 11G 3G 6G 7G 8G10G13G15G16G21G27G29
  24243049.771    24243049.9724   24243054.4144  127398106.316 5  99271257.72241
      3387.601        2639.627
  23141377.337    23141377.4404   23141381.1764  121608753.407 6  94760082.36342
     -2886.784       -2249.437
  22162938.667    22162938.7294   22162941.8004  116467022.918 7  90753542.94044
       803.829         626.362
  23804466.305    23804465.4324   23804469.8554  125093321.559 6  97475331.93943
      3448.834        2687.429
  20988865.414    20988865.1394   20988868.3514  110297228.415 8  85945906.55346
      -846.906        -659.922
  23927239.053    23927239.5964   23927241.5064  125738476.534 6  97978053.88742
     -3669.408       -2859.282
  24281017.580    24281017.4144   24281023.2884  127597642.071 5  99426731.09241
      3813.093        2971.252
  22576423.206    22576423.5654   22576425.2624  118639900.509 7  92446689.45543
     -1604.722       -1250.446
  22683089.307    22683088.9544   22683090.7534  119200442.975 6  92883473.80343
      2735.214        2131.343
  22690027.876    22690028.1134   22690031.0894  119236896.262 7  92911885.61544
      1434.171        1117.534
  23634192.887    23634193.6644   23634197.4374  124198517.866 6  96778090.52342
      3526.988        2748.249
 06  5  9 15 52  0.0000000  0 11G 3G 6G 7G 8G10G13G15G16G21G27G29
  24223741.353    24223741.9314   24223745.5524  127296641.649 5  99192194.34841
      3375.923        2630.644
  23157894.963    23157895.2754   23157899.1794  121695553.916 6  94827719.07542
     -2900.804       -2260.387
  22158406.475    22158406.3514   22158409.6114  116443204.739 7  90734983.31244
       783.145         610.243
  23784809.487    23784810.2154   23784813.8424  124990030.224 6  97394845.29543
      3436.743        2677.976
  20993764.510    20993763.9894   20993767.1544  110322972.444 8  85965966.81946
      -870.073        -677.970
  23948215.481    23948216.9924   23948219.3464  125848710.196 6  98063950.20342
     -3680.013       -2867.578
  24259270.316    24259266.0154   24259273.7394  127483351.955 5  99337673.84141
      3805.410        2965.280
  22585641.689    22585641.5134   22585643.6714  118688342.751 7  92484436.60943
     -1625.576       -1266.668
  22667515.187    22667514.9324   22667516.8014  119118601.908 6  92819701.53943
      2719.924        2119.421
  22681891.716    22681891.5194   22681894.9204  119194140.241 7  92878569.25744
      1415.646        1103.112
  23614085.145    23614085.1374   23614088.4814  124092850.397 6  96695752.31042
      3516.708        2740.269
 06  5  9 15 52 30.0000000  0 11G 3G 6G 7G 8G10G13G15G16G21G27G29
  24204502.313    24204500.9824   24204505.3744  127195530.920 5  99113406.84741
      3363.932        2621.175
  23174493.841    23174494.1794   23174497.5784  121782779.356 6  94895686.91843
     -2914.884       -2271.340
  22153993.049    22153993.1234   22153996.4464  116420012.067 7  90716911.08544
       762.370         594.062
  23765223.282    23765223.7554   23765227.7284  124887104.538 6  97314643.56643
      3424.240        2668.258
  20998795.650    20998795.0444   20998798.2554  110349410.441 8  85986567.83846
      -893.156        -695.957
  23969254.455    23969254.8174   23969256.9114  125959268.109 6  98150099.15142
     -3691.167       -2876.261
  24237565.639    24237566.4014   24237568.8084  127369301.456 5  99248803.28441
      3797.287        2958.951
  22594979.862    22594979.7324   22594981.6364  118737414.420 7  92522674.24243
     -1646.473       -1282.979
  22652030.262    22652029.9514   22652030.8934  119037225.539 7  92756291.39243
      2704.481        2107.417
  22673861.312    22673861.3054   22673864.8374  119151940.711 7  92845686.53344
      1396.892        1088.481
  23594036.723    23594036.5614   23594039.8574  123987494.622 6  96613656.93942
      3506.217        2732.165
 06  5  9 15 53  0.0000000  0 11G 3G 6G 7G 8G10G13G15G16G21G27G29
  24185327.272    24185326.3924   24185329.9594  127094772.496 5  99034893.86941
      3352.333        2612.192
  23191172.553    23191172.0874   23191175.0864  121870423.035 6  94963980.62443
     -2928.615       -2282.040
  22149697.979    22149697.7184   22149701.1584  116397441.828 7  90699323.86644
       741.648         577.880
  23745706.533    23745707.1544   23745711.0014  124784543.405 6  97234725.91343
      3412.242        2658.870
  21003957.744    21003957.1134   21003960.2754  110376537.320 8  86007705.65146
      -915.977        -713.751
  23990353.376    23990353.9234   23990356.5544  126070143.488 6  98236495.46942
     -3701.501       -2884.243
  24215908.324    24215906.6834   24215914.6254  127255489.217 5  99160118.43441
      3789.441        2952.808
  22604436.493    22604436.6384   22604438.1124  118787109.376 7  92561397.57143
     -1667.156       -1299.048
  22636632.342    22636632.3734   22636634.2794  118956311.743 6  92693241.66943
      2689.077        2095.360
  22665936.388    22665936.2944   22665939.5304  119110294.772 7  92813235.17644
      1378.549        1074.180
  23574047.767    23574047.6404   23574050.9934  123882448.901 6  96531803.24442
      3496.065        2724.177
 06  5  9 15 53 30.0000000  0 11G 3G 6G 7G 8G10G13G15G16G21G27G29
  24166223.070    24166222.7864   24166227.5664  126994381.155 5  98956666.92041
      3340.573        2603.117
  23207931.644    23207931.2364   23207934.5154  121958494.660 6  95032607.76242
     -2942.478       -2292.820
  22145524.197    22145523.7324   22145527.5564  116375506.947 7  90682231.71044
       720.616         561.523
  23726261.974    23726262.3054   23726266.1644  124682361.745 6  97155103.94443
      3400.162        2649.457
  21009252.845    21009252.4744   21009255.6644  110404364.169 8  86029388.88546
      -939.073        -731.745
  24011514.794    24011514.8634   24011516.5014  126181346.080 6  98323146.81542
     -3711.764       -2892.251
  24194299.227    24194297.5134   24194300.6634  127141929.644 5  99071630.44241
      3781.340        2946.418
  22614013.934    22614013.5024   22614015.5034  118837437.938 6  92600614.56843
     -1688.068       -1315.409
  22621326.091    22621325.4794   22621328.2394  118875875.844 7  92630564.36243
      2673.397        2083.174
  22658119.191    22658119.6664   22658122.7064  119069216.005 7  92781225.76244
      1360.118        1059.818
  23554119.501    23554118.7584   23554122.7104  123777727.910 6  96450202.49542
      3485.673        2716.123
 06  5  9 15 54  0.0000000  0 11G 3G 6G 7G 8G10G13G15G16G21G27G29
  24147184.696    24147184.2164   24147186.4704  126894328.128 5  98878703.51241
      3328.683        2593.796
  23224765.815    23224766.3624   23224769.2894  122046960.470 6  95101542.05242
     -2955.913       -2303.312
  22141465.585    22141465.0804   22141468.5734  116354176.779 7  90665610.80944
       700.310         545.668
  23706884.425    23706884.4494   23706888.0214  124580530.732 6  97075755.19543
      3387.937        2639.945
  21014675.169    21014674.7794   21014677.9174  110432858.508 8  86051592.24846
      -961.419        -749.172
  24032731.697    24032731.9664   24032734.2454  126292840.897 6  98410025.86642
     -3722.047       -2900.321
  24172731.254    24172730.4314   24172735.6064  127028593.654 5  98983316.57841
      3773.359        2940.217
  22623705.264    22623705.1014   22623707.6584  118888367.237 6  92640299.69543
     -1708.233       -1331.112
  22606104.917    22606104.5394   22606106.9504  118795887.911 7  92568236.08143
      2658.200        2071.343
  22650404.474    22650404.5674   22650407.6504  119028674.235 7  92749634.80344
      1341.859        1045.590
  23534247.785    23534248.0944   23534252.0184  123673302.805 6  96368832.29442
      3475.280        2708.059
 06  5  9 15 54 30.0000000  0 11G 3G 6G 7G 8G10G13G15G16G21G27G29
  24128212.152    24128211.0954   24128216.5004  126794629.428 5  98801016.24141
      3317.516        2585.126
  23241677.130    23241678.2504   23241681.4374  122135830.859 6  95170791.56542
     -2968.951       -2313.461
  22137523.676    22137523.7954   22137527.0554  116333465.164 6  90649471.87444
       680.103         529.952
  23687576.101    23687576.2384   23687579.7384  124479066.698 6  96996692.40043
      3376.160        2630.794
  21020226.837    21020226.3644   21020229.7114  110462032.338 8  86074325.08146
      -983.772        -766.563
  24054006.034    24054006.4284   24054009.8494  126404638.487 6  98497140.79542
     -3731.462       -2907.601
  24151209.899    24151210.9364   24151215.0304  126915496.878 5  98895189.11341
      3766.079        2934.612
  22633513.305    22633513.3524   22633514.7324  118939908.357 7  92680461.58543
     -1728.168       -1346.584
  22590971.979    22590971.8864   22590974.0404  118716363.590 6  92506269.08043
      2643.081        2059.513
  22642794.700    22642794.3174   22642797.6244  118988683.683 7  92718473.35644
      1323.867        1031.581
  23514435.494    23514435.7894   23514440.2954  123569189.126 6  96287704.82842
      3465.404        2700.367
 06  5  9 15 55  0.0000000  0 11G 3G 6G 7G 8G10G13G15G16G21G27G29
  24109305.661    24109306.7844   24109308.9664  126695282.078 5  98723602.78641
      3305.316        2575.562
  23258664.508    23258664.3694   23258668.0124  122225097.908 6  95240350.28342
     -2982.130       -2323.759
  22133699.059    22133698.9294   22133702.3844  116313366.661 7  90633810.69744
       659.574         513.970
  23668337.601    23668337.3504   23668341.0414  124377966.469 6  96917913.06943
      3363.740        2621.108
  21025906.368    21025905.9384   21025909.2264  110491878.578 8  86097581.87746
     -1006.174        -784.019
  24075335.938    24075336.1114   24075339.4454  126516730.357 6  98584485.04442
     -3741.611       -2915.554
  24129733.214    24129735.8564   24129735.9484  126802636.203 5  98807245.69541
      3757.865        2928.189
  22643435.944    22643435.8624   22643437.4994  118992053.080 7  92721093.82643
     -1748.411       -1362.410
  22575926.309    22575926.3354   22575928.0664  118637299.276 7  92444660.54244
      2627.692        2047.575
  22635288.980    22635288.4444   22635291.8764  118949239.888 7  92687737.94844
      1305.429        1017.220
  23494681.732    23494682.9614   23494684.4204  123465383.524 6  96206817.43742
      3454.940        2692.162
 06  5  9 15 55 30.0000000  0 11G 3G 6G 7G 8G10G13G15G16G21G27G29
  24090467.307    24090468.5294   24090470.6324  126596281.127 5  98646459.17641
      3293.864        2566.615
  23275724.777    23275725.5254   23275729.4134  122314751.252 6  95310209.95642
     -2995.341       -2333.991
  22129990.056    22129989.9454   22129993.3224  116293875.099 7  90618622.47444
       639.197         498.073
  23649167.142    23649167.2924   23649170.8184  124277225.213 6  96839413.48343
      3351.542        2611.596
  21031712.312    21031711.7584   21031715.2284  110522388.914 8  86121356.15846
     -1028.596        -801.508
  24096720.887    24096720.7064   24096723.3284  126629106.387 6  98672050.77642
     -3751.069       -2922.906
  24108300.896    24108301.7974   24108304.6554  126690006.917 5  98719482.67741
      3750.083        2922.140
  22653472.232    22653472.2664   22653474.7664  119044792.970 7  92762189.83343
     -1768.250       -1377.858
  22560967.998    22560967.1814   22560969.4544  118558689.878 7  92383406.40743
      2612.239        2035.526
  22627885.357    22627885.7284   22627888.6924  118910336.644 7  92657423.74645
      1287.352        1003.136
  23474986.181    23474986.6464   23474989.4194  123361880.926 6  96126166.13742
      3444.507        2684.050
 06  5  9 15 56  0.0000000  0 11G 3G 6G 7G 8G10G13G15G16G21G27G29
  24071693.458    24071694.7974   24071698.4364  126497623.237 5  98569582.98841
      3282.607        2557.874
  23292857.123    23292858.0154   23292860.6674  122404782.323 6  95380363.98742
     -3007.492       -2343.480
  22126394.853    22126395.1234   22126398.7394  116274984.460 7  90603902.49644
       619.483         482.716
  23630064.363    23630064.5684   23630068.0114  124176839.720 6  96761191.09143
      3340.061        2602.659
  21037643.169    21037642.7354   21037646.0384  110553555.869 8  86145642.08946
     -1049.944        -818.122
  24118157.689    24118156.7884   24118160.6314  126741757.039 6  98759830.48842
     -3759.849       -2929.732
  24086911.045    24086911.8314   24086916.0274  126577604.953 5  98631896.80641
      3742.744        2916.428
  22663619.695    22663620.1394   22663621.8274  119098119.453 7  92803742.86743
     -1787.536       -1392.883
  22546094.131    22546094.1614   22546096.2224  118480531.211 7  92322503.63544
      2597.533        2024.048
  22620584.422    22620584.3524   22620587.6774  118871968.557 7  92627526.53545
      1269.809         989.466
  23455346.878    23455347.1164   23455350.6414  123258677.443 6  96045747.87342
      3435.057        2676.677
 06  5  9 15 56 30.0000000  0 11G 3G 6G 7G 8G10G13G15G16G21G27G29
  24052987.382    24052988.0194   24052990.6194  126399323.257 5  98492985.54741
      3271.091        2548.887
  23310063.575    23310063.7024   23310067.4664  122495200.688 6  95450819.79742
     -3019.841       -2353.106
  22122917.223    22122917.1044   22122920.6944  116256707.789 7  90589660.94244
       599.445         467.109
  23611032.179    23611032.1354   23611035.6694  124076824.902 6  96683257.52443
      3328.067        2593.315
  21043701.049    21043700.6274   21043704.1024  110585390.448 8  86170448.24646
     -1071.722        -835.098
  24139648.449    24139648.4944   24139651.2354  126854692.105 6  98847831.82741
     -3768.762       -2936.636
  24065568.517    24065566.5964   24065573.1554  126465444.915 5  98544499.40741
      3735.111        2910.433
  22673880.798    22673881.0694   22673883.0924  119152043.327 7  92845761.47743
     -1806.938       -1407.978
  22531309.840    22531309.7254   22531311.7514  118402837.805 7  92261963.32344
      2582.549        2012.366
  22613387.708    22613387.7364   22613391.1384  118834149.751 7  92598057.33045
      1251.927         975.541
  23435767.538    23435767.8064   23435772.2724  123155787.893 6  95965574.26342
      3424.863        2668.722
 06  5  9 15 57  0.0000000  0 11G 3G 6G 7G 8G10G13G15G16G21G27G29
  24034347.365    24034347.6094   24034351.5414  126301368.074 5  98416656.89241
      3258.943        2539.415
  23327339.909    23327339.2994   23327344.7154  122585987.969 6  95521563.10242
     -3032.801       -2363.228
  22119553.583    22119553.3424   22119556.6814  116239029.804 7  90575885.90544
       578.850         451.042
  23592068.230    23592067.8464   23592071.4034  123977168.010 6  96605602.85743
      3315.490        2583.488
  21049882.850    21049882.5274   21049885.7414  110617875.567 8  86195761.32046
     -1094.040        -852.497
  24161190.411    24161190.0474   24161193.4904  126967892.721 6  98936040.06341
     -3778.093       -2943.973
  24044268.095    24044267.6804   24044271.9744  126353513.525 5  98457280.19041
      3726.844        2904.000
  22684252.651    22684253.4404   22684254.8434  119206546.271 6  92888231.27643
     -1826.773       -1423.478
  22516611.268    22516610.7324   22516613.2084  118325595.998 7  92201774.92444
      2566.769        2000.080
  22606292.561    22606292.7094   22606295.6474  118796864.861 7  92569004.17645
      1233.520         961.183
  23416245.447    23416244.7864   23416249.3614  123053198.896 6  95885634.89342
      3414.184        2660.383
 06  5  9 15 57 30.0000000  0 11G 3G 6G 7G 8G10G13G15G16G21G27G29
  24015772.306    24015773.2314   24015776.1694  126203757.910 5  98340597.02541
      3248.331        2531.206
  23344685.229    23344685.6734   23344689.6164  122677139.289 6  95592590.06142
     -3043.913       -2371.852
  22116302.774    22116302.7184   22116306.3434  116221948.678 7  90562575.94844
       559.877         436.268
  23573172.038    23573172.0594   23573176.2974  123877869.151 6  96528227.18143
      3304.323        2574.768
  21056187.539    21056187.1584   21056190.5144  110651007.796 8  86221578.63846
     -1114.777        -868.651
  24182780.176    24182780.6944   24182782.3594  127081353.957 6  99024451.35241
     -3785.936       -2950.019
  24023012.524    24023013.4674   24023016.4104  126241811.040 5  98370239.30841
      3719.986        2898.673
  22694734.139    22694733.6804   22694735.8254  119261624.031 6  92931148.98243
     -1845.092       -1437.724
  22501998.623    22501998.2824   22502000.5834  118248805.868 7  92141938.44444
      2552.571        1989.040
  22599298.871    22599299.0734   22599302.1264  118760112.766 7  92540366.18545
      1216.582         947.989
  23396781.270    23396780.5554   23396783.7844  122950910.186 6  95805929.45242
      3405.016        2653.216
 06  5  9 15 58  0.0000000  0 11G 3G 6G 7G 8G10G13G15G16G21G27G29
  23997267.498    23997267.9584   23997271.7224  126106510.960 5  98264820.22341
      3235.260        2521.033
  23362102.702    23362102.8734   23362105.8554  122768667.553 6  95663910.67842
     -3057.302       -2382.306
  22113168.848    22113168.9054   22113172.3784  116205480.506 7  90549743.60144
       538.542         419.628
  23554348.152    23554347.4684   23554351.9174  123778946.673 6  96451144.80643
      3290.966        2564.393
  21062618.368    21062618.1024   21062621.2234  110684801.444 8  86247911.34546
     -1137.568        -886.409
  24204423.587    24204424.4354   24204428.2294  127195088.225 6  99113075.41641
     -3795.845       -2957.839
  24001801.837    24001801.7984   24001805.8614  126130355.743 5  98283391.09441
      3710.832        2891.528
  22705326.885    22705326.8524   22705328.9244  119317290.428 7  92974525.38043
     -1865.463       -1453.622
  22487475.314    22487475.2934   22487477.2294  118172485.536 7  92082468.04944
      2536.063        1976.162
  22592409.621    22592409.9774   22592412.9774  118723910.087 7  92512156.31745
      1197.395         933.045
  23377376.374    23377375.5854   23377380.4854  122848940.104 6  95726472.30142
      3393.525        2644.281
 06  5  9 15 58 30.0000000  0 12G 3G 6G 7G 8G10G13G15G16G21G26G27G29
  23978826.270    23978826.4434   23978829.3784  126009604.237 5  98189308.56141
      3224.587        2512.705
  23379586.789    23379585.9704   23379589.4824  122860544.674 6  95735503.18842
     -3068.283       -2390.902
  22110147.136    22110147.1504   22110150.6424  116189600.258 7  90537369.33244
       519.631         404.912
  23535590.178    23535590.8114   23535594.0454  123680377.446 6  96374337.66643
      3279.765        2555.649
  21069170.063    21069169.3724   21069172.7214  110719229.392 8  86274738.30646
     -1157.919        -902.274
  24226112.791    24226111.8404   24226116.2564  127309067.042 6  99201889.97641
     -3803.242       -2963.542
  23980636.310    23980635.6174   23980639.4144  126019124.028 5  98196716.98341
      3703.912        2886.119
  22716026.225    22716026.2064   22716028.5834  119373517.537 7  93018338.69043
     -1883.451       -1467.645
  22473037.100    22473036.9034   22473038.6514  118096610.847 7  92023344.93744
      2521.857        1965.087
  24220230.626    24220232.9184   24220233.9144  127278185.214 5  99177814.62141
      4171.060        3250.123
  22585620.393    22585620.7914   22585623.6354  118688232.167 7  92484355.34945
      1180.721         920.021
  23358028.414    23358028.0854   23358031.2024  122747265.065 6  95647245.04742
      3384.205        2636.987
 06  5  9 15 59  0.0000000  0 12G 3G 6G 7G 8G10G13G15G16G21G26G27G29
  23960449.912    23960449.6044   23960454.5814  125913036.439 5  98114060.91341
      3212.593        2503.290
  23397135.451    23397134.4464   23397139.1604  122952763.677 6  95807362.08442
     -3080.674       -2400.527
  22107236.550    22107236.4694   22107239.8064  116174304.210 7  90525450.28844
       499.333         389.070
  23516900.281    23516901.0094   23516904.0754  123582160.651 6  96297805.15643
      3266.963        2545.666
  21075840.924    21075840.5044   21075843.8604  110754286.228 8  86302055.31446
     -1179.980        -919.474
  24247847.838    24247848.8404   24247851.5714  127423283.599 5  99290889.84141
     -3811.942       -2970.328
  23959511.947    23959512.2414   23959514.8704  125908114.552 5  98110216.11741
      3695.838        2879.897
  22726831.557    22726831.8334   22726833.2504  119430299.226 6  93062584.13543
     -1902.656       -1482.604
  22458682.600    22458682.7604   22458684.9204  118021179.866 7  91964567.58644
      2506.097        1952.799
  24196437.229    24196438.7694   24196440.1964  127153144.673 5  99080380.45841
      4163.578        3244.344
  22578930.521    22578930.6794   22578933.9054  118653076.337 7  92456961.18645
      1162.283         905.662
  23338735.977    23338736.5274   23338739.0274  122645883.631 6  95568246.59142
      3373.303        2628.528
 06  5  9 15 59 30.0000000  0 12G 3G 6G 7G 8G10G13G15G16G21G26G27G29
  23942142.096    23942142.1254   23942146.8724  125816828.931 5  98039094.13241
      3200.459        2493.831
  23414751.496    23414752.3014   23414755.5434  123045340.904 6  95879500.10442
     -3092.250       -2409.558
  22104440.622    22104440.5734   22104443.9514  116159611.533 7  90514001.40444
       479.315         373.497
  23498281.465    23498281.5984   23498284.7244  123484317.450 6  96221563.75743
      3254.554        2536.000
  21082635.084    21082634.6694   21082637.7664  110789989.061 8  86329875.69846
     -1201.370        -936.133
  24269630.531    24269632.1564   24269631.9984  127537753.637 6  99380087.25341
     -3820.379       -2976.959
  23938433.685    23938432.7744   23938438.7564  125797348.194 5  98023904.73441
      3687.575        2873.422
  22737745.573    22737745.7214   22737747.8504  119487652.403 7  93107274.87643
     -1921.694       -1497.431
  22444417.134    22444416.7654   22444419.2714  117946213.853 7  91906152.54844
      2490.652        1940.764
  24172684.301    24172683.2364   24172687.2694  127028320.838 5  98983115.07841
      4156.489        3238.894
  22572343.436    22572343.6804   22572346.8794  118618461.783 7  92429988.81045
      1144.300         891.668
  23319503.689    23319502.9634   23319506.7994  122544816.627 6  95489493.16842
      3363.069        2620.586
 06  5  9 16  0  0.0000000  0 12G 3G 6G 7G 8G10G13G15G16G21G26G27G29
  23923900.353    23923900.8704   23923904.9944  125720967.299 5  97964396.73141
      3189.571        2485.385
  23432433.452    23432434.4044   23432437.1834  123138256.758 6  95951901.98042
     -3102.943       -2417.864
  22101756.335    22101756.1884   22101759.8394  116145506.139 7  90503010.16444
       460.408         358.778
  23479731.429    23479731.0754   23479734.6514  123386833.659 6  96145602.41443
      3243.342        2527.308
  21089548.405    21089548.0414   21089551.3964  110826319.816 8  86358185.36846
     -1221.525        -951.817
  24291458.118    24291460.4094   24291461.8264  127652457.671 6  99469467.00241
     -3827.416       -2982.453
  23917399.145    23917400.0564   23917402.3144  125686810.603 5  97937771.53641
      3680.714        2868.028
  22748764.746    22748765.0004   22748766.7564  119545558.039 7  93152396.11643
     -1939.413       -1511.237
  22430237.069    22430236.8044   22430238.8314  117871698.235 7  91848088.45544
      2476.304        1929.575
  24148969.241    24148970.9564   24148973.7274  126903699.898 5  98886007.79241
      4150.454        3234.121
  22565856.456    22565856.8774   22565859.9674  118584372.830 7  92403425.99545
      1127.481         878.569
  23300327.714    23300328.2914   23300331.1334  122444049.702 6  95410973.55942
      3353.738        2613.309
 06  5  9 16  0 30.0000000  0 12G 3G 6G 7G 8G10G13G15G16G21G26G27G29
  23905724.734    23905725.8044   23905729.3464  125625457.183 5  97889973.32041
      3177.642        2476.108
  23450179.230    23450179.0234   23450183.6634  123231511.612 6  96024568.08942
     -3114.164       -2426.645
  22099184.654    22099184.5434   22099187.9144  116131990.930 7  90492478.80844
       440.464         343.221
  23461249.701    23461249.6444   23461253.0094  123289715.029 6  96069925.60043
      3230.976        2517.644
  21096581.778    21096581.4334   21096584.5604  110863280.032 8  86386985.52646
     -1242.722        -968.353
  24313330.651    24313329.1274   24313332.9594  127767395.262 5  99559028.79441
     -3835.308       -2988.563
  23896409.139    23896407.5994   23896412.4974  125576507.157 5  97851820.84041
      3672.671        2861.776
  22759889.244    22759889.2224   22759890.5834  119604016.779 6  93197948.37743
     -1957.931       -1525.653
  22416144.125    22416144.1094   22416145.8794  117797637.346 7  91790378.65844
      2460.877        1917.588
  24125293.942    24125295.4584   24125301.5684  126779287.423 5  98789062.94741
      4143.458        3228.686
  22559470.764    22559470.5924   22559474.2414  118550813.557 7  92377275.93045
      1109.581         864.617
  23281210.246    23281210.7004   23281214.2544  122343588.081 6  95332691.83142
      3343.504        2605.333
 06  5  9 16  1  0.0000000  0 12G 3G 6G 7G 8G10G13G15G16G21G26G27G29
  23887621.084    23887619.8844   23887622.6634  125530312.184 6  97815834.37041
      3165.676        2466.743
  23467991.496    23467990.5994   23467996.2404  123325113.485 6  96097504.51942
     -3125.546       -2435.513
  22096727.359    22096727.1224   22096730.6534  116119077.572 7  90482416.46644
       420.608         327.728
  23442841.142    23442840.8514   23442844.8134  123192975.242 6  95994543.97843
      3218.502        2507.933
  21103736.729    21103736.3294   21103739.7364  110900879.374 8  86416283.70146
     -1263.783        -984.767
  24335248.461    24335248.3494   24335251.2864  127882574.849 5  99648779.06341
     -3843.097       -2994.560
  23875465.441    23875467.4794   23875469.0234  125466451.190 5  97766062.96441
      3664.687        2855.610
  22771120.311    22771120.1794   22771122.2794  119663037.655 6  93243938.64443
     -1976.409       -1540.024
  22402139.785    22402139.3604   22402141.4744  117724044.204 7  91733033.35544
      2445.504        1905.600
  24101661.924    24101662.2974   24101665.4144  126655097.324 5  98692291.40141
      4136.256        3222.989
  22553187.623    22553187.4344   22553190.4364  118517795.697 7  92351547.74045
      1091.751         850.703
  23262153.981    23262154.4124   23262157.2744  122243444.899 6  95254658.21042
      3333.065        2597.206
 06  5  9 16  1 30.0000000  0 12G 3G 6G 7G 8G10G13G15G16G21G26G27G29
  23869583.439    23869584.0414   23869588.2384  125435530.803 5  97741978.77442
      3153.061        2456.904
  23485867.486    23485868.8744   23485872.9584  123419055.822 6  96170706.30942
     -3137.079       -2444.464
  22094383.892    22094383.3664   22094387.1974  116106762.134 7  90472819.99744
       400.518         312.097
  23424503.759    23424503.6414   23424507.7134  123096612.919 6  95919456.48643
      3205.491        2497.783
  21111012.159    21111011.7454   21111014.9824  110939112.201 8  86446075.50446
     -1285.022       -1001.315
  24357210.990    24357210.6004   24357215.3154  127997989.320 5  99738712.36541
     -3851.142       -3000.847
  23854570.023    23854569.6424   23854574.4534  125356641.253 5  97680496.77841
      3656.100        2848.901
  22782457.317    22782457.2784   22782459.4814  119722614.148 6  93290361.85343
     -1995.217       -1554.719
  22388224.295    22388224.1944   22388226.2604  117650917.198 7  91676051.30644
      2429.763        1893.317
  24078071.906    24078071.8404   24078076.4154  126531128.297 5  98595691.97441
      4128.583        3217.085
  22547007.206    22547006.8154   22547010.0154  118485316.158 7  92326239.02645
      1073.539         836.530
  23243157.902    23243157.9854   23243161.3584  122143618.774 6  95176871.67742
      3322.196        2588.741
 06  5  9 16  2  0.0000000  0 12G 3G 6G 7G 8G10G13G15G16G21G26G27G29
  23851616.057    23851616.8504   23851620.1314  125341112.060 6  97668405.76742
      3141.186        2447.690
  23503807.551    23503808.7044   23503812.4824  123513332.744 6  96244168.83042
     -3148.229       -2453.142
  22092153.366    22092153.3844   22092156.8784  116095041.772 7  90463687.21444
       380.729         296.668
  23406238.319    23406237.9804   23406241.3554  123000627.238 6  95844662.49043
      3193.074        2488.094
  21118407.105    21118406.9044   21118410.2724  110977973.568 8  86476357.07546
     -1305.879       -1017.571
  24379216.865    24379217.6034   24379221.5034  128113632.670 5  99828824.05641
     -3858.600       -3006.710
  23833721.031    23833719.6834   23833724.4584  125247076.291 6  97595121.49341
      3647.957        2842.532
  22793899.076    22793899.2084   22793901.1364  119782741.144 6  93337214.02043
     -2013.321       -1568.818
  22374397.373    22374397.1424   22374398.8214  117578255.603 7  91619431.87544
      2414.320        1881.302
  24054522.939    24054522.5464   24054529.7054  126407379.977 5  98499264.60441
      4121.203        3211.357
  22540928.493    22540928.0754   22540931.1444  118453372.367 7  92301347.78745
      1055.876         822.763
  23224221.183    23224221.2504   23224224.5144  122044108.525 6  95099331.28542
      3311.588        2580.479
 06  5  9 16  2 30.0000000  0 12G 3G 6G 7G 8G10G13G15G16G21G26G27G29
  23833718.954    23833719.6284   23833721.7984  125247062.882 6  97595120.72342
      3128.349        2437.731
  23521812.909    23521813.1864   23521816.5934  123607945.702 6  96317893.10242
     -3159.693       -2462.122
  22090037.625    22090037.1424   22090040.4364  116083920.942 7  90455021.60844
       360.329         280.781
  23388045.710    23388045.5524   23388049.1754  122905025.137 6  95770167.38543
      3180.000        2477.885
  21125922.670    21125922.1684   21125925.3364  111017466.254 8  86507130.57846
     -1327.296       -1034.261
  24401267.585    24401267.5884   24401271.4314  128229505.962 5  99919114.92041
     -3866.669       -3012.960
  23812918.388    23812918.6744   23812922.4074  125137762.943 5  97509942.25741
      3639.151        2835.774
  22805446.231    22805446.4864   22805448.1154  119843420.414 6  93384496.52343
     -2032.281       -1583.633
  22360659.204    22360659.7124   22360661.5064  117506064.903 7  91563179.33144
      2398.087        1868.650
  24031017.074    24031017.7614   24031022.9044  126283859.529 5  98403014.83341
      4113.236        3205.127
  22534952.276    22534952.4434   22534955.3264  118421969.271 7  92276877.86345
      1037.402         808.362
  23205346.891    23205347.0054   23205350.2414  121944920.461 6  95022041.89942
      3300.589        2571.903
 06  5  9 16  3  0.0000000  0 12G 3G 6G 7G 8G10G13G15G16G21G26G27G29
  23815892.198    23815892.8194   23815896.2734  125153385.044 5  97522125.04042
      3116.297        2428.323
  23539879.739    23539879.8654   23539884.0184  123702891.009 6  96391876.41742
     -3170.221       -2470.285
  22088034.866    22088034.8204   22088038.4824  116073398.931 7  90446822.59944
       340.698         265.488
  23369926.314    23369926.5364   23369929.8124  122809808.280 6  95695972.46043
      3167.391        2468.114
  21133557.533    21133556.8134   21133560.5154  111057587.749 8  86538394.06746
     -1347.933       -1050.337
  24423359.934    24423360.7324   24423360.9674  128345605.640 5 100009582.12141
     -3873.935       -3018.649
  23792164.725    23792164.4464   23792168.6964  125028702.950 5  97424960.45041
      3631.011        2829.338
  22817097.827    22817097.7974   22817099.9414  119904648.908 6  93432206.98143
     -2050.171       -1597.523
  22347011.559    22347012.1234   22347013.8964  117434346.628 7  91507294.99644
      2382.688        1856.662
  24007556.617    24007557.6444   24007559.0054  126160568.580 5  98306943.90141
      4106.135        3199.587
  22529079.485    22529079.6084   22529082.5584  118391106.863 7  92252829.26845
      1019.533         794.439
  23186533.586    23186533.8484   23186536.5464  121846056.240 6  94945004.93042
      3290.180        2563.784
 06  5  9 16  3 30.0000000  0 12G 3G 6G 7G 8G10G13G15G16G21G26G27G29
  23798133.538    23798132.6254   23798136.8844  125060058.942 6  97449403.46742
      3104.839        2419.330
  23558005.673    23558005.8054   23558009.8924  123798144.011 5  96466099.49742
     -3180.454       -2478.248
  22086142.817    22086142.3594   22086146.2114  116063454.186 7  90439073.44444
       321.565         250.585
  23351876.868    23351876.8824   23351880.3284  122714957.743 6  95622062.97843
      3155.257        2458.651
  21141307.698    21141307.0394   21141310.2804  111098314.649 8  86570129.30046
     -1368.039       -1065.992
  24445491.908    24445491.8644   24445490.4464  128461906.845 5 100100206.35341
     -3880.241       -3023.603
  23771456.557    23771456.4584   23771460.2084  124919876.743 6  97340160.82241
      3623.395        2823.401
  22828849.030    22828848.6724   22828851.0684  119966402.611 6  93480326.71743
     -2067.412       -1610.957
  22333450.020    22333450.5944   22333452.5644  117363080.433 7  91451762.95444
      2367.688        1844.958
  23984134.437    23984133.3874   23984139.3084  126037488.378 5  98211037.21841
      4098.784        3193.753
  22523305.534    22523305.4794   22523308.4304  118360764.316 7  92229185.75445
      1002.406         781.095
  23167778.466    23167777.8284   23167781.9364  121747496.214 6  94868204.93042
      3279.844        2555.768
 06  5  9 16  4  0.0000000  0 12G 3G 6G 7G 8G10G13G15G16G21G26G27G29
  23780442.830    23780442.3094   23780447.2394  124967095.437 6  97376964.38442
      3092.140        2409.467
  23576192.198    23576192.4274   23576194.9684  123893709.994 6  96540566.33842
     -3191.474       -2486.853
  22084361.525    22084361.3644   22084365.2114  116054094.995 7  90431780.53444
       301.647         235.089
  23333899.114    23333899.4904   23333902.1784  122620483.924 6  95548447.04143
      3142.375        2448.590
  21149173.950    21149173.6344   21149176.9334  111139653.615 8  86602341.47246
     -1388.654       -1082.046
  24467662.568    24467662.1494   24467665.5914  128578414.781 5 100190991.76341
     -3887.427       -3029.116
  23750793.452    23750792.9974   23750798.8544  124811295.093 5  97255551.86941
      3614.798        2816.728
  22840701.252    22840701.3584   22840703.9084  120028687.603 6  93528860.45643
     -2085.547       -1625.068
  22319977.232    22319977.3724   22319978.8354  117292277.019 7  91396591.48944
      2351.846        1832.637
  23960755.824    23960756.8004   23960760.1504  125914629.839 5  98115303.26741
      4091.004        3187.897
  22517632.015    22517632.1394   22517634.9584  118330950.751 7  92205954.43445
       984.495         767.134
  23149082.141    23149082.8534   23149086.2574  121649250.669 6  94791649.98543
      3269.103        2547.341
 06  5  9 16  4 30.0000000  0 12G 3G 6G 7G 8G10G13G15G16G21G26G27G29
  23762822.473    23762822.8404   23762825.6074  124874499.464 6  97304811.69642
      3079.200        2399.367
  23594437.310    23594437.2654   23594440.5714  123989588.946 5  96615277.05342
     -3202.050       -2495.110
  22082692.752    22082692.5024   22082695.8784  116045324.161 7  90424946.07844
       281.566         219.401
  23315994.762    23315994.2054   23315997.9734  122526392.313 6  95475128.91943
      3128.980        2438.187
  21157157.361    21157156.8564   21157160.0834  111181605.372 8  86635031.15146
     -1409.572       -1098.369
  24489873.370    24489872.0604   24489875.7344  128695128.699 5 100281937.61541
     -3894.914       -3034.992
  23730177.881    23730180.3274   23730182.4314  124702962.246 5  97171136.60041
      3605.943        2809.789
  22852654.829    22852654.7334   22852657.0324  120091503.316 6  93577807.69243
     -2103.669       -1639.238
  22306592.425    22306592.4434   22306594.1364  117221940.815 7  91341784.15544
      2335.784        1820.090
  23937419.748    23937420.3074   23937423.3954  125791998.228 5  98019746.29641
      4083.179        3181.691
  22512059.741    22512059.7174   22512063.0384  118301669.165 7  92183137.64745
       966.067         752.777
  23130448.107    23130448.5334   23130451.6204  121551324.407 6  94715343.84143
      3258.017        2538.714
 06  5  9 16  5  0.0000000  0 12G 3G 6G 7G 8G10G13G15G16G21G26G27G29
  23745272.995    23745272.5654   23745275.5734  124782271.307 6  97232945.63642
      3067.283        2390.060
  23612740.056    23612740.5114   23612744.9764  124085775.832 6  96690227.81042
     -3212.351       -2503.131
  22081135.193    22081135.0684   22081138.7234  116037139.494 7  90418568.41044
       262.125         204.249
  23298161.608    23298162.0234   23298165.7084  122432682.883 7  95402108.56343
      3116.402        2428.351
  21165256.178    21165255.7974   21165259.1194  111224165.708 8  86668195.04646
     -1429.650       -1114.028
  24512120.638    24512120.1734   24512124.2214  128812043.816 5 100373040.12541
     -3901.228       -3039.854
  23709611.572    23709611.4544   23709615.4824  124594878.875 5  97086915.71641
      3597.622        2803.323
  22864708.313    22864708.7984   22864710.8904  120154845.687 6  93627165.38443
     -2121.069       -1652.786
  22293297.010    22293296.4854   22293298.3944  117152071.450 7  91287340.61744
      2320.212        1807.966
  23914126.957    23914126.4844   23914130.6114  125669593.939 5  97924366.45441
      4075.333        3175.561
  22506588.812    22506588.7774   22506591.8874  118272918.055 7  92160734.20845
       948.741         739.263
  23111873.763    23111873.7864   23111876.2974  121453717.369 6  94639286.44543
      3247.252        2530.295
 06  5  9 16  5 30.0000000  0 12G 3G 6G 7G 8G10G13G15G16G21G26G27G29
  23727794.981    23727795.1094   23727798.6774  124690427.315 6  97161378.90142
      3054.963        2380.507
  23631104.915    23631104.9364   23631109.9684  124182281.784 5  96765427.17142
     -3222.239       -2510.886
  22079691.918    22079691.6214   22079695.4924  116029555.016 7  90412658.40744
       242.656         189.063
  23280405.563    23280405.5744   23280409.1384  122339372.437 6  95329399.13043
      3103.576        2418.379
  21173473.292    21173472.8274   21173476.4254  111267347.181 8  86701842.94246
     -1449.900       -1129.800
  24534409.090    24534411.1154   24534411.7394  128929171.200 5 100464308.21941
     -3907.790       -3045.086
  23689093.286    23689094.3234   23689097.9424  124487061.457 6  97002902.17241
      3589.427        2796.914
  22876864.415    22876864.7924   22876866.4874  120218726.099 6  93676942.30943
     -2138.410       -1666.315
  22280093.048    22280092.5494   22280094.2514  117082684.646 7  91233273.04344
      2304.684        1795.863
  23890879.555    23890879.9864   23890884.5254  125547434.011 5  97829177.11241
      4067.843        3169.723
  22501221.174    22501221.2094   22501224.5894  118244712.015 7  92138755.50345
       930.951         725.404
  23093363.630    23093363.7934   23093367.9184  121356445.705 6  94563490.33443
      3236.625        2522.050
 06  5  9 16  6  0.0000000  0 12G 3G 6G 7G 8G10G13G15G16G21G26G27G29
  23710386.368    23710385.8194   23710389.5124  124598941.485 6  97090091.29642
      3042.858        2371.060
  23649524.446    23649524.6724   23649526.5334  124279075.560 6  96840850.94242
     -3232.008       -2518.476
  22078357.631    22078357.3414   22078360.9454  116022542.201 7  90407193.85444
       223.590         174.235
  23262720.054    23262719.8154   23262723.4934  122246434.580 7  95256980.03043
      3091.073        2408.663
  21181802.983    21181802.6134   21181805.9624  111311119.335 8  86735951.12946
     -1469.476       -1145.041
  24556731.544    24556732.1514   24556734.0814  129046479.071 5 100555716.90841
     -3913.864       -3049.800
  23668622.883    23668622.2424   23668628.5064  124379483.304 6  96919075.07241
      3581.196        2790.533
  22889116.489    22889116.7404   22889119.3434  120283113.494 6  93727114.31543
     -2155.287       -1679.449
  22266975.503    22266975.6894   22266977.1814  117013753.726 7  91179560.65544
      2289.432        1783.979
  23867675.289    23867676.7834   23867679.7624  125425491.796 5  97734157.20641
      4060.264        3163.795
  22495952.388    22495952.3134   22495955.5014  118217023.276 7  92117179.88845
       913.751         712.007
  23074911.957    23074912.1134   23074916.0294  121259482.992 6  94487934.96443
      3226.331        2514.057
 06  5  9 16  6 30.0000000  0 12G 3G 6G 7G 8G10G13G15G16G21G26G27G29
  23693046.646    23693047.1244   23693051.4954  124507825.792 6  97019092.04242
      3030.645        2361.502
  23667999.816    23667999.5324   23668004.4154  124376163.628 5  96916503.99542
     -3241.393       -2525.824
  22077133.760    22077133.5994   22077137.2784  116016110.543 7  90402182.08344
       204.440         159.291
  23245107.859    23245107.6014   23245111.3504  122153881.630 6  95184860.85343
      3078.218        2398.597
  21190246.369    21190245.7584   21190249.2524  111355489.761 8  86770525.49246
     -1489.322       -1160.506
  24579090.487    24579090.6944   24579092.3114  129163974.012 5 100647271.45341
     -3919.927       -3054.480
  23648199.777    23648198.4824   23648203.0404  124272156.556 5  96835443.88341
      3573.133        2784.220
  22901467.694    22901466.9414   22901469.5904  120348015.151 6  93777686.94043
     -2172.229       -1692.645
  22253947.811    22253947.4994   22253949.2084  116945290.038 7  91126212.35244
      2274.022        1771.944
  23844513.706    23844514.9024   23844518.6574  125303780.231 5  97639317.07641
      4052.958        3158.105
  22490783.645    22490783.6064   22490786.7364  118189861.773 7  92096015.10945
       896.164         698.306
  23056521.747    23056522.2634   23056525.7444  121162841.021 6  94412629.54143
      3215.888        2505.851
 06  5  9 16  7  0.0000000  0 12G 3G 6G 7G 8G10G13G15G16G21G26G27G29
  23675780.628    23675780.7814   23675784.5914  124417091.430 6  96948389.94242
      3018.203        2351.817
  23686532.317    23686532.1584   23686537.1444  124473551.887 5  96992390.80642
     -3251.238       -2533.452
  22076022.065    22076021.9304   22076025.9464  116010269.139 7  90397630.30644
       184.984         144.134
  23227571.053    23227571.0514   23227574.6004  122061725.169 6  95113050.62343
      3065.272        2388.517
  21198804.993    21198804.6694   21198807.8074  111400465.614 8  86805571.60946
     -1509.251       -1176.048
  24601485.657    24601488.2634   24601489.1844  129281661.701 5 100738976.06241
     -3926.133       -3059.340
  23627825.014    23627825.1184   23627828.9044  124165092.403 6  96752017.35841
      3564.453        2777.496
  22913916.902    22913917.0704   22913919.2194  120413437.252 6  93828665.08143
     -2189.240       -1705.926
  22241010.499    22241009.9734   22241011.8144  116877304.367 7  91073236.49744
      2258.291        1759.704
  23821400.095    23821399.3614   23821403.5544  125182310.931 5  97544665.83441
      4044.933        3151.778
  22485716.892    22485716.8844   22485720.1844  118163236.947 7  92075268.51145
       878.601         684.620
  23038194.706    23038194.6604   23038197.7054  121066530.658 6  94337582.52543
      3204.727        2497.198
 06  5  9 16  7 30.0000000  0 11G 3G 6G 7G 8G10G15G16G21G26G27G29
  23658585.896    23658586.7224   23658590.4224  124326732.507 6  96877980.40142
      3005.762        2342.160
  23705119.746    23705120.7394   23705123.9614  124571229.519 5  97068503.22942
     -3260.710       -2540.783
  22075021.505    22075021.0694   22075024.8514  116005009.628 7  90393531.99844
       165.553         129.021
  23210108.595    23210108.6514   23210112.4194  121969959.267 6  95041544.73143
      3052.383        2378.505
  21207477.077    21207476.4094   21207480.0374  111446037.047 8  86841081.81846
     -1529.003       -1191.416
  23607500.668    23607501.0144   23607506.3314  124058284.615 6  96668790.56741
      3555.987        2770.885
  22926463.648    22926462.7904   22926465.4064  120479369.361 6  93880040.68443
     -2206.199       -1719.076
  22228162.999    22228162.7294   22228164.3544  116809790.540 7  91020628.34644
      2242.525        1747.448
  23798330.234    23798329.9774   23798334.4664  125061078.056 5  97450198.63741
      4037.199        3145.839
  22480750.978    22480751.2464   22480754.1684  118137141.130 7  92054934.12445
       861.061         670.975
  23019929.549    23019929.2144   23019932.9004  120970546.036 6  94262789.32943
      3194.020        2488.861
 06  5  9 16  8  0.0000000  0 11G 3G 6G 7G 8G10G15G16G21G26G27G29
  23641462.877    23641463.4424   23641467.8914  124236754.905 6  96807868.04142
      2992.910        2332.142
  23723761.825    23723762.6624   23723766.6924  124669196.980 5  97144841.53642
     -3270.360       -2548.359
  22074131.462    22074131.8014   22074135.3004  116000335.346 7  90389889.70144
       146.071         113.825
  23192721.246    23192721.1144   23192724.9344  121878589.725 6  94970347.68643
      3039.017        2368.063
  21216262.431    21216262.0294   21216265.4204  111492205.372 8  86877057.12446
     -1548.844       -1206.886
  23587225.802    23587225.4574   23587230.0934  123951739.079 6  96585768.09642
      3547.159        2763.942
  22939106.862    22939107.2694   22939109.3304  120545812.301 6  93931814.37443
     -2223.271       -1732.427
  22215406.085    22215406.4024   22215407.7194  116742753.505 7  90968391.64644
      2226.594        1735.021
  23775306.277    23775307.0174   23775310.7674  124940087.993 5  97355920.70841
      4029.007        3139.452
  22475886.896    22475886.6894   22475889.7614  118111578.066 7  92035014.86645
       843.251         657.083
  23001726.419    23001726.5524   23001730.2804  120874892.606 6  94188254.19543
      3182.935        2480.200
 06  5  9 16  8 30.0000000  0 11G 3G 6G 7G 8G10G15G16G21G26G27G29
  23624417.469    23624417.4224   23624421.7344  124147175.123 6  96738065.63042
      2979.400        2321.585
  23742462.229    23742462.6744   23742466.8844  124767465.860 5  97221414.78341
     -3280.734       -2556.451
  22073356.223    22073356.0114   22073359.7784  115996260.230 7  90386714.21244
       125.882          98.092
  23175412.961    23175413.2014   23175416.5444  121787633.246 6  94899472.50643
      3025.100        2357.220
  21225164.161    21225163.5904   21225166.9224  111538983.053 8  86913507.25246
     -1569.426       -1222.932
  23567002.981    23567002.6494   23567007.9674  123845472.294 6  96502962.83742
      3537.561        2756.548
  22951850.306    22951849.8274   22951853.0014  120612777.800 6  93983995.23143
     -2240.794       -1746.053
  22202743.318    22202743.1124   22202745.0024  116676209.485 7  90916539.17744
      2209.870        1721.973
  23752332.065    23752332.9154   23752336.2044  124819357.749 5  97261845.30841
      4019.940        3132.434
  22471126.273    22471126.3914   22471129.5844  118086563.109 7  92015522.70645
       824.764         642.667
  22983591.198    22983590.7314   22983594.1314  120779586.620 6  94113989.82543
      3171.030        2470.956
 06  5  9 16  9  0.0000000  0 11G 3G 6G 7G 8G10G15G16G21G26G27G29
  23607442.738    23607443.2904   23607446.1604  124057976.050 6  96668559.86742
      2966.527        2311.524
  23761214.304    23761216.0264   23761220.8044  124866013.222 5  97298204.95541
     -3290.059       -2563.754
  22072691.193    22072691.0704   22072694.7024  115992764.802 7  90383990.52044
       106.282          82.802
  23158179.992    23158179.6184   23158183.3704  121697072.839 7  94828905.94243
      3011.599        2346.691
  21234177.405    21234176.8734   21234180.1154  111586348.479 8  86950415.36046
     -1589.117       -1238.279
  23546831.153    23546831.2074   23546835.4224  123739466.991 6  96420361.26542
      3528.595        2749.583
  22964688.556    22964688.6144   22964691.4754  120680243.408 6  94036565.70943
     -2257.722       -1759.243
  22190170.645    22190170.6384   22190172.2584  116610140.561 7  90865056.89044
      2193.760        1709.424
  23729404.631    23729404.0004   23729407.3454  124698870.124 5  97167958.86941
      4011.619        3125.956
  22466466.914    22466466.9604   22466469.8824  118062076.940 7  91996442.58345
       806.884         628.740
  22965517.539    22965517.5764   22965521.2814  120684610.828 6  94039982.75843
      3159.757        2462.136
 06  5  9 16  9 30.0000000  0 11G 3G 6G 7G 8G10G15G16G21G26G27G29
  23590545.365    23590545.5284   23590549.0204  123969176.781 6  96599365.65042
      2952.794        2300.874
  23780023.986    23780023.5194   23780027.3374  124964853.365 5  97375223.26041
     -3299.952       -2571.412
  22072139.459    22072139.2904   22072143.3344  115989866.130 7  90381731.80444
        86.252          67.207
  23141026.369    23141026.3094   23141029.7934  121606927.591 6  94758662.86243
      2997.471        2335.671
  21243305.598    21243304.8924   21243308.3074  111634316.617 8  86987793.12346
     -1609.350       -1254.052
  23526713.259    23526713.0744   23526716.7564  123633742.772 6  96337978.79042
      3518.887        2742.018
  22977625.099    22977625.4544   22977627.1184  120748224.093 6  94089537.60243
     -2275.043       -1772.776
  22177692.428    22177692.0514   22177694.1714  116544565.696 7  90813959.57944
      2177.174        1696.491
  23706526.200    23706527.0374   23706528.8714  124578645.111 5  97074277.09141
      4002.599        3118.906
  22461911.542    22461911.3874   22461914.3074  118038137.012 7  91977788.09345
       788.439         614.372
  22947510.368    22947510.5714   22947514.5874  120589984.076 6  93966247.64643
      3148.029        2452.978
 06  5  9 16 10  0.0000000  0 11G 3G 6G 7G 8G10G15G16G21G26G27G29
  23573721.766    23573721.3104   23573726.0314  123880767.559 6  96530475.39742
      2940.229        2291.108
  23798885.593    23798884.2164   23798888.6184  125063970.737 5  97452457.52441
     -3308.686       -2578.158
  22071699.389    22071699.2044   22071702.5004  115987551.349 7  90379928.08544
        67.230          52.388
  23123948.945    23123948.6134   23123952.3344  121517187.875 6  94688735.79543
      2984.213        2325.348
  21252545.595    21252545.0314   21252548.4344  111682873.210 8  87025629.41046
     -1628.696       -1269.111
  23506645.987    23506644.2884   23506650.5534  123528289.227 6  96255807.21342
      3510.489        2735.490
  22990656.581    22990656.2714   22990658.7484  120816704.471 6  94142898.87143
     -2291.146       -1785.311
  22165305.307    22165305.4824   22165307.4164  116479473.916 7  90763238.80644
      2161.452        1684.222
  23683696.160    23683695.9494   23683699.0424  124458672.857 5  96980792.19741
      3994.445        3112.564
  22457457.258    22457457.4674   22457460.5224  118014731.205 7  91959549.79345
       770.959         600.752
  22929568.218    22929568.5504   22929572.3804  120495696.213 6  93892776.61743
      3136.905        2444.323
 06  5  9 16 10 30.0000000  0 11G 3G 6G 7G 8G10G15G16G21G26G27G29
  23556972.789    23556973.4464   23556975.1254  123792752.312 6  96461892.07242
      2927.330        2281.062
  23817799.836    23817799.3584   23817802.7234  125163364.429 5  97529907.03941
     -3317.713       -2585.202
  22071370.317    22071370.0234   22071373.5144  115985821.998 7  90378580.50644
        47.842          37.249
  23106950.345    23106949.8904   23106953.6074  121427857.559 7  94619127.73943
      2970.822        2314.917
  21261897.535    21261896.9454   21261900.3174  111732018.097 8  87063924.10846
     -1648.015       -1284.175
  23486631.109    23486629.9014   23486635.4684  123423110.381 6  96173849.62842
      3501.285        2728.327
  23003783.324    23003783.2414   23003785.8484  120885684.084 6  94196649.19043
     -2307.662       -1798.163
  22153011.640    22153011.4084   22153013.2174  116414868.775 7  90712897.14444
      2145.303        1671.647
  23660914.013    23660914.9784   23660918.6524  124338957.879 5  96887507.82341
      3986.224        3106.071
  22453105.724    22453105.4504   22453108.6494  117991861.986 7  91941729.62045
       753.360         587.036
  22911691.032    22911690.9644   22911694.9024  120401750.964 6  93819572.56043
      3125.726        2435.612
 06  5  9 16 11  0.0000000  0 11G 3G 6G 7G 8G10G15G16G21G26G27G29
  23540300.642    23540301.2654   23540303.6464  123705139.764 6  96393622.55142
      2913.197        2270.023
  23836766.255    23836767.9154   23836771.1314  125263037.711 5  97607574.48241
     -3327.766       -2592.973
  22071153.407    22071153.2874   22071157.1504  115984684.196 7  90377693.92044
        27.634          21.538
  23090030.668    23090030.9114   23090034.5894  121338945.568 6  94549845.67044
      2956.183        2303.518
  21271362.108    21271361.5064   21271365.0804  111781755.444 8  87102680.44946
     -1668.293       -1299.966
  23466669.963    23466670.1014   23466674.2044  123318215.048 6  96092113.04842
      3491.263        2720.425
  23017004.859    23017004.4644   23017007.1234  120955166.243 6  94250791.12343
     -2324.816       -1811.564
  22140811.834    22140811.4564   22140813.6224  116350758.388 7  90662940.98144
      2128.233        1658.371
  23638184.005    23638184.5714   23638189.2924  124219509.447 5  96794431.28041
      3976.548        3098.567
  22448857.263    22448856.8814   22448859.8934  117969535.783 7  91924332.57345
       734.665         572.479
  22893880.683    22893881.0554   22893883.4844  120308156.617 6  93746641.94443
      3113.395        2426.057
 06  5  9 16 11 30.0000000  0 11G 3G 6G 7G 8G10G15G16G21G26G27G29
  23523704.533    23523704.2464   23523707.8954  123617925.667 6  96325663.49742
      2899.954        2259.652
  23855786.095    23855784.7434   23855790.5684  125362981.700 5  97685452.98441
     -3336.568       -2599.883
  22071048.293    22071048.4324   22071051.6324  115984131.343 7  90377263.11944
         8.142           6.343
  23073190.085    23073189.9574   23073194.0284  121250448.027 6  94480886.55043
      2942.435        2292.814
  21280938.303    21280937.6674   21280940.9714  111832076.963 8  87141891.99746
     -1687.706       -1315.088
  23446762.202    23446760.8154   23446766.6124  123213599.010 6  96010594.15742
      3481.871        2713.130
  23030321.399    23030321.1984   23030324.1064  121025142.239 6  94305317.79743
     -2341.261       -1824.372
  22128705.515    22128705.3524   22128706.9584  116287138.433 7  90613366.98544
      2111.844        1645.583
  23615504.289    23615503.3714   23615507.1784  124100323.753 5  96701559.51441
      3967.663        3091.716
  22444710.524    22444710.7094   22444713.9584  117947746.751 7  91907354.10045
       716.806         558.552
  22876135.976    22876135.7354   22876139.8634  120214909.021 6  93673981.53943
      3101.723        2416.931
 06  5  9 16 12  0.0000000  0 11G 3G 6G 7G 8G10G15G16G21G26G27G29
  23507185.016    23507185.0864   23507188.3034  123531115.042 6  96258018.87842
      2886.708        2249.439
  23874856.153    23874854.7324   23874860.5564  125463195.305 5  97763541.45741
     -3345.135       -2606.611
  22071054.886    22071054.8434   22071058.0904  115984165.745 7  90377289.89344
       -11.184          -8.697
  23056430.044    23056429.4894   23056432.8044  121162369.782 7  94412254.15744
      2928.604        2282.032
  21290625.272    21290624.5324   21290628.0154  111882983.126 8  87181559.12146
     -1706.874       -1330.027
  23426907.234    23426908.7194   23426911.7314  123109266.892 6  95929296.46242
      3472.737        2706.040
  23043730.770    23043731.1564   23043733.8004  121095611.693 6  94360229.01643
     -2357.385       -1836.899
  22116692.920    22116692.4974   22116694.4054  116224012.768 7  90564178.23444
      2095.688        1632.997
  23592874.261    23592874.5874   23592879.4224  123981405.531 5  96608895.96441
      3959.026        3085.006
  22440666.889    22440667.1574   22440670.0394  117926497.823 7  91890796.49845
       699.011         544.689
  22858458.696    22858458.3674   22858461.7144  120122012.800 6  93601594.91743
      3090.354        2408.089
 06  5  9 16 12 30.0000000  0 11G 3G 6G 7G 8G10G15G16G21G26G27G29
  23490741.499    23490742.0464   23490746.3724  123444704.917 6  96190686.35042
      2873.092        2238.740
  23893975.311    23893975.1674   23893980.3614  125563670.839 5  97841833.99841
     -3353.963       -2613.448
  22071172.516    22071171.9184   22071175.6444  115984781.820 7  90377769.88944
       -30.652         -23.885
  23039747.948    23039747.7884   23039751.1384  121074707.964 6  94343946.25443
      2914.546        2271.087
  21300422.282    21300421.6464   21300425.1874  111934466.658 8  87221676.14446
     -1726.130       -1345.048
  23407107.595    23407107.8254   23407111.8774  123005216.183 6  95848218.01042
      3463.140        2698.504
  23057233.400    23057233.2764   23057236.1494  121166566.965 6  94415518.86943
     -2373.699       -1849.636
  22104774.088    22104773.6754   22104775.2654  116161378.108 7  90515372.08444
      2079.207        1620.158
  23570295.499    23570295.7104   23570299.6254  123862752.713 6  96516439.26841
      3950.068        3077.950
  22436725.514    22436725.4734   22436728.6494  117905784.130 7  91874655.94145
       681.060         530.677
  22840846.783    22840847.7244   22840850.9874  120029464.572 6  93529479.46143
      3078.633        2398.927
 06  5  9 16 13  0.0000000  0 11G 3G 6G 7G 8G10G15G16G21G26G27G29
  23474377.628    23474377.8294   23474380.9534  123358712.103 6  96123679.01142
      2859.104        2227.914
  23913147.467    23913145.4874   23913152.5434  125664419.701 5  97920339.58441
     -3363.302       -2620.746
  22071402.622    22071402.5264   22071406.6014  115985993.743 7  90378714.28144
       -50.594         -39.432
  23023148.696    23023148.5754   23023152.4904  120987479.407 7  94275975.97044
      2899.992        2259.741
  21310331.351    21310331.0784   21310334.3224  111986539.890 7  87262252.67946
     -1745.829       -1360.400
  23387364.548    23387364.3754   23387368.7564  122901463.755 6  95767372.20842
      3453.121        2690.734
  23070830.516    23070830.9054   23070832.7784  121238019.516 6  94471196.12943
     -2390.346       -1862.598
  22092951.553    22092951.0864   22092952.8744  116099250.425 7  90466960.89344
      2062.174        1606.885
  23547770.641    23547770.4334   23547774.1504  123744382.274 6  96424202.58541
      3940.531        3070.524
  22432888.520    22432888.2884   22432891.5924  117885620.039 7  91858943.67345
       662.704         516.384
  22823305.182    22823305.3394   22823308.6274  119937280.714 6  93457647.89243
      3066.306        2389.354
 06  5  9 16 13 30.0000000  0 11G 3G 6G 7G 8G10G15G16G21G26G27G29
  23458091.735    23458092.3994   23458096.5084  123273127.841 6  96056990.01442
      2846.055        2217.705
  23932368.916    23932368.2824   23932372.5104  125765427.985 5  97999047.37841
     -3371.307       -2626.931
  22071744.862    22071744.5744   22071748.3094  115987790.457 7  90380114.38044
       -69.498         -54.138
  23006630.124    23006630.1534   23006634.2894  120900675.369 7  94208336.48844
      2886.547        2249.255
  21320350.240    21320349.6264   21320353.1834  112039189.485 8  87303278.31546
     -1764.424       -1374.875
  23367676.318    23367675.9594   23367680.2944  122798000.051 6  95686751.08342
      3443.954        2683.623
  23084519.038    23084519.5754   23084522.1244  121309955.549 6  94527250.08843
     -2405.847       -1874.678
  22081223.612    22081223.2224   22081225.2344  116037620.502 7  90418937.62544
      2046.064        1594.354
  23525297.551    23525297.4144   23525301.9834  123626285.971 6  96332179.54441
      3931.958        3063.892
  22429153.864    22429153.7144   22429156.7834  117865995.237 7  91843651.62245
       645.337         502.881
  22805830.809    22805830.8664   22805834.8564  119845452.704 6  93386093.65543
      3055.102        2380.635
 06  5  9 16 14  0.0000000  0 11G 3G 6G 7G 8G10G15G16G21G26G27G29
  23441881.676    23441881.3504   23441884.7854  123187943.694 6  95990612.78342
      2832.271        2207.037
  23951636.528    23951635.3694   23951641.2764  125866682.037 5  98077946.57941
     -3379.597       -2633.462
  22072195.392    22072195.5634   22072199.4534  115990160.845 7  90381961.52644
       -89.177         -69.491
  22990191.560    22990191.4784   22990195.0804  120814287.693 7  94141021.44444
      2871.996        2237.938
  21330476.566    21330476.1154   21330479.3004  112092403.029 8  87344743.41046
     -1783.837       -1389.980
  23348040.696    23348040.8584   23348044.8764  122694817.597 6  95606349.24742
      3434.258        2676.072
  23098298.484    23098298.0804   23098299.6824  121382362.154 6  94583670.75643
     -2421.903       -1887.168
  22069588.789    22069588.5624   22069590.5964  115976479.260 7  90371295.14744
      2029.299        1581.284
  23502874.847    23502875.1534   23502879.8174  123508456.114 6  96240364.11941
      3922.689        3056.629
  22425520.211    22425520.1734   22425523.1504  117846899.628 7  91828771.93245
       627.026         488.611
  22788422.325    22788422.8824   22788426.4104  119753971.804 6  93314809.89343
      3043.067        2371.216
 06  5  9 16 14 30.0000000  0 11G 3G 6G 7G 8G10G15G16G21G26G27G29
  23425751.779    23425751.6194   23425755.7344  123103179.694 6  95924562.84542
      2818.294        2196.054
  23970953.907    23970954.6244   23970959.1904  125968197.167 5  98157049.22141
     -3388.361       -2640.248
  22072759.109    22072759.0974   22072762.4814  115993122.558 7  90384269.42444
      -108.892         -84.853
  22973835.475    22973835.5874   22973839.4764  120728336.861 6  94074046.80944
      2857.698        2226.776
  21340712.969    21340712.6414   21340715.9694  112146196.539 8  87386660.42146
     -1802.946       -1404.892
  23328463.760    23328462.2544   23328467.1244  122591936.634 6  95526182.45142
      3424.213        2668.184
  23112169.190    23112169.9714   23112171.1354  121455254.736 6  94640470.12243
     -2438.062       -1899.768
  22058050.828    22058050.4474   22058052.2694  115915846.595 7  90324048.89844
      2012.335        1568.064
  23480507.498    23480508.0774   23480510.5814  123390913.288 6  96148772.34042
      3913.399        3049.392
  22421990.585    22421990.3394   22421993.7394  117828351.415 7  91814318.78445
       608.933         474.504
  22771083.976    22771084.1824   22771087.2104  119662858.120 6  93243812.29043
      3031.057        2361.868
 06  5  9 16 15  0.0000000  0 11G 3G 6G 7G 8G10G15G16G21G26G27G29
  23409703.427    23409702.9844   23409707.1004  123018841.455 6  95858844.75242
      2804.753        2185.519
  23990321.857    23990321.7024   23990325.4534  126069973.241 5  98236355.24741
     -3396.635       -2646.778
  22073435.547    22073435.5364   22073439.3174  115996677.856 7  90387039.72544
      -128.067         -99.798
  22957563.697    22957563.7154   22957567.5204  120642828.427 6  94007416.90544
      2843.333        2215.562
  21351059.984    21351059.5714   21351063.0414  112200570.411 8  87429029.67246
     -1821.802       -1419.605
  23308944.068    23308943.8024   23308948.7584  122489361.859 6  95446254.18242
      3414.442        2660.552
  23126132.142    23126131.9834   23126135.4064  121528633.369 6  94697648.24943
     -2453.552       -1911.895
  22046610.455    22046610.0994   22046612.1024  115855726.852 7  90277202.34144
      1995.743        1555.133
  23458195.165    23458194.5694   23458199.3204  123273663.138 6  96057408.60642
      3903.641        3041.815
  22418565.771    22418565.8254   22418568.4524  117810353.676 7  91800294.58445
       591.255         460.719
  22753816.393    22753816.6894   22753819.9884  119572116.317 6  93173104.43643
      3018.777        2352.290
 06  5  9 16 15 30.0000000  0 11G 3G 6G 7G 8G10G15G16G21G26G27G29
  23393731.203    23393730.5974   23393734.5404  122934907.832 6  95793441.91242
      2790.358        2174.309
  24009732.961    24009732.6674   24009739.2314  126171983.908 5  98315844.05741
     -3405.077       -2653.327
  22074221.081    22074220.6514   22074224.3864  116000803.376 7  90390254.47244
      -147.732        -115.122
  22941372.882    22941372.6054   22941375.8974  120557741.183 7  93941115.21044
      2828.486        2203.989
  21361512.532    21361512.2964   21361515.7364  112255499.259 8  87471831.35546
     -1840.869       -1434.444
  23289478.764    23289477.9354   23289483.0364  122387072.198 6  95366547.99042
      3404.135        2652.599
  23140183.753    23140183.7234   23140186.1264  121602472.139 6  94755184.95543
     -2469.608       -1924.351
  22035263.622    22035263.2584   22035265.0634  115796098.177 7  90230738.46644
      1978.638        1541.789
  23435935.385    23435936.3604   23435939.8314  123156685.050 6  95966256.90742
      3893.789        3034.073
  22415241.220    22415241.2264   22415244.1474  117792883.058 7  91786681.13045
       572.920         446.427
  22736615.446    22736615.8924   22736619.4304  119481725.315 6  93102669.89943
      3006.310        2342.577
 06  5  9 16 16  0.0000000  0 11G 3G 6G 7G 8G10G15G16G21G26G27G29
  23377842.321    23377841.5714   23377845.6164  122851411.383 6  95728379.72842
      2775.458        2162.678
  24029195.396    24029196.6184   24029198.2884  126274256.701 5  98395537.12141
     -3413.989       -2660.294
  22075119.901    22075119.9624   22075123.5884  116005528.640 7  90393936.42344
      -167.920        -130.849
  22925266.991    22925266.6624   22925270.2644  120473107.705 7  93875167.10244
      2813.017        2191.952
  21372076.476    21372075.7854   21372079.1234  112311011.444 8  87515087.58846
     -1860.630       -1449.841
  23270073.959    23270072.8854   23270078.1274  122285100.593 6  95287089.67842
      3393.244        2644.079
  23154328.182    23154326.6694   23154329.5824  121676797.772 6  94813100.80243
     -2486.031       -1937.137
  22024016.067    22024015.6464   22024017.4814  115736992.772 7  90184682.28544
      1960.981        1528.032
  23413732.989    23413733.6724   23413738.2194  123040011.944 6  95875342.79542
      3883.390        3025.982
  22412022.754    22412022.8054   22412025.6594  117775970.367 7  91773502.43145
       553.978         431.651
  22719488.077    22719487.8724   22719491.1884  119391717.399 6  93032533.91643
      2993.338        2332.448
 06  5  9 16 16 30.0000000  0 11G 3G 6G 7G 8G10G15G16G21G26G27G29
  23362034.485    23362033.8324   23362037.6054  122768340.574 6  95663649.26242
      2761.998        2152.202
  24048703.990    24048705.1154   24048708.3414  126376775.012 5  98475421.53341
     -3421.549       -2666.207
  22076130.659    22076130.4964   22076134.2724  116010840.052 7  90398075.13844
      -186.915        -145.650
  22909246.355    22909245.6984   22909249.1754  120388916.827 7  93809563.89144
      2799.009        2181.041
  21382747.958    21382747.3724   21382750.9024  112367091.077 8  87558785.99546
     -1878.812       -1464.005
  23250727.713    23250727.3184   23250731.9054  122183435.727 6  95207870.39242
      3383.542        2636.516
  23168560.539    23168561.2554   23168563.1574  121751594.827 6  94871384.17343
     -2501.186       -1948.976
  22012866.028    22012865.8414   22012867.3504  115678398.299 7  90139024.13544
      1944.431        1515.128
  23391586.667    23391587.5814   23391592.3644  122923633.034 6  95784657.91742
      3874.188        3018.807
  22408908.046    22408908.0444   22408911.0374  117759602.432 7  91760748.21445
       536.550         418.095
  22702430.427    22702430.5554   22702433.7924  119302080.927 6  92962687.38143
      2981.500        2323.215
 06  5  9 16 17  0.0000000  0 11G 3G 6G 7G 8G10G15G16G21G26G27G29
  23346305.015    23346305.4104   23346308.0934  122685683.862 6  95599241.48942
      2748.052        2141.371
  24068255.437    24068256.1924   24068261.0794  126479522.251 5  98555484.36741
     -3428.647       -2671.708
  22077250.476    22077249.9124   22077253.9494  116016723.239 7  90402659.47844
      -205.835        -160.385
  22893307.163    22893306.6914   22893310.1844  120305157.071 7  93744296.60344
      2784.622        2169.858
  21393524.739    21393523.9874   21393527.2054  112423722.067 8  87602914.00646
     -1897.030       -1478.199
  23231437.307    23231437.2314   23231441.6634  122082065.974 6  95128881.01742
      3373.832        2628.930
  23182881.250    23182880.6484   23182882.9414  121826846.807 6  94930022.10243
     -2516.104       -1960.616
  22001810.697    22001810.6374   22001812.3464  115620302.755 7  90093754.78844
      1927.985        1502.340
  23369495.052    23369495.4104   23369499.1694  122807537.187 6  95694193.66342
      3865.036        3011.725
  22405894.427    22405894.1714   22405897.1344  117743765.534 7  91748407.79145
       518.843         404.315
  22685440.863    22685441.6844   22685445.0254  119212804.322 6  92893121.24543
      2969.718        2314.066
 06  5  9 16 17 30.0000000  0 11G 3G 6G 7G 8G10G15G16G21G26G27G29
  23330656.063    23330655.3714   23330659.5664  122603450.573 6  95535163.73742
      2733.845        2130.311
  24087851.476    24087851.5534   24087855.3004  126582502.145 5  98635728.50541
     -3436.668       -2677.852
  22078480.163    22078479.7574   22078483.0964  116023184.546 7  90407694.28044
      -224.999        -175.281
  22877452.097    22877451.4264   22877455.7334  120221837.461 7  93679372.28644
      2769.919        2158.393
  21404406.819    21404406.3334   21404409.4934  112480909.014 8  87647475.24246
     -1915.447       -1492.537
  23212205.962    23212205.5564   23212209.1614  121981000.904 6  95050129.11942
      3363.581        2620.992
  23197287.532    23197288.2364   23197291.0674  121902557.564 6  94989017.50943
     -2531.332       -1972.450
  21990852.021    21990852.0374   21990854.1144  115562715.004 7  90048881.21244
      1911.081        1489.172
  23347458.615    23347458.5714   23347461.7934  122691734.209 6  95603957.61642
      3855.049        3004.038
  22402982.985    22402983.0654   22402985.6414  117728466.916 7  91736486.81045
       500.931         390.349
  22668522.660    22668523.4844   22668525.6184  119123896.288 6  92823842.31943
      2957.384        2304.475
 06  5  9 16 18  0.0000000  0 11G 3G 6G 7G 8G10G15G16G21G26G27G29
  23315089.772    23315090.3154   23315092.7114  122521650.005 6  95471423.16442
      2719.071        2118.702
  24107494.746    24107494.2044   24107501.2464  126685718.772 5  98716156.92041
     -3444.781       -2684.309
  22079820.937    22079820.7774   22079824.0794  116030230.642 7  90413184.73744
      -244.980        -190.882
  22861681.923    22861681.9914   22861685.3984  120138967.164 7  93614798.07644
      2754.515        2146.360
  21415396.015    21415395.6134   21415398.6784  112538657.136 8  87692473.77046
     -1934.612       -1507.485
  23193033.401    23193033.0264   23193037.7454  121880249.742 6  94971621.74842
      3352.800        2612.599
  23211783.771    23211783.4944   23211785.4584  121978731.341 6  95048373.65743
     -2547.123       -1984.784
  21979992.172    21979991.9434   21979993.4674  115505643.721 7  90004410.08044
      1893.402        1475.368
  23325479.303    23325478.5654   23325482.4864  122576233.831 6  95513957.35542
      3844.571        2995.796
  22400175.591    22400175.5194   22400178.3724  117713713.791 7  91724990.89745
       482.431         375.913
  22651676.037    22651675.9844   22651679.9244  119035366.015 6  92754857.74843
      2944.256        2294.207
 06  5  9 16 18 30.0000000  0 11G 3G 6G 7G 8G10G15G16G21G26G27G29
  23299608.967    23299609.0104   23299611.2094  122440295.072 6  95408029.74442
      2704.108        2107.048
  24127182.986    24127181.0764   24127184.7064  126789180.360 5  98796776.39441
     -3453.198       -2690.777
  22081274.775    22081274.4694   22081278.1244  116037871.925 7  90419139.10744
      -264.958        -206.477
  22846000.915    22846000.2444   22846003.6554  120056559.904 7  93550584.65744
      2738.854        2134.137
  21426493.553    21426493.1384   21426496.2064  112596974.755 8  87737916.05146
     -1953.714       -1522.381
  23173922.666    23173923.0864   23173926.5914  121779825.489 6  94893369.14642
      3341.669        2603.896
  23226369.169    23226368.8314   23226371.2524  122055376.026 6  95108096.71943
     -2562.986       -1997.129
  21969232.084    21969232.1894   21969233.7574  115449100.724 7  89960350.57044
      1875.631        1461.541
  23303560.331    23303560.0284   23303563.8894  122461049.620 6  95424203.50842
      3833.618        2987.251
  22397474.156    22397474.1244   22397476.7594  117699516.901 7  91713928.41245
       463.714         361.334
  22634903.364    22634903.6554   22634907.4174  118947226.196 6  92686177.42643
      2931.108        2283.976
 06  5  9 16 19  0.0000000  0 11G 3G 6G 7G 8G10G15G16G21G26G27G29
  23284210.974    23284209.9584   23284213.3924  122359375.279 6  95344975.32042
      2689.538        2095.767
  24146914.405    24146915.7184   24146916.5634  126892871.152 5  98877574.43841
     -3460.667       -2696.556
  22082839.515    22082839.1354   22082842.8224  116046094.898 7  90425546.65144
      -284.239        -221.473
  22830404.657    22830404.6224   22830408.0964  119974605.105 7  93486723.81944
      2723.818        2122.467
  21437696.664    21437695.8964   21437699.1614  112655847.072 8  87783790.57946
     -1972.095       -1536.684
  23154873.739    23154873.3524   23154876.8104  121679717.657 6  94815363.04742
      3331.150        2595.708
  23241040.764    23241040.3634   23241043.0294  122132476.250 6  95168174.70642
     -2577.997       -2008.830
  21958570.809    21958571.0274   21958572.6004  115393075.118 7  89916694.22545
      1858.397        1448.098
  23281699.419    23281700.1934   23281704.3704  122346171.525 6  95334688.16142
      3823.672        2979.532
  22394875.857    22394875.8824   22394878.7564  117685863.591 7  91703289.49845
       445.601         347.225
  22618203.446    22618203.0994   22618206.5434  118859466.062 6  92617792.94243
      2918.481        2274.123
 06  5  9 16 19 30.0000000  0 11G 3G 6G 7G 8G10G15G16G21G26G27G29
  23268893.605    23268894.3894   23268896.8944  122278886.959 6  95282257.07942
      2676.232        2085.385
  24166687.059    24166685.5524   24166690.8334  126996782.098 5  98958543.95141
     -3466.910       -2701.473
  22084513.366    22084513.7804   22084516.9934  116054893.248 7  90432402.52344
      -302.381        -235.618
  22814895.188    22814894.8384   22814898.3434  119893099.213 7  93423212.76944
      2709.853        2111.550
  21449003.552    21449003.1074   21449006.2824  112715265.955 8  87830091.00446
     -1989.237       -1550.055
  23135883.084    23135883.0804   23135887.2034  121579922.779 6  94737600.75342
      3321.774        2588.367
  23255797.291    23255797.4194   23255799.0424  122210023.436 6  95228600.96643
     -2591.788       -2019.548
  21948007.123    21948007.0444   21948008.3204  115337562.365 7  89873437.57445
      1842.370        1435.598
  23259897.128    23259897.4424   23259900.6384  122231596.407 6  95245408.90642
      3814.551        2972.329
  22392380.229    22392380.3884   22392383.0624  117672748.509 7  91693069.97345
       428.734         334.074
  22601574.628    22601574.5154   22601577.8004  118772081.942 6  92549701.47043
      2906.996        2265.156
 06  5  9 16 20  0.0000000  0 11G 3G 6G 7G 8G10G15G16G21G26G27G29
  23253655.583    23253656.1594   23253659.0344  122198811.271 6  95219860.43142
      2661.601        2073.955
  24186499.114    24186499.0284   24186501.1494  127100889.245 5  99039666.39841
     -3473.986       -2706.968
  22086293.076    22086293.1854   22086296.4814  116064245.088 7  90439689.68944
      -321.548        -250.550
  22799466.615    22799466.7484   22799469.5504  119812023.156 7  93360036.64444
      2694.532        2099.633
  21460409.986    21460409.6294   21460412.8994  112775207.821 8  87876798.94146
     -2007.455       -1564.253
  23116949.278    23116949.2224   23116952.2754  121480422.072 6  94660067.76342
      3311.083        2580.036
  23270634.953    23270633.9594   23270637.6014  122287993.256 6  95289356.50042
     -2606.717       -2031.222
  21937537.517    21937537.2814   21937538.9394  115282543.399 7  89830565.66244
      1825.141        1422.173
  23238147.939    23238148.4174   23238151.9774  122117305.824 6  95156351.36942
      3804.221        2964.290
  22389982.639    22389982.6504   22389985.5964  117660150.240 7  91683253.15945
       410.586         319.943
  22585013.896    22585014.2494   22585017.1164  118685054.679 6  92481888.08043
      2894.327        2255.322
 06  5  9 16 20 30.0000000  0 11G 3G 6G 7G 8G10G15G16G21G26G27G29
  23238502.348    23238501.5394   23238505.6394  122119176.226 6  95157807.15342
      2646.932        2062.549
  24206350.662    24206352.5784   24206357.1734  127205215.560 5  99120959.59941
     -3481.195       -2712.601
  22088183.352    22088183.1254   22088186.2074  116074175.853 7  90447427.97244
      -340.862        -265.611
  22784125.506    22784125.3884   22784128.5624  119731405.112 7  93297217.43044
      2679.548        2087.947
  21471920.559    21471920.2044   21471923.5124  112835696.121 8  87923932.67145
     -2025.417       -1578.249
  23098075.055    23098075.0494   23098079.3794  121381243.773 6  94582785.93942
      3300.332        2571.705
  23285556.290    23285556.0604   23285558.6404  122366409.616 6  95350460.28942
     -2621.502       -2042.740
  21927166.704    21927166.7654   21927167.9704  115228044.996 7  89788099.37645
      1807.728        1408.612
  23216457.835    23216458.5614   23216461.9424  122003328.384 6  95067537.85542
      3793.940        2956.298
  22387688.931    22387688.8054   22387691.6294  117648094.828 7  91673859.35545
       392.625         305.939
  22568526.290    22568526.5634   22568529.7234  118598411.911 6  92414374.28843
      2881.638        2245.416
 06  5  9 16 21  0.0000000  0 11G 3G 6G 7G 8G10G15G16G21G26G27G29
  23223434.774    23223434.1384   23223437.0744  122039994.609 6  95096107.21842
      2631.417        2050.455
  24226246.941    24226245.0924   24226251.6994  127309768.563 5  99202429.42441
     -3489.345       -2718.900
  22090184.985    22090184.7324   22090188.3904  116084695.210 7  90455624.85044
      -361.027        -281.315
  22768874.136    22768873.9224   22768877.1644  119651257.828 7  93234765.02744
      2663.224        2075.249
  21483536.835    21483536.3354   21483539.3034  112896738.977 8  87971498.52746
     -2044.507       -1593.112
  23079267.382    23079265.6924   23079270.6904  121282400.942 6  94505765.63342
      3288.576        2562.515
  23300565.097    23300564.7824   23300566.7854  122445279.302 6  95411917.08042
     -2637.021       -2054.836
  21916897.591    21916897.4774   21916899.0414  115174079.810 7  89746048.58945
      1789.329        1394.295
  23194831.041    23194831.8974   23194834.4424  121889677.191 6  94978978.50642
      3782.362        2947.313
  22385500.072    22385499.8584   22385502.6484  117636592.922 7  91664896.85945
       373.690         291.189
  22552114.900    22552114.5304   22552118.0174  118512166.104 6  92347169.80843
      2867.657        2234.538
 06  5  9 16 21 30.0000000  0 11G 3G 6G 7G 8G10G15G16G21G26G27G29
  23208452.402    23208451.6604   23208455.2874  121961264.937 6  95034759.44042
      2616.776        2039.054
  24246184.344    24246184.3494   24246189.0524  127414541.880 5  99284070.92541
     -3495.848       -2723.984
  22092298.062    22092297.6474   22092301.1324  116095799.165 7  90464277.25244
      -379.782        -295.921
  22753711.524    22753711.7244   22753715.0974  119571580.115 7  93172678.52044
      2648.229        2063.560
  21495257.163    21495256.7014   21495259.8454  112958330.674 8  88019492.05045
     -2062.067       -1606.801
  23060521.184    23060520.5354   23060524.6984  121183891.920 6  94429005.38142
      3278.136        2554.414
  23315658.417    23315658.7114   23315661.0994  122524596.362 6  95473722.52542
     -2651.247       -2065.897
  21906728.863    21906729.1474   21906730.6994  115120645.461 7  89704411.41645
      1772.374        1381.052
  23173266.760    23173266.7054   23173270.2774  121776351.581 6  94890672.85342
      3772.241        2939.457
  22383415.674    22383415.7424   22383418.5744  117625641.079 7  91656362.96945
       355.987         277.387
  22535777.131    22535777.2374   22535780.5994  118426315.937 6  92280273.63143
      2855.182        2224.845
 06  5  9 16 22  0.0000000  0 11G 3G 6G 7G 8G10G15G16G21G26G27G29
  23193556.625    23193556.1524   23193559.3554  121882982.441 6  94973760.16542
      2601.501        2027.169
  24266162.508    24266163.5034   24266164.2944  127519525.593 5  99365876.37541
     -3503.508       -2730.006
  22094520.712    22094520.7994   22094523.7114  116107480.242 7  90473379.33544
      -399.480        -311.257
  22738638.272    22738638.0904   22738641.3134  119492367.497 7  93110954.43444
      2632.144        2051.019
  21507080.636    21507079.9824   21507083.0584  113020462.156 8  88067906.19446
     -2080.506       -1621.164
  23041838.078    23041837.4214   23041842.5594  121085712.252 6  94352501.75542
      3266.625        2545.431
  23330834.920    23330835.5234   23330837.7694  122604351.024 6  95535869.07042
     -2666.456       -2077.769
  21896661.043    21896660.9964   21896662.3784  115067736.235 8  89663183.45345
      1754.366        1367.042
  23151762.339    23151762.7164   23151765.9264  121663347.325 6  94802617.64342
      3760.889        2930.608
  22381435.406    22381435.2054   22381437.9544  117615232.345 7  91648252.27845
       337.474         262.980
  22519514.535    22519515.2294   22519517.8774  118340856.093 7  92213681.59143
      2841.632        2214.254
 06  5  9 16 22 30.0000000  0 11G 3G 6G 7G 8G10G15G16G21G26G27G29
  23178743.523    23178743.6254   23178746.9824  121805142.344 6  94913105.57142
      2586.931        2015.755
  24286178.545    24286179.0414   24286181.8824  127624709.823 5  99447838.05341
     -3509.575       -2734.752
  22096852.205    22096851.8684   22096855.1874  116119730.718 7  90482925.09144
      -417.985        -325.705
  22723651.728    22723652.2434   22723655.0674  119413615.428 7  93049589.20544
      2617.023        2039.241
  21519004.885    21519004.2294   21519007.3644  113083124.085 8  88116733.67045
     -2097.821       -1634.691
  23023216.914    23023217.0454   23023220.8294  120987857.303 6  94276251.19642
      3256.191        2537.296
  23346093.895    23346093.8404   23346095.6664  122684533.946 6  95598349.51642
     -2680.025       -2088.317
  21886691.637    21886691.4754   21886692.9434  115015346.893 7  89622360.60945
      1737.490        1353.900
  23130318.367    23130318.6114   23130322.2794  121550660.299 6  94714809.62242
      3750.725        2922.671
  22379556.461    22379556.4574   22379559.2974  117605359.817 7  91640559.41145
       319.810         249.173
  22503326.210    22503326.0144   22503328.6464  118255781.915 6  92147390.07444
      2829.119        2204.507
 06  5  9 16 23  0.0000000  0 11G 3G 6G 7G 8G10G15G16G21G26G27G29
  23164018.820    23164018.2994   23164022.1564  121727764.012 6  94852810.76743
      2571.160        2003.536
  24306235.234    24306235.9934   24306240.1404  127730108.913 5  99529967.13841
     -3517.408       -2740.852
  22099294.469    22099294.7884   22099298.1824  116132567.094 7  90492927.28444
      -438.091        -341.359
  22708757.382    22708757.2084   22708760.3714  119335343.093 7  92988597.79544
      2600.577        2026.426
  21531032.405    21531031.9334   21531035.2634  113146331.449 7  88165986.15645
     -2116.465       -1649.191
  23004661.358    23004660.9114   23004664.4834  120890346.460 6  94200268.73143
      3244.118        2527.895
  23361435.899    23361436.7084   23361438.6004  122765158.214 6  95661173.44142
     -2695.262       -2100.180
  21876824.822    21876824.6644   21876826.0314  114963496.254 7  89581957.50745
      1718.960        1339.453
  23108939.278    23108939.0714   23108943.4724  121438310.592 6  94627264.46842
      3738.828        2913.372
  22377783.192    22377783.1794   22377785.7654  117596040.782 7  91633297.83745
       301.014         234.558
  22487213.838    22487213.8704   22487216.6144  118171112.388 6  92081413.86044
      2815.033        2193.516
 06  5  9 16 23 30.0000000  0 11G 3G 6G 7G 8G10G15G16G21G26G27G29
  23149382.509    23149382.5904   23149385.5884  121650851.042 6  94792878.64143
      2555.345        1991.186
  24326333.391    24326329.2554   24326337.9574  127835721.128 5  99612262.22541
     -3524.616       -2746.384
  22101849.603    22101849.1204   22101852.6594  116145990.437 7  90503387.01544
      -457.918        -356.835
  22693954.991    22693954.4204   22693957.5514  119257554.010 7  92927982.95544
      2584.248        2013.680
  21543164.352    21543163.8044   21543166.9404  113210083.294 8  88215662.91745
     -2134.739       -1663.437
  22986171.246    22986170.5694   22986175.1484  120793183.428 6  94124557.25843
      3232.275        2518.648
  23376862.770    23376861.4404   23376864.8474  122846223.947 6  95724341.77442
     -2710.079       -2111.741
  21867061.173    21867060.8554   21867062.2224  114912186.862 8  89541976.10445
      1700.605        1325.164
  23087624.397    23087625.2374   23087628.0634  121326302.130 6  94539985.21142
      3727.263        2904.354
  22376115.472    22376115.3884   22376118.0024  117587276.622 7  91626468.64345
       282.215         219.908
  22471178.940    22471179.3744   22471182.5394  118086851.036 6  92015755.70944
      2801.287        2182.823
 06  5  9 16 24  0.0000000  0 11G 3G 6G 7G 8G10G15G16G21G26G27G29
  23134832.822    23134832.9454   23134836.2044  121574393.074 6  94733301.03343
      2541.101        1980.027
  24346468.837    24346466.2834   24346472.2724  127941531.646 5  99694711.90741
     -3530.473       -2751.052
  22104512.697    22104512.7794   22104516.2394  116159987.403 7  90514293.69944
      -476.292        -371.142
  22679241.866    22679241.8124   22679244.3814  119180237.949 7  92867736.68644
      2569.253        2002.021
  21555396.581    21555395.9124   21555399.1304  113274364.625 8  88265752.26446
     -2151.759       -1676.702
  22967746.450    22967745.8124   22967749.9734  120696358.503 6  94049109.29243
      3221.695        2510.378
  23392369.513    23392369.6244   23392371.9904  122927714.574 6  95787840.94642
     -2723.415       -2122.151
  21857398.026    21857398.0174   21857399.3854  114861407.950 7  89502408.10045
      1683.509        1311.823
  23066372.821    23066373.3994   23066376.7094  121214625.466 6  94452964.49142
      3716.742        2896.175
  22374550.760    22374550.9084   22374553.5354  117579054.856 7  91620062.08445
       265.050         206.532
  22455220.718    22455220.5134   22455224.0114  118002987.316 7  91950407.39544
      2788.542        2172.882
 06  5  9 16 24 30.0000000  0 11G 3G 6G 7G 8G10G15G16G21G26G27G29
  23120367.954    23120368.0964   23120371.0704  121498380.915 6  94674070.81443
      2525.914        1968.259
  24366635.714    24366637.6274   24366641.9084  128047525.951 5  99777304.86841
     -3536.555       -2755.751
  22107283.240    22107282.9634   22107286.3454  116174545.897 7  90525637.98644
      -494.978        -385.685
  22664617.381    22664617.5694   22664620.5244  119103386.122 7  92807852.16044
      2553.509        1989.751
  21567727.112    21567726.5984   21567729.5704  113339161.724 7  88316243.51245
     -2168.869       -1690.010
  22949383.929    22949383.1814   22949386.7694  120599862.275 6  93973917.47843
      3210.560        2501.734
  23407954.675    23407954.6324   23407956.4384  123009616.167 6  95851660.33242
     -2737.251       -2132.898
  21847834.194    21847834.0914   21847835.5554  114811149.591 7  89463245.79345
      1666.222        1298.355
  23045183.193    23045183.5854   23045186.4194  121103271.613 6  94366195.32242
      3705.923        2887.769
  22373087.086    22373087.3104   22373089.8984  117571364.003 7  91614069.22145
       247.070         192.528
  22439336.084    22439336.0224   22439338.3794  117919511.671 6  91885361.48744
      2775.659        2162.855
 06  5  9 16 25  0.0000000  0 11G 3G 6G 7G 8G10G15G16G21G26G27G29
  23105991.998    23105992.1964   23105994.8694  121422832.585 6  94615202.00943
      2510.608        1956.298
  24386845.066    24386846.1744   24386847.8364  128153717.038 5  99860051.12541
     -3542.837       -2760.680
  22110163.555    22110163.1184   22110166.5614  116189681.069 7  90537431.61544
      -514.109        -400.602
  22650085.478    22650085.0614   22650087.6614  119027016.763 7  92748343.60344
      2537.762        1977.461
  21580158.496    21580157.8694   21580160.9644  113404488.268 8  88367147.30345
     -2186.233       -1703.555
  22931087.459    22931086.8244   22931090.6094  120503713.000 6  93898995.94043
      3199.227        2492.897
  23423620.738    23423620.6034   23423622.1634  123091942.017 6  95915810.36942
     -2751.189       -2143.831
  21838372.959    21838372.7764   21838374.3294  114761429.285 7  89424502.71445
      1648.309        1284.410
  23024058.613    23024058.5844   23024061.3174  120992259.475 6  94279692.41742
      3694.975        2879.190
  22371727.711    22371727.8314   22371730.3684  117564220.200 7  91608502.63445
       229.087         178.520
  22423528.404    22423528.3114   22423530.8454  117836442.194 6  91820632.07144
      2762.371        2152.503
 06  5  9 16 25 30.0000000  0 11G 3G 6G 7G 8G10G15G16G21G26G27G29
  23091704.636    23091705.0774   23091707.4814  121347753.801 6  94556699.08443
      2494.949        1944.125
  24407089.095    24407089.1934   24407096.3674  128260105.548 5  99942951.27541
     -3549.635       -2765.940
  22113154.081    22113153.4944   22113156.7914  116205395.648 7  90549676.75944
      -533.370        -415.595
  22635644.672    22635644.7004   22635647.9364  118951135.004 7  92689214.98644
      2521.269        1964.639
  21592690.286    21592689.7864   21592693.1904  113470345.349 8  88418464.50945
     -2204.034       -1717.428
  22912857.709    22912857.7874   22912861.6064  120407916.792 6  93824349.55443
      3187.427        2483.739
  23439367.541    23439368.1754   23439369.6404  123174692.955 6  95980291.64842
     -2765.322       -2154.734
  21829014.966    21829014.7104   21829016.1274  114712252.190 7  89386182.92445
      1630.196        1270.305
  23002999.418    23003000.4114   23003003.2274  120881595.312 6  94193460.65742
      3682.862        2869.767
  22370473.354    22370473.1774   22370476.0604  117557626.830 7  91603364.94945
       210.720         164.211
  22407798.707    22407798.5414   22407801.5924  117753784.152 7  91756223.25844
      2748.394        2141.637
 06  5  9 16 26  0.0000000  0 11G 3G 6G 7G 8G10G15G16G21G26G27G29
  23077505.078    23077504.5034   23077507.2244  121273131.418 6  94498551.80343
      2479.514        1932.044
  24427369.886    24427368.0694   24427374.0814  128366673.207 4 100025991.03041
     -3555.322       -2770.448
  22116251.242    22116251.0494   22116254.6224  116221673.506 7  90562360.78244
      -552.145        -430.247
  22621295.435    22621295.3634   22621298.2494  118875728.224 7  92630456.48444
      2505.431        1952.286
  21605320.408    21605319.8324   21605322.9694  113536715.320 8  88470181.36345
     -2221.004       -1730.664
  22894692.939    22894693.2394   22894697.0154  120312460.842 6  93749968.36643
      3175.939        2474.745
  23455192.767    23455191.0444   23455194.8234  123257850.541 6  96045089.74042
     -2778.907       -2165.395
  21819757.329    21819757.1364   21819758.2874  114663604.300 7  89348275.45945
      1612.582        1256.548
  22982004.787    22982004.8944   22982007.8784  120771266.540 6  94107490.24642
      3671.789        2861.078
  22369320.391    22369320.2234   22369322.7914  117551568.500 7  91598644.17645
       192.869         150.290
  22392145.338    22392145.3514   22392147.6484  117671524.311 7  91692124.73344
      2735.163        2131.280
 06  5  9 16 26 30.0000000  0 11G 3G 6G 7G 8G10G15G16G21G26G27G29
  23063394.132    23063393.6164   23063396.6084  121198976.142 6  94440768.43043
      2463.630        1919.689
  24447684.117    24447682.1394   24447687.2994  128473425.828 4 100109174.83641
     -3561.903       -2775.544
  22119457.330    22119457.4024   22119460.8574  116238522.951 7  90575490.29844
      -571.521        -445.348
  22607038.340    22607038.2994   22607041.4784  118800807.251 7  92572076.53344
      2488.833        1939.351
  21618048.768    21618048.2784   21618051.4614  113603604.338 7  88522302.66745
     -2238.673       -1744.402
  22876594.724    22876595.2104   22876598.7014  120217356.044 6  93675860.83443
      3163.868        2465.357
  23471095.352    23471094.2634   23471096.3284  123341420.550 6  96110209.26142
     -2792.956       -2176.336
  21810602.589    21810602.1814   21810603.6944  114615495.390 7  89310787.98945
      1594.254        1242.279
  22961076.068    22961075.6324   22961078.9554  120661284.730 6  94021790.24143
      3659.817        2851.806
  22368270.969    22368270.9544   22368273.4724  117546053.879 7  91594347.06845
       174.342         135.862
  22376568.876    22376569.1134   22376572.3224  117589673.265 7  91628344.75344
      2721.086        2120.365
 06  5  9 16 27  0.0000000  0 11G 3G 6G 7G 8G10G15G16G21G26G27G29
  23049373.644    23049372.9884   23049375.9944  121125297.766 6  94383356.71843
      2447.964        1907.548
  24468033.534    24468034.0674   24468038.9864  128580367.914 4 100192506.29841
     -3568.199       -2780.373
  22122773.623    22122773.6714   22122777.0104  116255949.854 7  90589069.68644
      -590.643        -460.225
  22592875.850    22592875.6484   22592878.7684  118726381.770 7  92514082.68444
      2472.438        1926.596
  21630876.988    21630876.5254   21630879.7154  113671017.382 7  88574832.30945
     -2256.007       -1757.904
  22858566.128    22858565.3804   22858569.4344  120122612.222 6  93602034.57443
      3151.987        2456.098
  23487077.673    23487077.1614   23487078.5204  123425407.469 6  96175653.58542
     -2806.492       -2186.889
  21801551.948    21801551.6734   21801553.2074  114567934.158 7  89273727.29845
      1576.075        1228.137
  22940214.843    22940214.6434   22940217.6424  120551660.039 6  93936368.49043
      3647.898        2842.538
  22367326.539    22367326.4784   22367329.0064  117541090.409 7  91590479.43045
       156.179         121.724
  22361073.420    22361073.1284   22361076.1094  117508240.328 6  91564890.56944
      2707.263        2109.581
 06  5  9 16 27 30.0000000  0 11G 3G 6G 7G 8G10G15G16G21G26G27G29
  23035441.894    23035442.4454   23035445.1634  121052091.391 6  94326312.80443
      2431.800        1894.923
  24488419.092    24488418.0764   24488422.6894  128687489.775 4 100275977.81841
     -3573.703       -2784.739
  22126198.589    22126198.6824   22126201.7114  116273947.394 7  90603093.71544
      -610.036        -475.362
  22578806.729    22578806.1584   22578809.4054  118652447.298 7  92456471.43944
      2455.927        1913.720
  21643803.494    21643802.9284   21643806.0294  113738945.560 8  88627763.35645
     -2273.288       -1771.385
  22840604.730    22840604.0084   22840608.6024  120028224.777 6  93528486.07043
      3139.900        2446.673
  23503136.772    23503136.6014   23503139.1104  123509801.570 6  96241415.11342
     -2820.376       -2197.697
  21792604.448    21792604.1464   21792605.8464  114520915.554 7  89237089.42245
      1557.586        1213.725
  22919420.596    22919421.4554   22919424.6834  120442388.399 6  93851221.81043
      3636.195        2833.411
  22366485.270    22366485.3794   22366488.1924  117536670.931 7  91587035.67945
       137.742         107.340
  22345655.233    22345655.8704   22345658.6994  117427220.784 7  91501758.51844
      2693.382        2098.775
 06  5  9 16 28  0.0000000  0 11G 3G 6G 7G 8G10G15G16G21G26G27G29
  23021603.328    23021602.9084   23021606.8584  120979368.837 6  94269645.87443
      2415.779        1882.432
  24508839.892    24508840.0854   24508847.0054  128794798.162 4 100359594.70341
     -3580.388       -2789.979
  22129733.503    22129733.5584   22129737.0204  116292523.527 7  90617568.56644
      -629.263        -490.335
  22564832.953    22564833.0184   22564835.8924  118579015.166 7  92399251.62044
      2438.937        1900.475
  21656829.059    21656828.3274   21656831.7824  113807395.587 8  88681101.03045
     -2290.721       -1784.976
  22822713.121    22822713.2414   22822716.9264  119934205.412 6  93455224.28043
      3127.474        2436.994
  23519275.231    23519274.6584   23519277.6624  123594609.506 6  96307499.11642
     -2834.119       -2208.406
  21783762.470    21783762.3584   21783763.6744  114474450.181 7  89200882.65045
      1539.282        1199.444
  22898695.966    22898696.9494   22898699.7394  120333481.923 6  93766359.66143
      3623.555        2823.559
  22365749.734    22365749.7454   22365752.5484  117532805.018 7  91584023.27945
       119.353          93.022
  22330318.567    22330318.8714   22330321.9084  117346625.798 7  91438957.30244
      2679.016        2087.552
 06  5  9 16 28 30.0000000  0 10G 3G 7G 8G10G15G16G21G26G27G29
  23007858.900    23007858.2194   23007862.2864  120907138.018 6  94213362.10943
      2399.646        1869.846
  22133380.146    22133379.6334   22133383.1984  116311683.724 7  90632498.51244
      -648.212        -505.108
  22550956.624    22550956.1034   22550959.2834  118506093.517 7  92342429.58044
      2422.267        1887.474
  21669954.558    21669954.0684   21669957.0894  113876370.860 8  88734847.98545
     -2307.788       -1798.264
  22804893.441    22804893.1994   22804897.1444  119840562.503 6  93382255.82443
      3115.306        2427.497
  23535493.302    23535493.2334   23535494.3724  123679834.148 6  96373907.65642
     -2847.407       -2218.743
  21775026.842    21775026.9764   21775028.5874  114428545.645 7  89165112.89145
      1520.923        1185.139
  22878043.343    22878044.1394   22878047.8784  120224949.519 6  93681789.01943
      3611.656        2814.326
  22365120.547    22365120.4754   22365123.1274  117529498.086 8  91581446.45945
       100.960          78.672
  22315064.121    22315064.6884   22315067.3774  117266463.298 7  91376493.06344
      2665.003        2076.641
 06  5  9 16 29  0.0000000  0 10G 3G 7G 8G10G15G16G21G26G27G29
  22994203.016    22994202.7014   22994206.8164  120835378.411 6  94157445.54243
      2382.988        1856.870
  22137132.967    22137132.5934   22137135.6514  116331404.538 7  90647865.29244
      -667.677        -520.265
  22537172.856    22537172.7514   22537176.0604  118433662.336 7  92285989.72244
      2405.267        1874.234
  21683175.479    21683174.7824   21683178.2324  113945846.648 7  88788984.95045
     -2325.032       -1811.710
  22787142.197    22787141.2674   22787144.7764  119747276.102 6  93309565.12243
      3102.624        2417.633
  23551786.430    23551785.8404   23551788.2214  123765451.218 6  96440622.26442
     -2861.369       -2229.598
  21766394.690    21766394.0914   21766395.6784  114383180.655 7  89129763.48945
      1502.224        1170.581
  22857457.454    22857458.2224   22857461.6794  120116771.560 6  93597494.60243
      3599.105        2804.489
  22364593.440    22364593.1684   22364595.9824  117526727.870 7  91579287.86745
        82.423          64.214
  22299888.447    22299888.3264   22299891.5964  117186712.787 7  91314349.84544
      2650.623        2065.381
 06  5  9 16 29 30.0000000  0 10G 3G 7G 8G10G15G16G21G26G27G29
  22980639.742    22980639.5744   22980643.6174  120764101.344 6  94101904.91143
      2366.831        1844.244
  22140993.870    22140993.4054   22140996.7434  116351694.772 7  90663675.82444
      -686.813        -535.178
  22523485.300    22523484.7714   22523487.9744  118361732.929 7  92229940.86044
      2388.183        1860.925
  21696492.808    21696492.3254   21696495.3204  114015829.990 8  88843517.41245
     -2342.286       -1825.171
  22769459.878    22769459.8654   22769463.8944  119654357.648 6  93237161.01543
      3090.034        2407.816
  23568153.991    23568153.7874   23568157.3824  123851466.149 6  96507646.85142
     -2874.750       -2240.084
  21757866.640    21757866.4324   21757868.0694  114338365.888 7  89094842.78845
      1483.573        1156.015
  22836942.612    22836942.8534   22836944.9634  120008959.998 6  93513485.63543
      3586.384        2794.611
  22364170.370    22364169.9564   22364172.7614  117524503.392 7  91577554.51545
        64.021          49.879
  22284793.240    22284793.0954   22284795.9114  117107385.639 7  91252536.50244
      2636.049        2054.061
 06  5  9 16 30  0.0000000  0 10G 3G 7G 8G10G15G16G21G26G27G29
  22967171.586    22967171.5134   22967174.6804  120693326.812 6  94046755.98043
      2351.377        1832.238
  22144966.404    22144966.4074   22144969.5204  116372570.599 7  90679942.69844
      -704.912        -549.304
  22509896.517    22509896.4404   22509899.1224  118290324.621 7  92174298.05244
      2372.218        1848.477
  21709909.860    21709909.1364   21709912.3644  114086335.584 7  88898456.81945
     -2358.205       -1837.574
  22751852.074    22751851.7424   22751856.2304  119561827.093 6  93165059.17643
      3078.502        2398.825
  23584600.076    23584601.3384   23584601.9674  123937893.663 6  96574992.97542
     -2887.108       -2249.697
  21749447.089    21749446.6114   21749448.2054  114294120.182 8  89060365.62245
      1466.054        1142.377
  22816499.552    22816500.2184   22816503.4894  119901535.014 6  93429777.90643
      3574.910        2785.635
  22363853.947    22363853.6124   22363856.5184  117522841.808 8  91576259.78745
        46.631          36.327
  22269781.384    22269781.5014   22269784.6794  117028500.914 7  91191067.90844
      2622.654        2043.626
 06  5  9 16 30 30.0000000  0 10G 3G 7G 8G10G15G16G21G26G27G29
  22953794.517    22953794.3744   22953797.6274  120623028.209 6  93991977.81743
      2335.097        1819.537
  22149045.012    22149044.5894   22149048.0874  116394003.012 7  90696643.19944
      -723.842        -564.030
  22496402.680    22496402.4694   22496405.3084  118219412.010 7  92119041.49444
      2355.283        1835.282
  21723419.756    21723419.3344   21723422.6084  114157333.087 7  88953779.53545
     -2374.899       -1850.560
  22734313.156    22734312.5764   22734316.8754  119469658.993 6  93093239.84543
      3065.998        2389.093
  23601119.740    23601119.5094   23601121.6764  124024702.661 6  96642636.40942
     -2900.172       -2259.907
  21741130.229    21741130.1874   21741131.7784  114250416.554 7  89026310.83245
      1447.569        1127.991
  22796126.320    22796126.5324   22796130.5174  119794471.527 6  93346351.87943
      3562.512        2775.982
  22363639.227    22363639.1444   22363641.9554  117521714.978 7  91575381.74945
        28.477          22.190
  22254849.510    22254849.5794   22254852.2704  116950032.575 7  91129923.74244
      2608.415        2032.513
 06  5  9 16 31  0.0000000  0 10G 3G 7G 8G10G15G16G21G26G27G29
  22940508.253    22940508.2184   22940511.7464  120553211.454 6  93937575.10743
      2318.550        1806.649
  22153230.065    22153229.3924   22153232.7344  116415994.553 7  90713779.40544
      -743.140        -579.073
  22483003.828    22483003.5064   22483006.2954  118149000.747 7  92064175.59444
      2338.116        1821.903
  21737024.182    21737023.4634   21737026.6734  114228823.382 7  89009486.26045
     -2391.837       -1863.774
  22716844.312    22716843.6094   22716847.4734  119377858.709 6  93021707.04243
      3053.104        2379.029
  23617710.919    23617710.8194   23617713.4654  124111893.547 6  96710577.33942
     -2913.428       -2270.179
  21732918.396    21732917.7664   21732919.4424  114207259.800 7  88992682.12145
      1428.630        1113.226
  22775822.694    22775822.7834   22775825.9594  119687775.492 6  93263212.17043
      3549.750        2766.039
  22363527.431    22363527.2754   22363530.0164  117521125.955 7  91574922.76945
        10.066           7.851
  22239997.246    22239997.9094   22240000.2074  116871985.996 7  91069108.25844
      2593.852        2021.184
 06  5  9 16 31 30.0000000  0 10G 3G 7G 8G10G15G16G21G26G27G29
  22927318.819    22927319.0154   22927321.9054  120483899.738 6  93883565.98443
      2301.906        1793.675
  22157524.888    22157524.4284   22157528.1594  116438565.727 7  90731367.29344
      -762.168        -593.907
  22469704.485    22469704.4374   22469707.7834  118079114.079 7  92009718.46744
      2320.652        1808.294
  21750725.844    21750725.1644   21750728.4054  114300825.407 8  89065591.72545
     -2408.736       -1876.952
  22699449.774    22699449.5804   22699453.1004  119286450.242 6  92950479.72043
      3040.216        2368.989
  23634379.946    23634379.2054   23634382.5614  124199485.216 6  96778830.65342
     -2926.497       -2280.410
  21724813.899    21724813.7954   21724815.5064  114164672.713 7  88959497.33345
      1409.885        1098.591
  22755593.718    22755593.5254   22755596.7164  119581471.182 6  93180377.70943
      3536.698        2755.845
  22363521.725    22363521.4824   22363524.2684  117521096.215 7  91574899.61245
        -8.408          -6.577
  22225230.771    22225230.7234   22225233.2274  116794384.430 7  91008639.56144
      2579.076        2009.674
 06  5  9 16 32  0.0000000  0 10G 3G 7G 8G10G15G16G21G26G27G29
  22914224.897    22914224.4744   22914227.2684  120415088.405 6  93829946.77543
      2285.087        1780.593
  22161928.757    22161928.6584   22161932.2634  116461708.814 7  90749400.84744
      -781.145        -608.689
  22456504.610    22456504.4944   22456507.4904  118009746.929 7  91955666.15344
      2303.338        1794.803
  21764522.689    21764522.1774   21764525.4874  114373330.074 7  89122088.86445
     -2425.372       -1889.906
  22682128.776    22682128.6824   22682132.5264  119195428.846 6  92879553.90443
      3027.293        2358.923
  23651122.219    23651121.5754   23651123.3564  124287467.676 6  96847388.40742
     -2939.522       -2290.539
  21716817.251    21716817.0344   21716818.7584  114122649.983 7  88926752.37845
      1391.228        1084.078
  22735438.591    22735438.4774   22735441.2654  119475554.581 6  93097845.37343
      3523.669        2745.700
  22363620.938    22363620.9084   22363623.7034  117521618.645 7  91575306.70945
       -26.733         -20.837
  22210547.645    22210547.6374   22210549.7064  116717222.974 7  90948513.77844
      2564.414        1998.252
 06  5  9 16 32 30.0000000  0 10G 3G 7G 8G10G15G16G21G26G27G29
  22901226.224    22901225.7464   22901229.6004  120346780.579 6  93776719.97843
      2268.121        1767.334
  22166441.456    22166441.7284   22166445.3594  116485423.451 7  90767879.69044
      -800.460        -623.744
  22443403.770    22443403.2124   22443406.6074  117940902.550 7  91902021.19244
      2285.770        1781.105
  21778415.335    21778414.9074   21778417.9544  114446335.757 8  89178976.40845
     -2442.143       -1902.965
  22664882.330    22664882.2044   22664885.8814  119104797.842 6  92808932.33443
      3013.999        2348.560
  23667938.816    23667938.1774   23667939.7834  124375838.972 6  96916249.15742
     -2952.639       -2300.723
  21708928.353    21708928.1204   21708929.6594  114081193.241 7  88894448.45945
      1371.970        1069.065
  22715357.343    22715357.1244   22715360.8424  119370029.393 6  93015618.04443
      3510.496        2735.425
  22363825.349    22363825.4644   22363828.2854  117522693.828 7  91576144.51645
       -45.290         -35.289
  22195948.453    22195948.0074   22195950.8364  116640504.214 7  90888732.95444
      2549.410        1986.552
 06  5  9 16 33  0.0000000  0 10G 3G 7G 8G10G15G16G21G26G27G29
  22888323.828    22888324.0384   22888327.6574  120278979.229 6  93723887.75943
      2251.268        1754.255
  22171063.356    22171063.0964   22171066.4984  116509710.369 7  90786804.63344
      -819.505        -638.573
  22430403.541    22430403.3414   22430406.2104  117872584.550 7  91848786.39344
      2268.157        1767.387
  21792402.715    21792402.2694   21792405.4664  114519840.845 7  89236253.09445
     -2458.760       -1915.928
  22647710.931    22647710.4814   22647714.3424  119014560.918 6  92738617.81643
      3000.906        2338.358
  23684829.036    23684828.8904   23684831.0244  124464597.271 6  96985411.45742
     -2965.426       -2310.686
  21701147.636    21701147.5374   21701149.0384  114040305.327 7  88862587.72645
      1353.031        1054.296
  22695351.818    22695352.0664   22695355.0084  119264899.522 6  92933698.75243
      3497.396        2725.195
  22364135.693    22364135.5334   22364138.3144  117524322.658 7  91577413.75645
       -63.863         -49.774
  22181434.111    22181433.8914   22181436.6804  116564231.435 7  90829299.65044
      2534.610        1974.988
 06  5  9 16 33 30.0000000  0 10G 3G 7G 8G10G15G16G21G26G27G29
  22875517.854    22875517.5934   22875520.9084  120211681.408 6  93671447.87043
      2235.371        1741.859
  22175792.672    22175792.4914   22175795.8724  116534563.358 7  90806170.57544
      -837.428        -652.537
  22417502.496    22417502.3474   22417505.6214  117804790.045 7  91795959.50844
      2251.566        1754.454
  21806483.884    21806483.6714   21806486.8424  114593838.079 7  89293913.26645
     -2474.280       -1928.016
  22630613.959    22630613.3874   22630617.5394  118924715.710 6  92668608.47643
      2988.761        2328.933
  23701791.003    23701791.0534   23701793.3524  124553734.745 6  97054869.14942
     -2977.064       -2319.782
  21693474.516    21693474.3434   21693475.7454  113999982.368 7  88831167.19845
      1334.991        1040.240
  22675421.122    22675421.1364   22675424.6254  119160162.964 6  92852085.95443
      3485.143        2715.702
  22364550.026    22364549.7484   22364552.5524  117526500.148 7  91579110.49645
       -81.280         -63.335
  22167004.042    22167004.2664   22167006.5444  116488401.717 7  90770211.60444
      2520.741        1964.214
 06  5  9 16 34  0.0000000  0 10G 3G 7G 8G10G15G16G21G26G27G29
  22862804.640    22862804.7824   22862807.9954  120144875.087 6  93619391.03343
      2218.450        1728.664
  22180626.871    22180626.5994   22180630.5654  116559967.105 7  90825965.69544
      -856.190        -667.184
  22404698.835    22404698.9374   22404701.7814  117737507.132 7  91743531.28244
      2233.971        1740.750
  21820656.026    21820655.3784   21820658.4304  114668310.942 7  89351944.05545
     -2490.636       -1940.765
  22613589.812    22613589.0474   22613592.5944  118835250.175 6  92598895.00143
      2975.582        2318.609
  23718822.415    23718822.0084   23718824.6874  124643234.367 6  97124609.00942
     -2989.598       -2329.585
  21685906.303    21685906.1254   21685907.6694  113960211.747 7  88800177.12245
      1316.220        1025.648
  22655562.628    22655563.5394   22655566.3364  119055808.353 6  92770770.78543
      3471.768        2705.279
  22365065.812    22365065.9684   22365068.7874  117529211.720 7  91581223.41145
       -99.508         -77.536
  22152655.905    22152656.1004   22152658.7554  116413002.593 7  90711459.05344
      2505.767        1952.530
 06  5  9 16 34 30.0000000  0 11G 3G 7G 8G10G15G16G18G21G26G27G29
  22850189.804    22850189.2194   22850192.1054  120078580.476 6  93567732.85243
      2201.200        1715.209
  22185569.327    22185568.7904   22185572.5504  116585939.075 7  90846203.61244
      -875.362        -682.115
  22391996.988    22391996.5124   22391999.4484  117670756.013 7  91691517.43244
      2216.079        1726.800
  21834920.930    21834920.5804   21834923.7014  114743275.175 7  89410357.74045
     -2507.139       -1953.608
  22596641.513    22596640.1024   22596644.0124  118746185.588 6  92529494.12043
      2962.070        2308.098
  23735924.724    23735926.1164   23735927.5074  124733111.737 6  97194643.22442
     -3002.159       -2339.245
  24909483.321                                   130900230.742 4
      3724.209
  21678447.290    21678446.9944   21678448.5824  113921012.944 8  88769632.55345
      1296.962        1010.602
  22635781.462    22635781.8054   22635784.7924  118951856.671 6  92689769.55443
      3458.219        2694.701
  22365686.921    22365686.9504   22365689.7124  117532475.479 7  91583766.60145
      -118.116         -92.040
  22138394.037    22138394.1364   22138396.4764  116338054.245 7  90653057.76044
      2490.761        1940.852
 06  5  9 16 35  0.0000000  0 11G 3G 7G 8G10G15G16G18G21G26G27G29
  22837672.367    22837672.5794   22837676.3594  120012804.649 6  93516478.99943
      2183.310        1701.309
  22190620.465    22190620.0734   22190623.6244  116612483.000 7  90866887.22344
      -894.836        -697.268
  22379396.931    22379396.6524   22379399.6264  117604543.619 7  91639923.37044
      2197.537        1712.363
  21849280.135    21849279.7584   21849282.6464  114818732.775 7  89469155.84745
     -2524.035       -1966.773
  22579770.216    22579769.3374   22579773.6604  118657528.439 6  92460410.54443
      2947.878        2297.033
  23753101.069    23753101.1864   23753104.6064  124823368.755 6  97264973.32642
     -3015.307       -2349.589
  24888234.321                                   130788569.248 4
      3719.521
  21671097.759    21671097.5674   21671098.9624  113882391.894 7  88739538.21945
      1277.084         995.124
  22616078.022    22616078.6604   22616082.3194  118848315.602 6  92609088.25043
      3444.076        2683.707
  22366413.952    22366414.0044   22366416.5224  117536295.858 7  91586743.51245
      -137.229        -106.923
  22124218.774    22124218.8154   22124221.5744  116263563.499 7  90595013.05844
      2474.776        1928.416
 06  5  9 16 35 30.0000000  0 11G 3G 7G 8G10G15G16G18G21G26G27G29
  22825252.867    22825252.7814   22825255.6274  119947537.985 6  93465621.89243
      2166.657        1688.325
  22195777.800    22195777.6634   22195781.5324  116639586.512 7  90888006.86444
      -913.149        -711.544
  22366897.657    22366897.4274   22366900.6704  117538860.359 7  91588741.62544
      2180.293        1698.931
  21863730.488    21863729.7304   21863733.3844  114894670.212 7  89528327.86545
     -2539.472       -1978.799
  22562975.073    22562975.0764   22562979.0264  118569270.218 6  92391637.92743
      2934.902        2286.930
  23770346.161    23770345.9034   23770348.3524  124913990.874 6  97335587.88642
     -3027.265       -2358.944
  24867007.762                                   130677023.024 5
      3715.904
  21663856.528    21663856.2604   21663857.6644  113844338.594 7  88709886.36545
      1258.673         980.787
  22596451.515    22596451.8794   22596455.1104  118745176.636 6  92528720.30343
      3430.913        2673.417
  22367244.588    22367244.5864   22367247.3984  117540661.068 7  91590144.97745
      -154.909        -120.719
  22110129.081    22110128.9994   22110131.7954  116189520.695 7  90537317.36744
      2460.264        1917.088
 06  5  9 16 36  0.0000000  0 11G 3G 7G 8G10G15G16G18G21G26G27G29
  22812931.445    22812931.9284   22812934.9874  119882790.708 7  93415169.43743
      2149.350        1674.803
  22201043.412    22201042.9624   22201046.7444  116667256.744 7  90909568.09244
      -932.103        -726.330
  22354501.394    22354501.2004   22354503.9824  117473716.820 7  91537980.43244
      2162.137        1684.754
  21878273.588    21878272.8884   21878276.0984  114971093.009 7  89587878.08745
     -2555.839       -1991.592
  22546257.499    22546257.3424   22546261.4484  118481421.398 6  92323184.41643
      2921.207        2276.271
  23787660.805    23787661.1014   23787662.7294  125004983.555 5  97406491.23141
     -3039.271       -2368.269
  24845805.483                                   130565602.296 4
      3711.813
  21656725.168    21656724.6944   21656726.3254  113806862.605 7  88680684.36945
      1239.258         965.643
  22576903.366    22576903.2614   22576907.0304  118642450.674 6  92448674.15243
      3417.062        2662.597
  22368180.832    22368180.3064   22368183.2464  117545579.185 7  91593977.28245
      -173.465        -135.176
  22096126.288    22096126.4984   22096128.8264  116115936.046 7  90479978.66444
      2444.823        1905.020
 06  5  9 16 36 30.0000000  0 11G 3G 7G 8G10G15G16G18G21G26G27G29
  22800708.422    22800708.7664   22800710.8204  119818556.677 6  93365116.98543
      2132.472        1661.646
  22206414.884    22206414.5724   22206418.1264  116695483.930 7  90931563.24644
      -950.322        -740.548
  22342206.413    22342206.4874   22342209.1404  117409106.599 7  91487634.81544
      2144.511        1671.032
  21892906.157    21892905.9624   21892909.2724  115047990.445 7  89647798.14845
     -2571.429       -2003.726
  22529617.502    22529616.9374   22529620.8034  118393975.831 7  92255045.03843
      2907.945        2265.917
  23805044.642    23805044.5494   23805047.8064  125096335.774 5  97477674.69941
     -3051.186       -2377.547
  24824625.957                                   130454300.389 5
      3707.803
  21649702.056    21649701.6634   21649703.2344  113769956.122 8  88651926.09345
      1220.530         951.047
  22557432.557    22557433.1244   22557435.9284  118540132.185 6  92368945.49843
      3403.490        2652.045
  22369220.193    22369219.7844   22369222.6654  117551041.322 7  91598233.50245
      -191.359        -149.127
  22082209.128    22082209.8634   22082212.0564  116042802.992 7  90422991.85744
      2430.047        1893.494
 06  5  9 16 37  0.0000000  0 11G 3G 7G 8G10G15G16G18G21G26G27G29
  22788582.343    22788582.3594   22788584.6004  119754832.319 6  93315461.65143
      2115.322        1648.303
  22211890.946    22211891.1114   22211894.2934  116724262.215 7  90953987.89444
      -968.719        -754.876
  22330012.409    22330012.2334   22330014.9874  117345026.529 7  91437702.30644
      2126.819        1657.229
  21907628.561    21907627.8744   21907631.1814  115125354.601 7  89708081.89345
     -2586.871       -2015.756
  22513053.305    22513052.7964   22513056.3164  118306930.519 6  92187217.55143
      2894.385        2255.332
  23822495.809    23822494.8104   23822498.2224  125188039.432 5  97549132.21541
     -3062.998       -2386.696
  24803466.891                                   130343114.056 5
      3703.882
  21642786.229    21642786.3204   21642787.8324  113733615.584 8  88623608.84645
      1201.590         936.277
  22538039.444    22538039.2954   22538042.2764  118438218.756 6  92289532.50743
      3389.957        2641.520
  22370361.514    22370361.8774   22370364.6674  117557042.035 7  91602909.37645
      -209.354        -163.149
  22068377.759    22068378.0864   22068380.6014  115970118.133 7  90366354.30444
      2415.051        1881.855
 06  5  9 16 37 30.0000000  0 11G 3G 7G 8G10G15G16G18G21G26G27G29
  22776554.940    22776554.7594   22776558.1864  119691630.463 6  93266213.42343
      2097.433        1634.398
  22217474.025    22217474.0824   22217477.5234  116753601.183 7  90976849.39744
      -987.785        -769.685
  22317921.890    22317921.7354   22317924.5124  117281489.647 7  91388193.05144
      2108.333        1642.852
  21922440.844    21922440.2684   21922443.5194  115203193.994 7  89768735.94445
     -2602.961       -2028.276
  22496567.914    22496567.4484   22496571.2414  118220299.073 6  92119712.57343
      2880.278        2244.351
  23840013.798    23840014.0234   23840016.0624  125280101.798 5  97620869.13641
     -3075.206       -2396.223
  24782334.385                                   130232056.197 5
      3699.325
  21635981.234    21635981.0704   21635982.3484  113697852.991 7  88595741.90545
      1181.933         920.988
  22518724.966    22518725.8144   22518728.7524  118336724.141 6  92210445.86343
      3375.729        2630.411
  22371608.087    22371608.0874   22371610.8934  117563591.814 7  91608013.08545
      -228.018        -177.667
  22054634.216    22054634.2814   22054636.9604  115897894.164 7  90310075.88444
      2399.297        1869.596
 06  5  9 16 38  0.0000000  0 11G 3G 7G 8G10G15G16G18G21G26G27G29
  22764628.463    22764629.4044   22764632.4714  119628957.428 6  93217377.33243
      2080.374        1621.045
  22223164.211    22223164.1754   22223168.0284  116783503.563 7  91000149.90244
     -1006.109        -783.992
  22305935.612    22305935.4794   22305938.3804  117218502.001 7  91339111.77344
      2090.533        1628.969
  21937343.761    21937343.2304   21937346.3764  115281510.067 7  89829761.43845
     -2618.328       -2040.251
  22480162.275    22480161.9564   22480165.5434  118134087.959 6  92052535.18643
      2866.727        2233.802
  23857602.196    23857603.2304   23857603.4554  125372524.268 5  97692886.61241
     -3086.557       -2405.100
  24761225.267                                   130121132.791 5
      3695.283
  21629286.481    21629286.5434   21629287.8994  113662673.260 8  88568329.15345
      1162.908         906.168
  22499492.453    22499492.5984   22499495.8904  118235655.171 6  92131690.90443
      3361.880        2619.648
  22372959.613    22372959.9094   22372962.4394  117570694.457 7  91613547.61045
      -245.848        -191.566
  22040979.328    22040979.0094   22040981.8224  115826136.973 7  90254161.21544
      2384.080        1857.718
 06  5  9 16 38 30.0000000  0 11G 3G 7G 8G10G15G16G18G21G26G27G29
  22752801.088    22752800.6564   22752803.7404  119566801.251 6  93168943.96943
      2062.786        1607.331
  22228959.293    22228959.0004   22228962.7194  116813954.772 7  91023878.05344
     -1024.547        -798.348
  22294051.552    22294051.6094   22294054.6694  117156051.949 7  91290449.39544
      2072.271        1614.745
  21952334.497    21952334.1124   21952337.2474  115360286.490 7  89891145.63945
     -2633.867       -2052.356
  22463834.649    22463834.1794   22463837.6344  118048285.294 6  91985676.01243
      2852.837        2222.969
  23875254.638    23875254.7134   23875257.1594  125465290.386 5  97765171.88741
     -3098.343       -2414.282
  24740139.157                                   130010331.975 5
      3690.786
  21622700.666    21622700.4964   21622701.8934  113628063.658 7  88541360.65245
      1143.771         891.237
  22480338.505    22480339.0334   22480341.5884  118135000.585 6  92053258.83143
      3347.785        2608.660
  22374413.864    22374413.7824   22374416.6114  117578335.720 7  91619501.83145
      -264.072        -205.776
  22027411.010    22027411.1194   22027413.1224  115754834.768 7  90198601.09544
      2368.675        1845.710
 06  5  9 16 39  0.0000000  0 11G 3G 7G 8G10G15G16G18G21G26G27G29
  22741074.814    22741074.3024   22741077.8194  119505178.498 6  93120926.26243
      2044.847        1593.389
  22234860.869    22234860.8104   22234864.0394  116844968.239 7  91048044.34144
     -1043.377        -813.012
  22282273.237    22282273.0554   22282276.2264  117094155.941 7  91242218.73745
      2053.659        1600.271
  21967414.880    21967414.3844   21967417.8984  115439535.398 7  89952898.01045
     -2649.752       -2064.742
  22447588.040    22447587.5524   22447591.6404  117962908.687 6  91919148.82543
      2838.495        2211.812
  23892974.496    23892974.9984   23892977.1874  125558411.774 5  97837733.98741
     -3110.263       -2423.535
  24719081.907                                   129899670.395 5
      3686.024
  21616226.242    21616225.8714   21616227.2504  113594040.251 8  88514848.93745
      1124.094         875.928
  22461266.656    22461266.4574   22461269.6244  118034778.100 6  91975163.42843
      3333.240        2597.311
  22375972.914    22375973.1934   22375975.9434  117586529.765 7  91625886.79045
      -282.642        -220.225
  22013932.282    22013932.1864   22013934.8274  115684003.994 7  90143408.31544
      2352.924        1833.448
 06  5  9 16 39 30.0000000  0 11G 3G 7G 8G10G15G16G18G21G26G27G29
  22729451.453    22729451.1124   22729454.4614  119444098.200 6  93073331.24043
      2026.074        1578.745
  22240870.933    22240870.4824   22240874.3014  116876549.975 7  91072653.46544
     -1063.044        -828.340
  22270601.969    22270601.8234   22270604.9814  117032823.259 7  91194427.03244
      2034.270        1585.139
  21982586.766    21982585.9504   21982589.2104  115519261.545 7  90015022.25445
     -2666.155       -2077.532
  22431424.366    22431423.7134   22431427.4254  117877967.474 7  91852960.93643
      2823.176        2199.883
  23910763.243    23910762.4044   23910766.1604  125651892.803 5  97910576.35541
     -3122.945       -2433.544
  24698052.971    24698053.2594   24698060.7694  129789157.438 5 101134411.78541
      3680.002        2867.410
  21609865.137    21609864.7824   21609866.0784  113560611.488 7  88488800.59345
      1103.516         859.865
  22442279.406    22442279.6014   22442281.9184  117934997.783 6  91897412.56043
      3317.737        2585.244
  22377639.023    22377639.0104   22377641.5914  117595283.341 7  91632707.75545
      -301.774        -235.171
  22000545.219    22000544.7304   22000547.4914  115613653.619 7  90088589.87844
      2336.136        1820.353
 06  5  9 16 40  0.0000000  0 11G 3G 7G 8G10G15G16G18G21G26G27G29
  22717931.789    22717931.2274   22717934.7434  119383561.924 6  93026160.09743
      2008.519        1565.052
  22246988.472    22246988.2584   22246991.6964  116908698.324 7  91097704.04544
     -1081.316        -842.592
  22259038.296    22259038.0694   22259041.1744  116972055.791 7  91147075.75645
      2015.845        1570.785
  21997847.894    21997847.6294   21997850.6734  115599462.126 7  90077516.18745
     -2681.455       -2089.460
  22415343.245    22415343.4184   22415346.8764  117793463.858 7  91787114.00143
      2809.167        2188.953
  23928620.746    23928620.7234   23928623.8384  125745729.745 5  97983695.75541
     -3134.067       -2442.061
  24677050.772    24677049.3464   24677053.8684  129678794.585 5 101048414.86241
      3675.798        2864.257
  21603616.523    21603616.6484   21603618.1014  113527778.020 7  88463216.09245
      1084.257         844.873
  22423376.230    22423376.8354   22423379.3074  117835662.161 6  91820008.15843
      3303.509        2574.166
  22379410.973    22379410.6864   22379413.6374  117604595.449 7  91639963.93845
      -319.994        -249.346
  21987249.600    21987249.4594   21987251.5744  115543785.064 7  90034146.86144
      2320.586        1808.246
 06  5  9 16 40 30.0000000  0 11G 3G 7G 8G10G15G16G18G21G26G27G29
  22706513.114    22706512.6674   22706516.0734  119323555.844 7  92979402.11143
      1991.401        1551.731
  22253210.855    22253210.7884   22253214.2634  116941396.314 7  91123182.90544
     -1098.932        -856.312
  22247579.719    22247579.3514   22247582.3474  116911839.299 7  91100153.82145
      1998.102        1556.969
  22013196.690    22013196.0734   22013199.1824  115680118.371 7  90140365.18645
     -2695.946       -2100.745
  22399343.790    22399343.4504   22399347.5824  117709384.270 6  91721597.45743
      2795.766        2178.531
  23946541.459    23946542.6444   23946544.0584  125839903.978 5  98057077.94541
     -3144.733       -2450.496
  24656075.607    24656075.6774   24656079.6534  129568568.202 5 100962524.28041
      3672.115        2861.405
  21597479.171    21597479.0554   21597480.4304  113495525.126 8  88438083.98145
      1065.590         830.333
  22404555.389    22404556.0464   22404558.2604  117736757.830 7  91742939.87143
      3289.676        2563.383
  22381286.096    22381286.3034   22381288.8334  117614450.162 7  91647642.94045
      -337.430        -262.932
  21974042.645    21974043.0984   21974045.2184  115474384.205 7  89980068.29944
      2305.715        1796.637
 06  5  9 16 41  0.0000000  0 11G 3G 7G 8G10G15G16G18G21G26G27G29
  22695195.418    22695194.9354   22695198.0884  119264081.608 6  92933058.54843
      1973.551        1537.827
  22259537.338    22259537.3334   22259540.7144  116974642.575 7  91149089.01444
     -1117.373        -870.672
  22236225.713    22236225.9324   22236228.8634  116852175.738 7  91053662.73645
      1979.453        1542.436
  22028631.583    22028630.7274   22028633.9574  115761227.794 7  90203567.29345
     -2711.180       -2112.615
  22383425.043    22383424.6374   22383428.3314  117625730.895 6  91656413.05643
      2781.276        2167.221
  23964525.881    23964527.3354   23964528.0254  125934412.878 5  98130720.99741
     -3155.770       -2459.039
  24635125.867    24635125.8184   24635127.8124  129458480.085 5 100876741.34741
      3667.131        2857.583
  21591452.415    21591452.2174   21591453.3454  113463853.299 7  88413404.61545
      1045.962         815.040
  22385816.836    22385817.3034   22385820.1004  117638287.742 6  91666210.01543
      3274.991        2551.968
  22383264.541    22383264.4884   22383267.1454  117624846.613 7  91655744.06745
      -355.641        -277.108
  21960925.118    21960925.5984   21960927.7134  115405452.859 7  89926355.58144
      2289.760        1784.227
 06  5  9 16 41 30.0000000  0 11G 3G 7G 8G10G15G16G18G21G26G27G29
  22683978.840    22683979.0174   22683981.6294  119205139.054 6  92887129.29543
      1955.649        1523.876
  22265967.666    22265967.2964   22265970.8874  117008433.741 7  91175419.75644
     -1135.717        -884.986
  22224977.549    22224977.3154   22224980.3554  116793064.934 7  91007602.37745
      1960.745        1527.842
  22044151.374    22044150.9264   22044153.8384  115842785.842 7  90267119.01045
     -2726.467       -2124.527
  22367587.618    22367586.8664   22367590.4034  117542504.029 7  91591560.99944
      2766.892        2156.027
  23982573.405    23982573.2744   23982576.5724  126029251.196 5  98204620.74541
     -3166.978       -2467.759
  24614202.909    24614202.9614   24614206.3514  129348529.846 5 100791065.93241
      3662.621        2853.928
  21585535.894    21585535.5754   21585537.0074  113432761.685 8  88389177.35545
      1026.362         799.773
  22367161.806    22367161.9334   22367164.7414  117540252.302 6  91589818.82543
      3260.281        2540.502
  22385345.494    22385345.8094   22385348.4224  117635782.476 7  91664265.50445
      -373.890        -291.333
  21947897.559    21947897.8704   21947900.2114  115336990.657 7  89873008.43344
      2273.912        1771.867
 06  5  9 16 42  0.0000000  0 11G 3G 7G 8G10G15G16G18G21G26G27G29
  22672864.967    22672864.8574   22672867.7344  119146734.160 7  92841619.01343
      1937.394        1509.614
  22272502.079    22272502.2674   22272505.1054  117042773.083 7  91202177.65344
     -1154.209        -899.381
  22213835.565    22213835.5834   22213838.3774  116734513.016 7  90961977.51245
      1941.935        1513.211
  22059757.074    22059756.4914   22059759.5434  115924794.364 7  90331021.73245
     -2741.525       -2136.241
  22351832.357    22351832.1644   22351835.4124  117459710.441 7  91527046.54044
      2752.123        2144.532
  24000684.418    24000684.8024   24000684.8334  126124420.572 5  98278778.57641
     -3178.117       -2476.373
  24593308.477    24593306.3314   24593310.3904  129238724.142 5 100705503.18141
      3657.404        2849.826
  21579730.928    21579730.4984   21579731.8914  113402255.904 7  88365406.62645
      1006.627         784.392
  22348590.405    22348590.6304   22348593.0434  117442658.710 6  91513771.88444
      3245.395        2528.923
  22387529.879    22387530.0524   22387532.4354  117647261.322 7  91673210.04445
      -392.184        -305.606
  21934960.187    21934960.0774   21934962.4144  115269003.637 7  89820031.56244
      2257.867        1759.384
 06  5  9 16 42 30.0000000  0 11G 3G 7G 8G10G15G16G18G21G26G27G29
  22661852.620    22661852.9224   22661855.8534  119088864.930 6  92796526.09643
      1919.109        1495.368
  22279140.072    22279139.9144   22279143.2374  117077655.132 7  91229358.46244
     -1172.630        -913.733
  22202799.503    22202799.2614   22202802.0464  116676517.956 7  90916786.57245
      1922.925        1498.355
  22075447.055    22075446.3094   22075449.5364  116007246.530 7  90395270.15245
     -2756.706       -2148.081
  22336159.147    22336158.6964   22336162.3114  117377348.113 6  91462868.08644
      2737.373        2133.013
  24018855.772    24018854.7454   24018857.5234  126219913.957 5  98353188.90541
     -3189.382       -2485.253
  24572440.100    24572443.2764   24572442.1824  129129060.837 5 100620051.32341
      3652.199        2845.834
  21574036.774    21574036.4534   21574037.6874  113372332.812 7  88342089.96645
       986.875         768.994
  22330102.400    22330102.4384   22330105.4774  117345505.706 7  91438068.24844
      3230.204        2517.013
  22389816.995    22389816.9694   22389819.2724  117659278.563 7  91682574.11445
      -410.500        -319.869
  21922112.327    21922112.6364   21922114.8934  115201489.647 7  89767423.30944
      2241.716        1746.746
 06  5  9 16 43  0.0000000  0 11G 3G 7G 8G10G15G16G18G21G26G27G29
  22650944.289    22650944.3594   22650948.3474  119031542.901 6  92751859.58043
      1901.666        1481.823
  22285882.975    22285882.5764   22285886.1164  117113088.559 7  91256968.89444
     -1190.176        -927.405
  22191871.691    22191871.5774   22191874.2574  116619091.505 7  90872038.70445
      1904.848        1484.284
  22091223.026    22091222.5484   22091225.8564  116090149.620 7  90459869.95645
     -2770.729       -2159.021
  22320570.577    22320570.1894   22320573.3634  117295429.603 6  91399035.48144
      2723.267        2122.037
  24037091.135    24037091.2494   24037094.0544  126315738.304 5  98427857.09441
     -3199.464       -2493.115
  24551600.599    24551600.7864   24551604.9144  129019551.985 5 100534719.82841
      3647.597        2842.271
  21568455.585    21568455.1934   21568456.3474  113343003.201 7  88319235.69045
       967.857         754.182
  22311700.868    22311701.2054   22311704.4614  117248806.094 7  91362717.89544
      3215.800        2505.803
  22392207.976    22392208.1694   22392210.7624  117671843.846 7  91692365.23245
      -427.751        -333.316
  21909357.548    21909357.5224   21909359.8304  115134460.236 7  89715192.61744
      2226.367        1734.841
 06  5  9 16 43 30.0000000  0 11G 3G 7G 8G10G15G16G18G21G26G27G29
  22640139.224    22640139.0404   22640141.7714  118974759.672 6  92707612.93743
      1883.603        1467.769
  22292728.380    22292728.1964   22292731.8364  117149061.741 7  91284999.93344
     -1208.287        -941.505
  22181050.109    22181050.2074   22181053.3344  116562225.254 7  90827727.35645
      1885.918        1469.547
  22107082.232    22107081.8214   22107085.0804  116173490.577 7  90524810.93045
     -2785.655       -2170.628
  22305064.949    22305064.5064   22305068.6214  117213946.803 6  91335542.40944
      2708.496        2110.529
  24055385.442    24055385.4264   24055389.1304  126411880.203 5  98502772.74541
     -3210.362       -2501.603
  24530789.889    24530789.8214   24530789.6644  128910189.000 5 100449501.97541
      3642.482        2838.281
  21562985.210    21562985.0944   21562986.4714  113314257.653 8  88296836.54245
       948.119         738.798
  22293384.826    22293385.0294   22293387.5244  117152551.926 7  91287714.60244
      3200.609        2493.987
  22394701.145    22394701.2284   22394703.9604  117684945.977 7  91702574.68145
      -445.901        -347.451
  21896692.616    21896692.7174   21896695.0864  115067906.787 7  89663332.81544
      2210.091        1722.155
 06  5  9 16 44  0.0000000  0 11G 3G 7G 8G10G15G16G18G21G26G27G29
  22629439.956    22629440.0824   22629443.2854  118918535.461 6  92663801.88343
      1864.434        1452.796
  22299679.879    22299679.3534   22299682.9084  117185591.570 7  91313464.72444
     -1227.306        -956.332
  22170339.483    22170339.6144   22170342.0794  116505939.467 7  90783868.31645
      1866.129        1454.135
  22123028.125    22123027.5204   22123030.5044  116257285.371 7  90590105.56145
     -2801.031       -2182.625
  22289646.267    22289645.4114   22289649.3064  117132920.511 7  91272405.03844
      2692.876        2098.338
  24073743.881    24073744.6304   24073746.9954  126508355.199 5  98577948.04141
     -3221.663       -2510.315
  24510009.603    24510009.3084   24510013.7254  128800992.483 5 100364413.85141
      3636.789        2833.790
  21557629.918    21557629.7754   21557631.2274  113286115.815 7  88274907.86545
       927.561         722.769
  22275156.680    22275157.5024   22275159.9914  117056764.637 6  91213075.19344
      3184.774        2481.637
  22397300.111    22397300.1354   22397302.5934  117698603.089 7  91713216.58345
      -464.862        -362.226
  21884122.378    21884122.4124   21884124.7094  115001849.399 7  89611859.56144
      2193.265        1709.045
 06  5  9 16 44 30.0000000  0 11G 3G 7G 8G10G15G16G18G21G26G27G29
  22618845.699    22618845.7934   22618849.2104  118862862.111 6  92620420.04343
      1846.386        1438.721
  22306734.733    22306734.7884   22306738.4524  117222667.036 7  91342354.67244
     -1245.026        -970.164
  22159737.388    22159737.1624   22159740.3994  116450226.023 7  90740455.26545
      1847.458        1439.577
  22139057.667    22139057.1384   22139060.6884  116341521.436 7  90655744.02645
     -2815.243       -2193.698
  22274313.119    22274312.8824   22274315.8944  117052343.327 7  91209617.64544
      2678.295        2086.981
  24092163.961    24092164.4444   24092166.1804  126605150.490 5  98653372.82141
     -3231.966       -2518.398
  24489260.756    24489261.8314   24489263.1714  128691954.933 5 100279449.62541
      3631.926        2830.180
  21552388.074    21552387.7154   21552388.9774  113258568.382 7  88253442.35745
       908.190         707.680
  22257017.220    22257016.7324   22257019.9134  116961437.148 7  91138794.01844
      3169.905        2470.016
  22400002.526    22400002.5884   22400005.3344  117712804.819 7  91724282.86845
      -482.600        -376.057
  21871644.761    21871644.9924   21871647.2964  114936280.133 7  89560766.65544
      2177.415        1696.693
 06  5  9 16 45  0.0000000  0 11G 3G 7G 8G10G15G16G18G21G26G27G29
  22608356.869    22608356.9404   22608359.8184  118807741.978 6  92577469.29843
      1828.080        1424.474
  22313893.609    22313893.7524   22313897.3224  117260287.509 7  91371669.31944
     -1263.107        -984.244
  22149245.004    22149244.8174   22149247.7194  116395087.335 7  90697490.07445
      1828.403        1424.735
  22155170.590    22155170.1484   22155173.6564  116426196.686 7  90721724.72745
     -2829.737       -2204.985
  22259065.692    22259065.2834   22259068.7184  116972217.879 6  91147182.21944
      2663.289        2075.312
  24110643.882    24110644.1174   24110649.5364  126702264.025 5  98729045.67441
     -3242.472       -2526.591
  24468543.099    24468542.2384   24468545.5664  128583078.763 5 100194611.13341
      3626.404        2825.824
  21547259.255    21547258.9414   21547260.4854  113231617.005 8  88232441.26445
       888.437         692.300
  22238964.791    22238964.6514   22238967.4374  116866572.935 6  91064873.91044
      3154.359        2457.949
  22402808.738    22402808.6754   22402811.2624  117727550.789 7  91735773.23245
      -500.580        -390.049
  21859260.919    21859260.8934   21859262.9194  114871201.096 7  89510055.74844
      2161.091        1683.970
 06  5  9 16 45 30.0000000  0 11G 3G 7G 8G10G15G16G18G21G26G27G29
  22597973.749    22597973.5934   22597977.1114  118753179.021 6  92534952.69643
      1809.438        1409.948
  22321156.523    22321156.5614   22321160.2964  117298453.575 7  91401409.12444
     -1281.312        -998.430
  22138862.275    22138862.3874   22138865.4104  116340527.741 7  90654976.12945
      1809.050        1409.660
  22171367.833    22171366.9274   22171370.1234  116511310.913 7  90788047.47045
     -2844.424       -2216.434
  22243905.155    22243904.9744   22243908.2444  116892548.776 7  91085102.39544
      2647.974        2063.355
  24129185.319    24129183.8434   24129187.8004  126799694.872 5  98804965.85441
     -3253.111       -2534.851
  24447854.993    24447855.0374   24447856.6094  128474367.886 5 100109901.39641
      3620.575        2821.223
  21542244.658    21542244.3494   21542245.8844  113205264.927 7  88211907.18345
       868.445         676.712
  22221001.367    22221002.0354   22221004.8464  116772176.717 6  90991318.45244
      3138.624        2445.673
  22405718.687    22405718.6024   22405721.0914  117742842.754 7  91747689.04645
      -518.779        -404.247
  21846970.707    21846970.7474   21846972.8994  114806616.302 7  89459729.95745
      2144.558        1671.085
 06  5  9 16 46  0.0000000  0 11G 3G 7G 8G10G15G16G18G21G26G27G29
  22587695.874    22587695.9664   22587698.6874  118699169.315 6  92492867.25743
      1790.777        1395.422
  22328521.970    22328521.8564   22328525.3394  117337158.369 7  91431568.70044
     -1299.460       -1012.583
  22128589.761    22128589.3174   22128592.2764  116286542.953 7  90612910.07445
      1789.628        1394.521
  22187645.814    22187645.5264   22187648.7494  116596855.964 7  90854705.93245
     -2858.874       -2227.708
  22228830.848    22228830.2454   22228834.1374  116813332.786 7  91023375.64444
      2632.623        2051.409
  24147784.636    24147782.9134   24147787.2744  126897434.311 5  98881126.62341
     -3263.349       -2542.833
  24427199.588    24427199.9774   24427202.8804  128365819.040 5 100025317.93541
      3615.353        2817.048
  21537342.934    21537342.8754   21537344.2644  113179507.726 8  88191836.70945
       848.284         660.996
  22203127.589    22203127.2924   22203130.3594  116678245.600 7  90918125.40744
      3122.993        2433.502
  22408731.374    22408731.4744   22408734.0624  117758674.462 7  91760025.43045
      -536.999        -418.428
  21834773.825    21834773.5774   21834776.1404  114742521.760 7  89409786.19545
      2127.995        1658.182
 06  5  9 16 46 30.0000000  0 11G 3G 7G 8G10G15G16G18G21G26G27G29
  22577525.360    22577525.6204   22577528.4584  118645723.743 6  92451221.42543
      1772.141        1380.922
  22335991.489    22335990.8554   22335994.4354  117376409.164 7  91462153.70444
     -1317.414       -1026.542
  22118427.858    22118427.7884   22118430.8814  116233144.081 8  90571300.58845
      1770.151        1379.332
  22204007.910    22204007.8524   22204010.6694  116682837.991 7  90921704.89445
     -2873.366       -2238.993
  22213845.297    22213844.3234   22213848.1174  116734581.133 7  90962010.72744
      2617.314        2039.454
  24166443.698    24166441.9234   24166444.0724  126995488.041 5  98957532.08741
     -3273.435       -2550.629
  24406576.085    24406578.4104   24406577.7084  128257443.149 5  99940869.26141
      3609.724        2812.787
  21532556.697    21532556.2724   21532557.9054  113154354.416 8  88172236.75045
       828.300         645.424
  22185343.628    22185343.5734   22185345.8744  116584791.163 6  90845303.79444
      3107.117        2421.126
  22411848.322    22411847.9584   22411850.9474  117775054.148 7  91772788.81445
      -555.101        -432.531
  21822672.201    21822672.3774   21822674.9014  114678928.034 7  89360232.69545
      2111.394        1645.227
 06  5  9 16 47  0.0000000  0 11G 3G 7G 8G10G15G16G18G21G26G27G29
  22567461.312    22567461.1924   22567464.4594  118592835.284 7  92410009.66443
      1753.518        1366.395
  22343562.509    22343562.2614   22343565.8794  117416195.873 7  91493156.26544
     -1335.323       -1040.517
  22108376.907    22108376.7674   22108379.5854  116180324.192 7  90530142.25545
      1750.771        1364.228
  22220450.965    22220450.0274   22220453.7214  116769245.699 7  90989035.55645
     -2887.594       -2250.068
  22198946.373    22198945.7444   22198949.4514  116656287.826 7  90901002.99844
      2602.049        2027.577
  24185159.137    24185157.7434   24185160.3154  127093844.995 5  99034173.88541
     -3283.672       -2558.642
  24385984.694    24385984.3514   24385988.9134  128149233.616 5  99856550.20841
      3603.957        2808.197
  21527883.503    21527883.4524   21527884.8704  113129797.840 8  88153101.77745
       808.383         629.908
  22167649.050    22167649.3764   22167652.3394  116491807.435 7  90772848.94844
      3091.396        2408.902
  22415067.959    22415067.8984   22415070.3794  117791972.403 7  91785971.87345
      -573.088        -446.548
  21810664.508    21810664.7924   21810666.9654  114615828.180 7  89311064.01745
      2094.762        1632.273
 06  5  9 16 47 30.0000000  0 11G 3G 7G 8G10G15G16G18G21G26G27G29
  22557504.745    22557504.6104   22557507.2294  118540512.825 6  92369238.98543
      1733.961        1351.134
  22351236.612    22351236.2694   22351239.9874  117456524.827 7  91524581.41444
     -1353.895       -1054.986
  22098437.488    22098437.1874   22098440.2494  116128092.399 7  90489442.17145
      1730.687        1348.593
  22236976.090    22236975.5804   22236978.1924  116856083.743 7  91056701.52945
     -2902.320       -2261.540
  22184136.221    22184135.7434   22184139.9864  116578462.144 7  90840359.59244
      2585.740        2014.876
  24203934.268    24203934.3884   24203939.7284  127192509.102 5  99111054.87241
     -3294.861       -2567.394
  24365426.693    24365427.0604   24365428.1074  128041199.736 5  99772368.02041
      3597.322        2803.121
  21523325.510    21523325.7024   21523326.8154  113105845.927 7  88134437.94545
       787.876         613.923
  22150046.613    22150046.6124   22150049.6664  116399304.522 7  90700768.79344
      3074.837        2395.966
  22418391.123    22418390.9464   22418393.6394  117809435.829 7  91799579.73045
      -591.801        -461.119
  21798752.838    21798753.1394   21798755.3164  114553231.157 7  89262287.15545
      2077.726        1619.002
 06  5  9 16 48  0.0000000  0 11G 3G 7G 8G10G15G16G18G21G26G27G29
  22547656.940    22547656.6244   22547659.7194  118488761.709 6  92328913.50843
      1715.108        1336.463
  22359014.262    22359014.2244   22359018.2564  117497397.975 7  91556430.63744
     -1371.980       -1069.087
  22088610.898    22088610.7324   22088613.5844  116076453.811 7  90449204.32745
      1710.883        1333.155
  22253582.026    22253581.7164   22253584.9714  116943353.140 7  91124703.64845
     -2916.560       -2272.645
  22169416.498    22169416.4274   22169419.7214  116501110.238 7  90780085.40844
      2570.052        2002.651
  24222768.395    24222768.8234   24222771.4634  127291481.560 5  99188176.36841
     -3304.408       -2574.750
  24344903.370    24344903.7814   24344905.5454  127933347.407 5  99688327.30141
      3591.689        2798.748
  21518883.641    21518883.6444   21518884.8344  113082503.164 7  88116248.78845
       767.357         597.948
  22132536.344    22132536.5704   22132539.4034  116307288.814 7  90629068.24944
      3058.569        2383.320
  22421818.391    22421818.4954   22421821.2014  117827447.492 7  91813614.79145
      -610.046        -475.350
  21786937.506    21786937.7974   21786940.0734  114491142.263 7  89213906.23045
      2060.708        1605.740
 06  5  9 16 48 30.0000000  0 11G 3G 7G 8G10G15G16G18G21G26G27G29
  22537915.345    22537915.4174   22537918.4914  118437571.733 6  92289025.22343
      1696.696        1322.107
  22366893.610    22366893.0814   22366897.0354  117538802.194 7  91588693.68544
     -1389.242       -1082.520
  22078895.338    22078895.1154   22078897.9524  116025398.696 7  90409421.13345
      1691.921        1318.400
  22270269.080    22270268.3864   22270271.4204  117031039.768 7  91193030.85245
     -2929.956       -2283.062
  22154785.489    22154785.0034   22154789.0794  116424222.635 7  90720173.02944
      2554.887        1990.825
  24241657.955    24241658.2294   24241658.5714  127390747.360 5  99265526.30441
     -3314.119       -2582.325
  24324411.947    24324411.3014   24324415.0784  127825667.145 5  99604420.65741
      3586.119        2794.407
  21514555.475    21514555.4974   21514556.8394  113059758.811 8  88098525.91245
       747.961         582.839
  22115117.181    22115117.5514   22115120.2174  116215751.378 7  90557740.39844
      3042.986        2371.152
  22425348.318    22425347.8184   22425350.2994  117845994.959 7  91828067.36245
      -627.366        -488.846
  21775217.374    21775217.3524   21775219.9764  114429551.585 7  89165913.53145
      2044.526        1593.148
 06  5  9 16 49  0.0000000  0 11G 3G 7G 8G10G15G16G18G21G26G27G29
  22528281.317    22528281.0284   22528283.9524  118386943.416 7  92249574.57943
      1677.608        1307.215
  22374873.210    22374872.8204   22374876.4124  117580734.897 7  91621368.52144
     -1407.030       -1096.367
  22069290.913    22069290.8734   22069293.7374  115974927.305 7  90370092.79745
      1672.225        1303.048
  22287033.542    22287032.8674   22287036.1384  117119139.831 7  91261680.24344
     -2943.942       -2293.964
  22140242.897    22140242.5244   22140245.6694  116347800.208 7  90660623.08844
      2539.102        1978.543
  24260602.381    24260603.0784   24260604.9224  127490302.823 5  99343102.13841
     -3324.040       -2590.138
  24303953.851    24303952.0644   24303955.3584  127718159.848 5  99520648.75541
      3580.006        2789.593
  21510341.087    21510340.9784   21510342.2334  113037611.871 8  88081268.56445
       727.874         567.171
  22097789.557    22097789.7294   22097792.6664  116124693.648 7  90486786.36444
      3026.764        2358.521
  22428978.823    22428979.1744   22428981.7074  117865076.226 7  91842935.88045
      -645.333        -502.848
  21763591.713    21763591.9074   21763594.2334  114368459.338 7  89118309.21845
      2027.691        1580.043
 06  5  9 16 49 30.0000000  0 11G 3G 7G 8G10G15G16G18G21G26G27G29
  22518756.331    22518756.3564   22518759.0044  118336891.986 7  92210573.52243
      1658.537        1292.358
  22382955.164    22382955.1254   22382959.0154  117623207.708 7  91654464.20044
     -1424.883       -1110.290
  22059800.621    22059800.6524   22059803.3284  115925055.121 7  90331231.37645
      1652.256        1287.489
  22303879.229    22303878.7184   22303882.1524  117207664.007 7  91330660.09545
     -2957.952       -2304.881
  22125791.345    22125791.2834   22125794.7434  116271858.866 7  90601448.03144
      2523.239        1966.176
  24279605.193    24279605.3074   24279607.9544  127590158.137 5  99420911.58341
     -3333.586       -2597.569
  24283531.588    24283530.7714   24283533.8724  127610840.647 5  99437023.46941
      3574.001        2784.935
  21506243.135    21506243.0414   21506244.3624  113016076.881 7  88064488.06345
       707.500         551.296
  22080556.284    22080556.5624   22080559.2554  116034131.637 7  90416218.59644
      3010.421        2345.805
  22432714.412    22432714.0284   22432716.5114  117884704.091 7  91858230.31645
      -663.561        -517.051
  21752063.912    21752064.3374   21752066.4894  114307880.688 7  89071105.10245
      2010.631        1566.716
 06  5  9 16 50  0.0000000  0 11G 3G 7G 8G10G15G16G18G21G26G27G29
  22509341.689    22509341.5604   22509344.6024  118287416.238 7  92172021.03043
      1639.280        1277.328
  22391139.239    22391139.7694   22391143.4444  117666216.656 7  91687977.67244
     -1442.645       -1124.141
  22050423.884    22050424.0614   22050426.6954  115875781.099 7  90292836.05845
      1632.348        1271.953
  22320804.334    22320803.6754   22320807.1014  117296606.945 7  91399966.26844
     -2971.833       -2315.714
  22111432.201    22111431.5354   22111434.9614  116196398.169 7  90542647.53244
      2507.184        1953.635
  24298662.638    24298663.1734   24298664.9694  127690307.529 5  99498950.15241
     -3344.003       -2605.737
  24263145.436    24263144.1064   24263147.0264  127503708.994 5  99353544.31241
      3567.641        2779.943
  21502261.352    21502261.1924   21502262.3714  112995151.902 8  88048182.89945
       687.273         535.529
  22063417.421    22063417.0344   22063420.1914  115944065.341 7  90346037.08844
      2993.736        2332.766
  22436552.339    22436552.3014   22436555.1044  117904875.030 7  91873947.92845
      -681.605        -531.128
  21740633.635    21740633.9314   21740636.1184  114247814.546 7  89024300.34645
      1993.562        1553.406
 06  5  9 16 50 30.0000000  0 11G 3G 7G 8G10G15G16G18G21G26G27G29
  22500035.108    22500035.1144   22500038.2634  118238510.048 7  92133912.34144
      1619.878        1262.241
  22399424.578    22399424.2024   22399427.7984  117709752.680 6  91721901.81644
     -1460.853       -1138.326
  22041160.073    22041159.7754   22041163.0414  115827098.945 7  90254901.93045
      1612.098        1256.183
  22337807.946    22337807.0634   22337810.2774  117385958.181 7  91469590.58144
     -2985.955       -2326.707
  22097162.653    22097162.0534   22097165.8004  116121412.709 7  90484217.34644
      2490.712        1940.823
  24317774.595    24317775.4584   24317777.4684  127790740.634 5  99577209.81941
     -3353.545       -2613.140
  24242793.074    24242792.2194   24242796.0284  127396759.618 5  99270207.19241
      3560.849        2774.709
  21498394.258    21498394.0884   21498395.4014  112974830.179 8  88032347.78945
       666.495         519.351
  22046371.376    22046371.6224   22046374.3954  115854490.002 7  90276238.14144
      2976.740        2319.545
  22440492.904    22440492.7624   22440494.9954  117925580.833 7  91890082.31745
      -699.771        -545.268
  21729299.827    21729300.2544   21729302.4064  114188254.817 7  88977890.19445
      1975.986        1539.725
 06  5  9 16 51  0.0000000  0 11G 3G 7G 8G10G15G16G18G21G26G27G29
  22490839.863    22490840.1844   22490842.9864  118190189.342 6  92096259.81644
      1601.065        1247.580
  22407812.005    22407811.4694   22407815.2404  117753828.430 7  91756246.56644
     -1478.128       -1151.748
  22032012.193    22032011.8694   22032014.7364  115779025.019 7  90217441.74945
      1592.419        1240.860
  22354890.237    22354889.7304   22354892.9864  117475729.352 7  91539542.13444
     -2999.294       -2337.079
  22082986.898    22082986.6004   22082990.0754  116046919.067 7  90426170.38944
      2474.976        1928.565
  24336942.545    24336942.8364   24336942.0604  127891468.596 5  99655699.15241
     -3362.386       -2619.908
  24222479.562    24222480.0024   24222480.6554  127290008.456 5  99187024.48741
      3555.111        2770.250
  21494644.535    21494644.5794   21494645.9864  112955126.751 7  88016994.46645
       646.476         503.756
  22029422.524    22029422.6784   22029425.5664  115765422.430 7  90206834.87144
      2960.443        2306.868
  22444537.160    22444537.1684   22444539.7074  117946834.985 7  91906643.99045
      -717.430        -559.012
  21718065.672    21718065.7164   21718067.6084  114129217.416 7  88931887.05945
      1959.256        1526.700
 06  5  9 16 51 30.0000000  0 11G 3G 7G 8G10G15G16G18G21G26G27G29
  22481756.124    22481755.4944   22481758.5614  118142451.606 6  92059061.58844
      1581.619        1232.436
  22416300.519    22416300.4484   22416303.7754  117798438.217 7  91791007.47344
     -1495.797       -1165.552
  22022979.094    22022978.8154   22022981.5344  115731556.575 7  90180453.37545
      1572.273        1225.149
  22372052.337    22372051.3854   22372054.4854  117565913.564 7  91609815.51444
     -3012.902       -2347.710
  22068904.569    22068903.9734   22068907.3534  115972915.250 7  90368505.12944
      2458.671        1915.865
  24356165.076    24356164.1764   24356165.1184  127992484.399 5  99734412.80941
     -3372.019       -2627.576
  24202202.399    24202201.3654   24202204.9394  127183453.771 5  99103994.91541
      3548.424        2764.973
  21491012.369    21491012.1834   21491013.2614  112936038.049 7  88002120.16945
       626.129         487.899
  22012569.494    22012569.7234   22012572.6714  115676861.220 7  90137826.17544
      2943.531        2293.638
  22448685.103    22448685.0284   22448687.3724  117968632.381 7  91923628.97445
      -735.503        -573.126
  21706929.857    21706930.1204   21706932.2344  114070699.738 7  88886288.89445
      1941.990        1513.229
 06  5  9 16 52  0.0000000  0 11G 3G 7G 8G10G15G16G18G21G26G27G29
  22472781.488    22472780.8084   22472784.0524  118095290.287 7  92022312.55144
      1562.563        1217.571
  22424889.715    22424888.9284   22424893.0574  117843572.224 7  91826176.83644
     -1513.080       -1179.002
  22014060.286    22014059.7814   22014062.8994  115684687.010 7  90143931.65745
      1552.365        1209.631
  22389289.919    22389289.2084   22389292.5114  117656500.252 7  91680402.53244
     -3026.131       -2358.020
  22054914.270    22054913.5064   22054917.0814  115899395.416 7  90311216.96644
      2442.711        1903.402
  24375439.964    24375439.9464   24375441.5504  128093776.877 5  99813342.00041
     -3380.778       -2634.374
  24181962.495    24181964.0614   24181964.5594  127077089.746 5  99021113.91641
      3542.409        2760.295
  21487495.093    21487495.1374   21487496.6434  112917556.187 8  87987718.72145
       605.987         472.198
  21995812.218    21995812.9054   21995815.3364  115588800.695 7  90069207.61444
      2927.056        2280.800
  22452934.718    22452934.7524   22452937.1824  117990963.974 7  91941030.21245
      -753.256        -586.975
  21695892.141    21695892.0784   21695894.3734  114012695.014 7  88841090.43045
      1925.071        1500.030
 06  5  9 16 52 30.0000000  0 12G 3G 7G 8G10G15G16G18G19G21G26G27G29
  22463916.621    22463916.7784   22463919.5924  118048706.110 7  91986013.22744
      1542.780        1202.179
  22433577.384    22433577.3484   22433580.6394  117889228.334 7  91861753.03544
     -1530.923       -1192.933
  22005254.997    22005254.9324   22005257.8644  115638417.116 7  90107877.21145
      1532.000        1193.756
  22406604.080    22406603.3324   22406606.7864  117747486.094 7  91751300.55844
     -3039.826       -2368.699
  22041016.249    22041015.8524   22041019.2274  115826361.243 7  90254307.24444
      2426.013        1890.396
  24394767.882    24394769.7074   24394769.0114  128195342.609 5  99892484.20841
     -3390.564       -2641.989
  24161757.881    24161758.3854   24161759.6834  126970917.468 5  98938382.29541
      3535.463        2754.874
  24709964.431    24709964.1164   24709965.6584  129851774.109 5 101183181.88741
      3409.851        2657.005
  21484094.018    21484093.8704   21484095.0944  112899682.006 8  87973790.80445
       585.428         456.167
  21979150.504    21979150.8954   21979153.6304  115501242.827 7  90000980.74344
      2909.842        2267.426
  22457285.664    22457285.7004   22457288.1374  118013828.327 7  91958846.59345
      -771.360        -601.078
  21684951.571    21684952.0544   21684954.2984  113955204.261 7  88796292.47145
      1907.488        1486.353
 06  5  9 16 53  0.0000000  0 12G 3G 7G 8G10G15G16G18G19G21G26G27G29
  22455162.141    22455162.0824   22455164.9624  118002699.810 7  91950164.08044
      1523.459        1187.080
  22442363.929    22442364.1484   22442367.6834  117935404.217 7  91897734.26144
     -1548.088       -1206.294
  21996564.702    21996564.3354   21996567.3714  115592747.947 7  90072290.86545
      1511.850        1178.057
  22423993.403    22423992.7084   22423995.9734  117838867.704 7  91822506.99544
     -3052.975       -2378.956
  22027210.741    22027210.5894   22027214.0774  115753814.229 7  90197777.12144
      2409.737        1877.687
  24414145.747    24414147.1114   24414149.0694  128297177.655 5  99971836.02241
     -3399.212       -2648.699
  24141590.469    24141592.1444   24141593.7224  126864938.477 5  98855801.29541
      3529.331        2750.125
  24690517.536    24690517.8554   24690518.4824  129749577.478 5 101103548.24641
      3402.430        2651.259
  21480807.992    21480807.8794   21480809.1864  112882414.588 8  87960335.68245
       565.107         440.332
  21962584.634    21962585.0724   21962587.9524  115414189.740 7  89933147.21344
      2893.139        2254.364
  22461737.576    22461737.5864   22461740.0234  118037223.976 7  91977076.96845
      -789.178        -614.946
  21674109.892    21674109.8364   21674111.5964  113898228.419 7  88751895.73145
      1890.320        1472.967
 06  5  9 16 53 30.0000000  0 12G 3G 7G 8G10G15G16G18G19G21G26G27G29
  22446518.949    22446519.2074   22446522.2254  117957280.477 7  91914772.31044
      1503.735        1171.766
  22451251.685    22451250.6164   22451254.9144  117982105.507 6  91934124.87644
     -1565.864       -1220.151
  21987989.886    21987989.8664   21987992.6014  115547688.106 7  90037179.32345
      1491.346        1162.095
  22441458.630    22441458.5394   22441461.3474  117930649.788 7  91894025.46944
     -3066.498       -2389.484
  22013500.123    22013499.4084   22013502.9514  115681763.516 7  90141633.74344
      2392.971        1864.659
  24433576.782    24433576.0824   24433578.7624  128399286.603 5 100051401.44341
     -3408.331       -2655.768
  24121462.211    24121462.6244   24121464.5714  126759162.235 5  98773378.27841
      3522.260        2744.600
  24671115.259    24671114.4974   24671114.4304  129647617.525 5 101024098.96041
      3394.354        2644.969
  21477638.985    21477638.9864   21477640.3114  112865762.198 8  87947359.80745
       544.388         424.211
  21946116.982    21946117.4644   21946120.0784  115327651.083 7  89865714.54444
      2875.642        2240.757
  22466291.911    22466291.8074   22466294.4144  118061157.112 7  91995726.16045
      -807.197        -628.981
  21663367.196    21663367.3204   21663369.3064  113841775.886 7  88707906.76245
      1872.522        1459.113
 06  5  9 16 54  0.0000000  0 12G 3G 7G 8G10G15G16G18G19G21G26G27G29
  22437987.352    22437987.2794   22437990.2544  117912446.459 7  91879836.68844
      1484.778        1156.996
  22460237.671    22460236.8724   22460240.6444  118029327.582 7  91970921.32444
     -1582.764       -1233.326
  21979531.033    21979530.9954   21979533.7654  115503236.541 7  90002541.76245
      1471.552        1146.675
  22458999.845    22458999.0894   22459002.2564  118022826.682 7  91965851.61444
     -3079.219       -2399.388
  21999883.644    21999883.3134   21999886.7734  115610208.742 7  90085876.77844
      2376.832        1852.083
  24453058.716    24453056.6724   24453061.5264  128501663.788 5 100131175.81641
     -3416.871       -2662.500
  24101371.968    24101372.6664   24101373.2194  126653588.047 5  98691112.71241
      3515.652        2739.500
  24651757.566    24651756.9944   24651757.1724  129545893.887 5 100944833.76341
      3387.157        2639.409
  21474586.895    21474586.8484   21474588.0244  112849722.386 8  87934861.28045
       524.317         408.562
  21929746.937    21929747.2774   21929750.3244  115241626.692 7  89798682.61844
      2858.745        2227.586
  22470947.930    22470947.8104   22470950.4224  118085623.989 7  92014791.26645
      -824.382        -642.380
  21652724.230    21652724.1784   21652726.0294  113785845.667 7  88664324.79245
      1855.443        1445.794
 06  5  9 16 54 30.0000000  0 12G 3G 7G 8G10G15G16G18G19G21G26G27G29
  22429565.897    22429565.8764   22429568.5934  117868191.271 6  91845352.15144
      1465.053        1141.597
  22469320.696    22469320.6514   22469324.3764  118077061.078 7  92008116.27544
     -1600.040       -1246.774
  21971186.873    21971186.5174   21971189.4124  115459386.766 7  89968373.12345
      1451.083        1130.719
  22476613.088    22476612.7294   22476616.1814  118115387.669 7  92037977.01244
     -3092.279       -2409.567
  21986360.478    21986359.9284   21986363.4594  115539144.417 7  90030501.98444
      2360.196        1839.115
  24472588.532    24472592.4104   24472593.3574  128604298.090 5 100211150.58341
     -3425.780       -2669.439
  24081319.262    24081319.2854   24081321.6614  126548209.918 6  98608999.91841
      3508.929        2734.313
  24632443.526    24632443.8354   24632443.1814  129444401.159 5 100865748.54141
      3378.871        2632.792
  21471649.810    21471649.6734   21471650.7174  112834287.768 7  87922834.32545
       503.992         392.733
  21913473.952    21913474.4434   21913476.6334  115156111.193 7  89732047.22444
      2841.544        2214.201
  22475703.639    22475703.6824   22475706.2224  118110615.716 7  92034265.33845
      -842.334        -656.346
  21642178.806    21642178.8734   21642180.8234  113730431.176 7  88621144.68345
      1838.067        1432.275
 06  5  9 16 55  0.0000000  0 12G 3G 7G 8G10G15G16G18G19G21G26G27G29
  22421256.295    22421256.1514   22421259.0574  117824523.874 7  91811325.67944
      1445.262        1126.178
  22478502.478    22478502.3374   22478505.8764  118125311.558 6  92045714.04244
     -1617.438       -1260.334
  21962958.496    21962958.4324   21962961.2474  115416147.611 7  89934680.29145
      1430.609        1114.764
  22494301.346    22494300.6624   22494303.9074  118208337.634 7  92110405.54844
     -3105.279       -2419.691
  21972932.823    21972932.1164   21972935.6744  115468580.091 7  89975516.84344
      2343.316        1825.967
  24492169.997    24492169.2764   24492172.6744  128707194.088 5 100291329.18041
     -3434.785       -2676.493
  24061305.556    24061305.2824   24061307.2754  126443037.607 5  98527047.52741
      3501.736        2728.642
  24613176.113    24613176.4914   24613177.7784  129343149.375 5 100786851.06141
      3370.290        2626.163
  21468829.391    21468829.2394   21468830.4574  112819466.455 7  87911285.27445
       483.379         376.672
  21897300.052    21897299.9454   21897302.7804  115071114.643 7  89665816.20744
      2824.110        2200.634
  22480560.417    22480560.5664   22480562.9474  118136138.967 7  92054153.59345
      -860.139        -670.229
  21631733.588    21631734.0314   21631736.0684  113675541.370 7  88578373.41345
      1820.415        1418.512
 06  5  9 16 55 30.0000000  0 12G 3G 7G 8G10G15G16G18G19G21G26G27G29
  22413060.423    22413060.4354   22413063.3594  117781455.192 7  91777765.73844
      1425.529        1110.799
  22487784.430    22487783.9764   22487787.6504  118174087.098 7  92083720.94144
     -1634.730       -1273.817
  21954848.839    21954848.5774   21954851.4874  115373530.362 7  89901472.06545
      1410.170        1098.850
  22512063.822    22512063.5804   22512066.9684  118301683.449 7  92183142.51344
     -3118.147       -2429.717
  21959601.961    21959601.4194   21959604.5854  115398527.241 7  89920930.26244
      2326.416        1812.800
  24511801.283    24511803.4724   24511804.0514  128810358.339 5 100371716.81841
     -3443.279       -2683.107
  24041333.896    24041333.0094   24041335.7914  126338082.486 6  98445264.34241
      3494.879        2723.281
  24593956.604    24593957.2144   24593956.3074  129242150.510 5 100708150.68141
      3362.253        2619.950
  21466127.675    21466127.4584   21466128.8644  112805268.691 8  87900222.09145
       462.720         360.573
  21881226.279    21881226.7274   21881229.4084  114986649.136 7  89599998.98744
      2806.630        2186.995
  22485520.300    22485520.1594   22485522.7784  118162202.362 7  92074462.73345
      -877.864        -684.024
  21621390.270    21621390.6384   21621392.8054  113621187.269 7  88536019.58245
      1802.740        1404.758
 06  5  9 16 56  0.0000000  0 12G 3G 7G 8G10G15G16G18G19G21G26G27G29
  22404978.789    22404978.8564   22404981.4304  117738984.934 6  91744671.99444
      1405.745        1095.405
  22497165.304    22497164.8864   22497168.4124  118223384.441 7  92122134.43344
     -1651.812       -1287.094
  21946857.373    21946857.1944   21946860.0554  115331535.116 7  89868748.50845
      1389.509        1082.746
  22529901.942    22529901.6974   22529905.1684  118395420.931 7  92256184.68144
     -3131.028       -2439.753
  21946368.856    21946368.2204   21946371.5304  115328986.448 7  89866742.62944
      2309.571        1799.685
  24531482.707    24531483.3624   24531486.2134  128913786.798 5 100452310.36941
     -3452.073       -2689.919
  24021402.554    24021401.9334   24021404.0724  126233345.542 6  98363651.21241
      3487.630        2717.633
  24574786.071    24574785.2124   24574787.4724  129141405.636 5 100629648.18241
      3353.649        2613.259
  21463544.581    21463544.0364   21463545.5834  112791693.726 8  87889644.20645
       442.282         344.638
  21865254.464    21865254.7324   21865257.0434  114902716.067 7  89534596.66944
      2788.918        2173.190
  22490582.266    22490582.3684   22490584.9754  118188803.861 7  92095191.17645
      -895.680        -697.929
  21611149.180    21611149.3144   21611151.4174  113567369.026 7  88494083.30845
      1785.121        1391.005
 06  5  9 16 56 30.0000000  0 12G 3G 7G 8G10G15G16G18G19G21G26G27G29
  22397009.555    22397010.4734   22397013.1604  117697108.957 6  91712041.30444
      1385.764        1079.810
  22506643.437    22506643.8294   22506647.7574  118273196.307 6  92160948.91344
     -1669.141       -1300.615
  21938983.198    21938983.0974   21938985.9134  115290156.876 7  89836505.73945
      1368.643        1066.480
  22547812.169    22547811.5974   22547815.3384  118489541.423 7  92329525.28744
     -3144.108       -2449.951
  21933232.079    21933232.2704   21933235.4124  115259954.362 7  89812951.40944
      2292.409        1786.308
  24551213.428    24551213.1634   24551217.6024  129017470.097 5 100533102.42341
     -3460.566       -2696.504
  24001512.863    24001512.7014   24001514.7574  126128822.903 5  98282205.06641
      3480.146        2711.779
  24555662.234    24555662.2764   24555663.2814  129040911.087 5 100551340.70241
      3345.256        2606.649
  21461078.692    21461078.4504   21461079.7334  112778735.800 8  87879547.13245
       421.520         328.452
  21849383.152    21849383.4244   21849386.2134  114819311.763 7  89469606.36544
      2770.926        2159.181
  22495745.344    22495745.3984   22495747.9284  118215936.184 7  92116333.24845
      -913.529        -711.823
  21601008.871    21601008.8874   21601011.3064  113514082.017 7  88452560.98245
      1767.026        1376.916
 06  5  9 16 57  0.0000000  0 12G 3G 7G 8G10G15G16G18G19G21G26G27G29
  22389154.866    22389154.5254   22389157.7154  117655829.231 7  91679875.41244
      1365.395        1063.910
  22516220.480    22516220.0754   22516223.9224  118323520.929 7  92200162.90444
     -1686.676       -1314.298
  21931226.873    21931226.8074   21931229.6444  115249397.707 8  89804745.36745
      1347.717        1050.164
  22565796.049    22565795.4924   22565798.5894  118584042.864 7  92403162.75644
     -3156.975       -2459.984
  21920193.500    21920193.1804   21920196.5314  115191433.774 7  89759558.79744
      2274.827        1772.600
  24570992.036    24570993.1304   24570997.6494  129121405.999 5 100614091.29041
     -3469.456       -2703.569
  23981664.106    23981664.1634   23981665.4964  126024517.034 6  98200927.80641
      3472.541        2705.901
  24536586.713    24536587.0984   24536587.4014  128940670.073 5 100473230.82141
      3336.267        2599.701
  21458730.113    21458730.2574   21458731.4894  112766395.936 8  87869931.66545
       400.431         312.001
  21833613.311    21833612.9754   21833615.7914  114736439.226 7  89405030.42444
      2752.850        2145.050
  22501009.451    22501009.4944   22501012.0694  118243599.314 7  92137888.93145
      -931.589        -725.911
  21590970.480    21590970.2304   21590972.6924  113461328.080 7  88411454.03345
      1748.932        1362.798
 06  5  9 16 57 30.0000000  0 12G 3G 7G 8G10G15G16G18G19G21G26G27G29
  22381412.624    22381412.7014   22381415.6444  117615145.697 6  91648174.02844
      1345.900        1048.784
  22525893.687    22525893.8354   22525897.7824  118374356.160 7  92239774.79244
     -1703.275       -1327.222
  21923588.534    21923588.6824   21923591.1154  115209258.180 7  89773467.83645
      1327.279        1034.228
  22583850.068    22583849.5744   22583853.0524  118678921.377 7  92477094.03544
     -3169.296       -2469.571
  21907251.673    21907251.1224   21907254.8344  115123425.474 7  89706565.32544
      2258.109        1759.560
  24590817.477    24590818.8004   24590820.9074  129225590.865 5 100695274.22641
     -3477.338       -2709.650
  23961856.518    23961856.7804   23961859.4504  125920429.243 6  98119820.44341
      3465.593        2700.462
  24517561.271    24517558.8314   24517560.6204  128840684.151 5 100395319.78541
      3328.198        2593.387
  21456499.776    21456499.3824   21456500.5384  112754673.400 8  87860797.22345
       380.242         296.299
  21817944.469    21817944.3924   21817947.1804  114654100.155 7  89340870.16944
      2735.399        2131.471
  22506374.215    22506374.0004   22506376.7474  118271791.131 7  92159856.57945
      -948.819        -739.351
  21581032.939    21581033.1114   21581035.2354  113409107.674 8  88370762.82245
      1731.447        1349.173
 06  5  9 16 58  0.0000000  0 12G 3G 7G 8G10G15G16G18G19G21G26G27G29
  22373783.896    22373784.1034   22373787.4004  117575057.157 7  91616936.17144
      1326.123        1033.342
  22535664.429    22535663.6214   22535667.2574  118425697.291 7  92279780.86344
     -1719.916       -1340.217
  21916068.217    21916068.1154   21916070.7314  115169737.244 7  89742672.31945
      1306.786        1018.265
  22601976.271    22601975.5624   22601978.7264  118774171.890 7  92551315.17644
     -3181.427       -2479.025
  21894407.499    21894407.0684   21894410.7544  115055929.376 7  89653971.00944
      2241.216        1746.389
  24610688.948    24610689.0794   24610691.9574  129330018.897 5 100776646.63041
     -3485.043       -2715.637
  23942090.530    23942090.2324   23942093.0914  125816559.202 6  98038882.80241
      3458.505        2694.903
  24498582.228    24498581.1214   24498582.1974  128740952.952 5 100317607.26941
      3319.909        2586.966
  21454386.074    21454385.9624   21454387.2094  112743566.274 8  87852142.32745
       359.870         280.401
  21802376.982    21802377.3074   21802379.6484  114572294.425 7  89277125.49944
      2717.803        2117.773
  22511838.597    22511838.6234   22511841.3344  118300507.605 7  92182233.05045
      -966.219        -752.891
  21571197.049    21571197.2704   21571199.3944  113357419.661 7  88330486.45145
      1713.920        1335.515
 06  5  9 16 58 30.0000000  0 12G 3G 7G 8G10G15G16G18G19G21G26G27G29
  22366268.477    22366267.8824   22366270.9274  117535559.720 7  91586158.95744
      1305.039        1016.914
  22545528.878    22545528.4144   22545532.2364  118477537.133 6  92320175.55244
     -1737.921       -1354.235
  21908664.435    21908664.4414   21908667.1894  115130830.384 7  89712355.30145
      1284.970        1001.266
  22620170.804    22620169.8814   22620173.3504  118869786.059 7  92625819.70244
     -3194.894       -2489.533
  21881660.109    21881659.9124   21881663.1954  114988941.757 7  89601772.91244
      2222.707        1731.971
  24630606.070    24630605.9704   24630612.0994  129434681.693 5 100858201.92841
     -3494.389       -2722.904
  23922365.439    23922365.4744   23922368.2684  125712903.375 6  97958112.09642
      3449.887        2688.241
  24479651.911    24479650.9294   24479652.7664  128641473.637 5 100240090.94441
      3310.145        2579.322
  21452388.373    21452388.3594   21452389.6544  112733069.536 8  87843963.06545
       338.061         263.410
  21786910.662    21786911.2024   21786913.0954  114491018.955 7  89213794.01844
      2698.699        2102.874
  22517402.202    22517401.9464   22517404.6254  118329742.252 7  92205013.28245
      -984.807        -767.404
  21561461.704    21561461.8284   21561463.9324  113306259.917 7  88290621.72145
      1694.825        1320.640
 06  5  9 16 59  0.0000000  0 12G 3G 7G 8G10G15G16G18G19G21G26G27G29
  22358868.139    22358868.0594   22358871.1734  117496671.818 6  91555856.69744
      1286.808        1002.745
  22555491.190    22555490.9334   22555494.4574  118529891.205 7  92360970.95144
     -1753.107       -1366.036
  21901381.168    21901381.0004   21901383.4834  115092556.140 7  89682531.22845
      1265.883         986.402
  22638437.306    22638436.9524   22638440.3654  118965778.572 7  92700619.01244
     -3205.448       -2497.740
  21869013.389    21869012.7214   21869016.1684  114922481.882 7  89549986.02844
      2207.047        1719.786
  24650570.776    24650572.1174   24650578.0084  129539593.342 5 100939951.18041
     -3500.412       -2727.722
  23902684.480    23902684.5984   23902686.1764  125609481.074 6  97877523.34642
      3444.028        2683.646
  24460774.034    24460772.3054   24460774.0544  128542265.889 5 100162786.20541
      3303.164        2573.810
  21450510.323    21450510.1144   21450511.4644  112723200.418 8  87836272.86145
       318.946         248.539
  21771549.058    21771549.3904   21771551.9724  114410293.504 7  89150891.12244
      2682.193        2090.022
  22523066.982    22523066.8974   22523069.4234  118359511.219 7  92228209.87245
     -1000.526        -779.617
  21551830.257    21551830.5564   21551832.9294  113255646.930 7  88251183.04245
      1678.386        1307.806
 06  5  9 16 59 30.0000000  0 12G 3G 7G 8G10G15G16G18G19G21G26G27G29
  22351581.193    22351581.4984   22351584.0854  117458378.919 6  91526018.05644
      1266.157         986.624
  22565548.325    22565548.5924   22565552.1654  118582741.816 6  92402153.25144
     -1770.199       -1379.362
  21894215.529    21894215.3514   21894217.9714  115054900.209 7  89653188.96245
      1244.471         969.713
  22656772.951    22656772.3284   22656775.7064  119062130.801 7  92775698.64944
     -3218.158       -2507.671
  21856464.545    21856463.8514   21856467.5514  114856536.476 7  89498600.03044
      2189.254        1705.910
  24670577.959    24670579.0844   24670577.7444  129644735.588 5 101021880.05841
     -3508.839       -2734.138
  23883046.008    23883045.8884   23883047.8884  125506278.790 6  97797106.03442
      3436.061        2677.478
  24441943.796    24441943.4814   24441945.2974  128443315.980 5 100085682.32741
      3293.564        2566.395
  21448749.248    21448748.6364   21448750.1144  112713943.750 7  87829059.87545
       298.039         232.237
  21756290.150    21756290.1854   21756292.5994  114330104.930 7  89088406.56844
      2663.633        2075.561
  22528830.227    22528830.0754   22528832.9004  118389798.080 7  92251810.01045
     -1018.624        -793.725
  21542300.516    21542300.5934   21542302.8034  113205566.365 7  88212159.23345
      1660.131        1293.615
 06  5  9 17  0  0.0000000  0 12G 3G 7G 8G10G15G16G18G19G21G26G27G29
  22344411.146    22344410.4784   22344413.6384  117420699.868 7  91496657.77544
      1245.599         970.613
  22575702.941    22575703.0894   22575706.8174  118636105.115 6  92443735.02944
     -1787.397       -1392.791
  21887170.830    21887170.8734   21887173.6634  115017881.590 7  89624343.30245
      1223.161         953.111
  22675179.271    22675178.9184   22675182.4964  119158858.024 6  92851070.46844
     -3230.612       -2517.340
  21844016.766    21844016.8614   21844019.9744  114791125.328 7  89447630.32744
      2171.366        1691.978
  24690633.947    24690634.3434   24690634.3334  129750123.126 4 101104000.14241
     -3517.116       -2740.540
  23863453.692    23863452.5884   23863453.8254  125403316.563 6  97716875.80442
      3427.965        2671.187
  24423167.960    24423166.8794   24423165.4414  128344644.761 5 100008795.68641
      3284.102        2559.029
  21447107.382    21447107.3304   21447108.5444  112705317.609 8  87822338.21345
       277.000         215.859
  21741136.635    21741136.9614   21741139.3074  114250473.452 7  89026356.10344
      2645.006        2061.042
  22534695.475    22534695.3164   22534698.0824  118420619.439 7  92275826.64344
     -1036.411        -807.594
  21532875.444    21532875.3454   21532877.8704  113156037.522 7  88173565.34845
      1641.678        1279.225
 06  5  9 17  0 30.0000000  0 12G 3G 7G 8G10G15G16G18G19G21G26G27G29
  22337355.395    22337355.5714   22337358.5184  117383623.960 7  91467767.45944
      1224.805         954.381
  22585953.054    22585953.1124   22585955.7584  118689967.340 6  92485705.59944
     -1804.615       -1406.188
  21880245.926    21880245.7124   21880248.5164  114981489.955 7  89595986.20245
      1201.578         936.302
  22693654.903    22693654.3904   22693657.0764  119255945.556 7  92926723.06844
     -3243.341       -2527.289
  21831669.758    21831668.8594   21831672.3884  114726238.620 7  89397069.28744
      2153.282        1677.895
  24710732.440    24710733.0864   24710734.9604  129855741.218 4 101186299.87741
     -3525.612       -2747.202
  23843903.902    23843904.6634   23843906.3044  125300584.570 6  97636824.93442
      3419.474        2664.564
  24404442.184    24404441.1264   24404443.0274  128246242.726 5  99932118.80841
      3274.261        2551.387
  21445583.734    21445583.5494   21445584.7974  112697310.835 8  87816099.18245
       255.757         199.294
  21726086.894    21726087.4744   21726089.9044  114171389.581 7  88964732.34945
      2626.118        2046.324
  22540659.511    22540659.6464   22540662.2664  118451962.298 7  92300249.64345
     -1054.452        -821.647
  21523553.170    21523553.3934   21523555.5194  113107049.452 7  88135392.83945
      1622.897        1264.591
 06  5  9 17  1  0.0000000  0 12G 3G 7G 8G10G15G16G18G19G21G26G27G29
  22330416.602    22330416.6954   22330419.4144  117347159.239 7  91439353.45844
      1204.662         938.720
  22596298.752    22596297.8724   22596301.9724  118744333.234 6  92528068.64543
     -1821.007       -1418.967
  21873441.475    21873441.5154   21873444.0704  114945733.055 7  89568123.69345
      1180.750         920.075
  22712199.044    22712198.3194   22712201.9404  119353397.169 7  93002659.35144
     -3254.875       -2536.254
  21819423.323    21819422.9404   21819426.4914  114661884.913 7  89346923.57444
      2135.665        1664.184
  24730874.282    24730874.5814   24730875.7974  129961593.575 4 101268782.19141
     -3532.623       -2752.702
  23824400.126    23824400.1804   23824401.8014  125198091.411 6  97556960.17542
      3412.010        2658.689
  24385769.935    24385768.9364   24385771.8104  128148118.564 5  99855658.41141
      3265.594        2544.599
  21444179.264    21444179.1274   21444180.7624  112689930.076 7  87810347.94845
       235.066         183.188
  21711144.062    21711144.3514   21711146.4454  114092862.349 7  88903542.32945
      2607.731        2032.003
  22546724.429    22546724.4704   22546726.7764  118483832.178 7  92325083.29344
     -1071.703        -835.072
  21514335.285    21514335.7794   21514337.7334  113058610.370 8  88097648.10845
      1605.076        1250.723
 06  5  9 17  1 30.0000000  0 12G 3G 7G 8G10G15G16G18G19G21G26G27G29
  22323593.304    22323593.6654   22323596.7624  117311304.633 7  91411414.78644
      1185.153         923.500
  22606738.904    22606739.0234   22606742.2904  118799198.860 6  92570821.08044
     -1837.124       -1431.513
  21866757.905    21866757.6444   21866760.6414  114910610.351 7  89540755.36845
      1160.269         904.117
  22730811.919    22730811.8084   22730814.8834  119451208.302 6  93078875.78544
     -3266.391       -2545.232
  21807278.733    21807278.4444   21807281.6924  114598064.310 7  89297193.27244
      2118.567        1650.833
  24751061.677    24751060.5294   24751064.9684  130067675.012 4 101351443.03441
     -3539.844       -2758.405
  23804941.810    23804941.7074   23804942.7254  125095837.663 6  97477281.98042
      3404.620        2652.966
  24367149.595    24367149.9254   24367150.6934  128050273.312 5  99779415.32941
      3257.025        2537.944
  21442893.662    21442893.2904   21442894.8034  112683173.728 7  87805083.26845
       214.904         167.466
  21696306.914    21696306.9134   21696309.4224  114014892.197 7  88842786.39945
      2589.737        2017.969
  22552888.410    22552888.4924   22552891.4374  118516225.736 7  92350325.00845
     -1088.460        -848.134
  21505222.248    21505222.3364   21505224.4584  113010719.341 7  88060330.43545
      1587.311        1236.894
 06  5  9 17  2  0.0000000  0 11G 3G 7G 8G10G15G18G19G21G26G27G29
  22316886.780    22316886.9434   22316889.5234  117276058.342 7  91383950.12944
      1164.493         907.365
  22617273.774    22617273.4534   22617277.3424  118854559.479 6  92613959.22143
     -1853.828       -1444.554
  21860194.435    21860194.2434   21860197.1294  114876119.344 8  89513879.26945
      1138.989         887.514
  22749491.837    22749491.4204   22749494.9544  119549372.855 6  93155367.61244
     -3278.197       -2554.439
  21795234.812    21795234.6854   21795238.1684  114534775.595 7  89247877.40944
      2100.512        1636.771
  23785528.824    23785527.9704   23785529.7104  124993822.120 6  97397789.39042
      3396.293        2646.431
  24348583.919    24348583.4284   24348586.3074  127952706.075 5  99703388.94441
      3247.197        2530.291
  21441726.169    21441725.7594   21441727.0954  112677038.643 8  87800302.67245
       193.991         151.164
  21681575.202    21681575.5114   21681578.2614  113937478.352 7  88782463.95345
      2571.004        2003.398
  22559151.874    22559151.7834   22559154.2864  118549138.548 7  92375971.33045
     -1105.944        -861.784
  21496213.015    21496212.7314   21496214.9624  112963374.554 8  88023438.40345
      1568.910        1222.530
 06  5  9 17  2 30.0000000  0 11G 3G 7G 8G10G15G18G19G21G26G27G29
  22310293.738    22310293.2504   22310295.7694  117241410.350 6  91356951.68244
      1144.457         891.790
  22627900.271    22627899.8894   22627903.8984  118910401.864 6  92657472.76743
     -1869.938       -1457.100
  21853749.353    21853749.2694   21853752.0314  114842250.224 7  89487487.76545
      1118.140         871.278
  22768236.820    22768236.4414   22768239.5114  119647877.266 7  93232124.25544
     -3289.578       -2563.314
  21783291.079    21783290.6374   21783294.0254  114472009.657 7  89198968.90944
      2082.978        1623.103
  23766159.066    23766160.0584   23766160.9684  124892035.773 6  97318475.38142
      3388.593        2640.472
  24330068.179    24330068.2814   24330069.2404  127855407.861 5  99627572.11241
      3238.182        2523.251
  21440674.952    21440674.8044   21440676.1784  112671513.948 7  87795997.71645
       173.512         135.205
  21666948.235    21666948.4334   21666950.9454  113860612.219 7  88722568.29345
      2552.577        1989.028
  22565511.633    22565511.6044   22565514.0444  118582558.807 7  92402013.06944
     -1122.913        -874.998
  21487305.427    21487305.6484   21487307.8414  112916566.266 7  87986964.41545
      1550.898        1208.484
 06  5  9 17  3  0.0000000  0 11G 3G 7G 8G10G15G18G19G21G26G27G29
  22303815.409    22303815.7584   22303818.6814  117207370.069 7  91330426.72144
      1124.572         876.305
  22638620.083    22638619.4184   22638622.8474  118966732.879 6  92701367.04943
     -1885.773       -1469.428
  21847424.435    21847424.3494   21847427.1184  114809012.908 7  89461588.56945
      1097.458         855.166
  22787047.484    22787046.9574   22787050.2724  119746727.447 7  93309150.34144
     -3300.712       -2571.990
  21771448.579    21771448.3024   21771451.4144  114409777.184 7  89150476.08044
      2065.594        1609.560
  23746835.471    23746835.0054   23746836.9454  124790489.190 6  97239348.21342
      3380.859        2634.437
  24311606.737    24311606.4104   24311607.0054  127758390.340 5  99551974.07641
      3229.261        2516.285
  21439741.514    21439741.2154   21439742.3884  112666608.608 8  87792175.35945
       153.255         119.427
  21652427.476    21652427.6384   21652430.0034  113784304.716 7  88663107.91945
      2534.292        1974.787
  22571968.937    22571969.2344   22571971.7864  118616493.789 7  92428455.87645
     -1139.647        -888.021
  21478502.226    21478502.2524   21478504.3754  112870304.162 7  87950916.03545
      1533.028        1194.568
 06  5  9 17  3 30.0000000  0 11G 3G 7G 8G10G15G18G19G21G26G27G29
  22297453.154    22297453.6204   22297456.4834  117173935.642 7  91304373.95044
      1103.945         860.202
  22649430.820    22649430.4804   22649434.4264  119023547.024 6  92745637.78643
     -1902.303       -1482.327
  21841219.385    21841219.3214   21841221.8354  114776404.880 7  89436179.74245
      1075.901         838.355
  22805922.650    22805922.0254   22805925.3344  119845917.035 7  93386440.90244
     -3312.410       -2581.098
  21759707.442    21759707.2954   21759710.4144  114348076.735 7  89102397.83544
      2047.335        1595.332
  23727557.416    23727557.7164   23727558.8504  124689181.239 6  97160406.99042
      3372.573        2627.993
  24293198.085    24293196.6824   24293198.1944  127661651.978 5  99476593.53241
      3219.654        2508.812
  21438925.165    21438925.0234   21438926.4704  112662319.479 8  87788833.19145
       132.197         103.020
  21638012.290    21638012.8954   21638014.9934  113708554.730 7  88604081.98145
      2515.182        1959.887
  22578523.773    22578523.9574   22578526.3964  118650938.604 7  92455295.97045
     -1157.114        -901.633
  21469802.425    21469802.3444   21469804.7234  112824586.065 7  87915291.54745
      1514.345        1180.004
 06  5  9 17  4  0.0000000  0 11G 3G 7G 8G10G15G18G19G21G26G27G29
  22291210.117    22291210.2954   22291213.4604  117141128.767 7  91278810.15044
      1082.767         843.730
  22660338.194    22660337.7954   22660341.4294  119080863.195 6  92790299.74843
     -1919.186       -1495.475
  21835138.052    21835137.9824   21835140.7264  114744448.365 8  89411278.56845
      1054.103         821.380
  22824865.712    22824865.3634   22824868.3784  119945464.017 7  93464009.96344
     -3324.491       -2590.523
  21748071.981    21748071.4234   21748074.8414  114286931.251 7  89054752.03144
      2028.589        1580.705
  23708328.679    23708327.3184   23708331.1764  124588134.856 6  97081669.56842
      3363.427        2620.858
  24274846.704    24274846.8304   24274848.5234  127565216.512 5  99401449.01941
      3209.050        2500.564
  21438230.270    21438230.0164   21438231.2704  112658667.117 8  87785987.18145
       110.826          86.352
  21623707.435    21623708.4824   21623710.7784  113633385.252 7  88545508.37845
      2495.573        1944.616
  22585178.913    22585178.8924   22585181.6934  118685912.940 7  92482548.68044
     -1174.882        -915.485
  21461210.474    21461210.1814   21461212.1724  112779433.957 7  87880108.09345
      1495.353        1165.199
 06  5  9 17  4 30.0000000  0 11G 3G 7G 8G10G15G18G19G21G26G27G29
  22285087.610    22285087.9964   22285090.5134  117108954.676 7  91253739.40444
      1061.633         827.260
  22671341.157    22671340.9844   22671344.6284  119138684.036 6  92835354.94243
     -1936.053       -1508.613
  21829181.974    21829182.1344   21829184.6864  114713148.810 7  89386889.31945
      1031.944         804.100
  22843877.170    22843876.6974   22843880.4484  120045370.318 7  93541859.00244
     -3336.491       -2599.870
  21736542.911    21736543.0484   21736545.9884  114226347.203 7  89007543.70344
      2009.775        1566.044
  23689150.947    23689151.2214   23689152.9724  124487356.555 6  97003141.06642
      3354.521        2613.952
  24256555.058    24256554.3014   24256556.6404  127469090.862 5  99326545.98241
      3198.729        2492.515
  21437657.216    21437657.2104   21437658.5824  112655656.405 8  87783641.15645
        89.259          69.542
  21609516.121    21609516.1654   21609518.3734  113558803.448 7  88487392.70345
      2475.861        1929.218
  22591936.026    22591935.8624   22591938.6604  118721420.559 7  92510216.91844
     -1192.877        -929.535
  21452726.884    21452726.8334   21452729.0114  112734853.645 8  87845370.18345
      1476.087        1150.195
 06  5  9 17  5  0.0000000  0 11G 3G 7G 8G10G15G18G19G21G26G27G29
  22279080.182    22279080.4564   22279083.0394  117077384.180 7  91229138.94744
      1041.471         811.530
  22682434.182    22682433.5464   22682437.3564  119196977.243 6  92880778.21743
     -1951.777       -1520.849
  21823345.588    21823345.2684   21823348.0454  114682476.878 7  89362989.12145
      1010.974         787.765
  22862950.806    22862950.6474   22862953.5604  120145602.950 7  93619962.31344
     -3347.323       -2608.302
  21725115.606    21725115.5604   21725118.7944  114166296.003 7  88960750.60144
      1991.938        1552.155
  23670019.171    23670019.5434   23670021.7004  124386818.442 6  96924799.69442
      3346.567        2607.722
  24238315.380    24238317.3054   24238317.3074  127373246.960 5  99251862.44141
      3189.406        2485.236
  21437200.678    21437200.5404   21437201.9124  112653257.213 8  87781771.63745
        68.888          53.669
  21595429.797    21595430.2604   21595432.7074  113484781.274 7  88429713.10445
      2457.192        1914.714
  22598788.600    22598788.0704   22598791.2474  118757429.861 7  92538276.09744
     -1209.558        -942.503
  21444346.710    21444346.7244   21444348.9914  112690815.879 7  87811055.04945
      1457.944        1136.051
 06  5  9 17  5 30.0000000  0 11G 3G 7G 8G10G15G18G19G21G26G27G29
  22273190.859    22273190.7104   22273193.4104  117046434.492 7  91205022.16044
      1022.118         796.455
  22693619.068    22693619.1124   22693622.4444  119255756.961 6  92926580.60243
     -1966.554       -1532.385
  21817631.422    21817631.3664   21817634.0934  114652449.823 7  89339591.43045
       990.913         772.138
  22882089.370    22882088.4644   22882092.4214  120246175.165 6  93698330.25644
     -3357.268       -2616.055
  21713793.138    21713792.6134   21713795.9914  114106795.850 7  88914386.86944
      1975.031        1538.967
  23650937.114    23650937.5244   23650938.6254  124286538.830 6  96846659.75742
      3339.165        2601.952
  24220133.949    24220134.0564   24220135.7494  127277703.324 5  99177412.84041
      3180.609        2478.358
  21436863.635    21436863.5974   21436864.7984  112651485.704 7  87780391.22745
        49.486          38.551
  21581453.849    21581454.1944   21581456.3074  113411336.968 7  88372483.78345
      2439.412        1900.836
  22605739.220    22605738.9574   22605741.7424  118793955.260 7  92566737.42044
     -1225.326        -954.819
  21436072.827    21436073.1474   21436075.1324  112647337.805 7  87777176.02545
      1440.746        1122.670
 06  5  9 17  6  0.0000000  0 11G 3G 7G 8G10G15G18G19G21G26G27G29
  22267417.444    22267416.9574   22267420.3454  117016094.059 7  91181380.22444
      1000.834         779.884
  22704894.084    22704893.9034   22704897.5904  119315008.241 6  92972750.43143
     -1983.164       -1545.325
  21812038.107    21812037.8184   21812040.5414  114623055.531 7  89316686.80345
       968.822         754.941
  22901289.395    22901288.6514   22901292.4494  120347071.253 6  93776950.54244
     -3368.946       -2625.152
  21702573.399    21702572.8584   21702576.0944  114047835.660 7  88868443.86944
      1956.065        1524.219
  23631901.333    23631901.8504   23631903.2124  124186506.391 6  96768712.41742
      3329.890        2594.710
  24202009.688    24202007.5444   24202010.3744  127182449.672 5  99103189.20042
      3169.948        2470.136
  21436643.676    21436643.3744   21436644.7874  112650329.183 8  87779490.03145
        27.969          21.793
  21567585.664    21567586.0664   21567588.4614  113338459.992 7  88315696.53945
      2419.335        1885.200
  22612785.149    22612784.8794   22612787.7044  118830982.397 7  92595589.71644
     -1242.964        -968.519
  21427903.609    21427903.9684   21427905.9444  112604407.707 8  87743724.01445
      1421.476        1107.653
 06  5  9 17  6 30.0000000  0 11G 3G 7G 8G10G15G18G19G21G26G27G29
  22261760.903    22261761.0654   22261763.4524  116986368.137 6  91158217.00844
       980.415         763.960
  22716260.086    22716259.6374   22716263.1814  119374734.036 6  93019289.98743
     -1999.004       -1557.666
  21806566.007    21806565.7204   21806568.5564  114594300.126 7  89294280.00945
       947.644         738.423
  22920551.510    22920550.4854   22920554.1694  120448293.433 6  93855824.94544
     -3379.693       -2633.526
  21691457.450    21691457.4324   21691460.5174  113989422.235 7  88822926.94144
      1937.755        1509.970
  23612914.615    23612914.8914   23612916.5084  124086728.916 6  96690963.72442
      3321.356        2588.036
  24183939.466    24183939.0494   24183940.2864  127087493.288 5  99029197.27542
      3160.072        2462.419
  21436541.472    21436541.3804   21436542.3994  112649792.249 7  87779071.63545
         7.281           5.684
  21553827.103    21553827.3084   21553829.6584  113266157.425 7  88259356.88345
      2400.187        1870.281
  22619927.366    22619927.1974   22619930.0874  118868515.130 7  92624835.98244
     -1259.670        -981.563
  21419839.642    21419839.8464   21419841.9514  112562031.645 7  87710703.72245
      1403.039        1093.284
 06  5  9 17  7  0.0000000  0 11G 3G 7G 8G10G15G18G19G21G26G27G29
  22256221.845    22256221.7564   22256225.0984  116957259.273 7  91135534.66844
       960.103         748.149
  22727715.117    22727715.1424   22727718.7794  119434933.839 6  93066198.92443
     -2014.448       -1569.713
  21801215.904    21801215.8544   21801218.6344  114566185.905 7  89272372.83145
       926.611         722.033
  22939875.209    22939874.5064   22939878.0384  120549840.510 6  93934952.51144
     -3390.206       -2641.716
  21680446.704    21680446.1644   21680449.6754  113931559.110 7  88777838.82444
      1919.613        1495.799
  23593977.021    23593976.6694   23593978.5644  123987209.685 6  96613416.28842
      3312.964        2581.554
  24165927.259    24165926.7774   24165928.1034  126992837.780 5  98955439.80242
      3150.174        2454.673
  21436557.547    21436557.3474   21436558.5804  112649876.660 8  87779137.40745
       -13.093         -10.214
  21540178.643    21540178.5954   21540180.9574  113194433.127 7  88203467.82845
      2381.196        1855.472
  22627165.759    22627166.1894   22627168.4544  118906553.544 7  92654476.28144
     -1276.265        -994.486
  21411881.695    21411881.8134   21411884.0024  112520212.322 8  87678117.25645
      1384.848        1079.098
 06  5  9 17  7 30.0000000  0 11G 3G 7G 8G10G15G18G19G21G26G27G29
  22250801.009    22250801.0684   22250803.6984  116928772.453 6  91113337.06344
       938.844         731.602
  22739261.045    22739261.1384   22739264.6494  119495609.439 6  93113478.63243
     -2030.681       -1582.354
  21795988.720    21795988.9114   21795991.5044  114538718.213 7  89250969.44145
       904.500         704.805
  22959260.543    22959260.4334   22959263.8344  120651713.472 7  94014333.99544
     -3401.461       -2650.498
  21669541.451    21669541.2494   21669544.5844  113874252.035 7  88733183.96944
      1900.649        1481.022
  23575088.612    23575089.4714   23575090.0054  123887954.200 6  96536074.36642
      3303.874        2574.471
  24147973.035    24147971.3074   24147973.5994  126898490.148 5  98881922.22742
      3139.468        2446.304
  21436692.744    21436692.3154   21436693.7804  112650586.299 8  87779690.37045
       -34.346         -26.756
  21526640.978    21526641.2994   21526643.6534  113123293.170 7  88148034.10545
      2361.356        1840.015
  22634500.820    22634501.0194   22634503.7644  118945100.579 7  92684512.90244
     -1293.714       -1008.089
  21404030.611    21404030.5654   21404032.8064  112478954.290 8  87645968.15845
      1365.596        1064.092
 06  5  9 17  8  0.0000000  0 11G 3G 7G 8G10G15G18G19G21G26G27G29
  22245499.567    22245499.4974   22245502.5614  116900914.282 7  91091629.32544
       917.712         715.106
  22750898.996    22750898.8614   22750902.2384  119556764.388 6  93161131.84143
     -2047.010       -1595.064
  21790886.303    21790886.4034   21790889.0304  114511903.119 7  89230074.57245
       882.636         687.781
  22978709.266    22978708.4664   22978712.2324  120753915.453 6  94093971.86644
     -3412.631       -2659.182
  21658743.681    21658743.1004   21658746.6344  113817508.493 7  88688968.23344
      1881.575        1466.158
  23556252.503    23556252.8374   23556254.7624  123788971.182 6  96458944.73542
      3294.222        2566.914
  24130080.059    24130077.9714   24130079.1234  126804458.201 5  98808650.67642
      3128.757        2438.016
  21436947.567    21436947.4844   21436949.1054  112651926.561 7  87780734.73245
       -55.630         -43.344
  21513216.061    21513216.4494   21513219.1154  113052745.289 7  88093061.73345
      2341.264        1824.369
  22641934.083    22641933.8724   22641936.6694  118984160.355 7  92714949.06844
     -1310.859       -1021.454
  21396287.558    21396287.6124   21396290.0284  112438264.622 8  87614261.93845
      1346.459        1049.173
 06  5  9 17  8 30.0000000  0 11G 3G 7G 8G10G15G18G19G21G26G27G29
  22240318.917    22240318.9064   22240322.2294  116873689.826 7  91070415.52544
       897.346         699.217
  22762627.948    22762628.0114   22762631.4244  119618400.950 6  93209160.32043
     -2062.219       -1606.933
  21785908.850    21785908.6094   21785911.4574  114485745.694 8  89209692.17645
       861.268         671.113
  22998220.218    22998220.1414   22998223.6464  120856447.691 6  94173867.08144
     -3422.886       -2667.186
  21648054.358    21648053.6404   21648057.0484  113761334.462 7  88645196.29444
      1863.445        1452.044
  23537470.117    23537470.4934   23537472.1804  123690266.564 6  96382032.03641
      3285.830        2560.434
  24112246.715    24112246.2084   24112247.5344  126710748.564 5  98735630.20542
      3118.555        2430.069
  21437323.400    21437323.2004   21437324.4814  112653901.679 8  87782273.79245
       -76.023         -59.242
  21499905.130    21499905.4414   21499907.8974  112982795.938 7  88038555.75445
      2322.000        1809.347
  22649464.856    22649464.6224   22649467.4794  119023735.516 7  92745786.84844
     -1327.392       -1034.322
  21388653.729    21388653.9174   21388655.8104  112398148.269 7  87583002.45545
      1328.053        1034.861
 06  5  9 17  9  0.0000000  0 11G 3G 7G 8G10G15G18G19G21G26G27G29
  22235254.629    22235254.6184   22235257.3024  116847076.878 7  91049678.25444
       876.368         682.898
  22774443.565    22774443.3194   22774447.2764  119680494.113 6  93257544.61143
     -2077.903       -1619.144
  21781052.029    21781052.1864   21781054.6424  114460224.128 8  89189805.25545
       839.692         654.315
  23017789.797    23017789.4314   23017793.0394  120959284.547 6  94253999.64744
     -3433.326       -2675.320
  21637468.809    21637468.3444   21637471.6904  113705708.964 7  88601851.76544
      1844.526        1437.306
  23518735.744    23518736.1654   23518738.1004  123591819.516 6  96305320.04042
      3276.688        2553.300
  24094472.160    24094470.9794   24094473.9674  126617340.811 5  98662845.01242
      3107.896        2421.750
  21437815.695    21437815.7764   21437816.8074  112656489.028 7  87784289.91745
       -96.865         -75.481
  21486704.044    21486704.5734   21486706.8334  112913424.507 7  87984500.10345
      2302.398        1794.087
  22657088.844    22657089.0354   22657091.8314  119063801.799 7  92777007.31244
     -1344.230       -1047.458
  21381124.734    21381124.8784   21381127.2434  112358583.494 8  87552172.77445
      1309.270        1020.218
 06  5  9 17  9 30.0000000  0 11G 3G 7G 8G10G15G18G19G21G26G27G29
  22230311.156    22230311.4464   22230314.5464  116821100.760 7  91029437.11944
       855.494         666.620
  22786351.166    22786350.7894   22786354.0114  119743066.647 6  93306302.41143
     -2093.428       -1631.251
  21776321.233    21776321.2384   21776324.0664  114435363.730 8  89170433.52645
       817.920         637.334
  23037421.087    23037420.5244   23037423.9094  121062448.182 6  94334386.83844
     -3443.899       -2683.566
  21626992.957    21626992.5154   21626995.9224  113650658.668 7  88558955.43344
      1825.670        1422.616
  23500056.672    23500056.2204   23500058.9304  123493657.291 6  96228829.95942
      3267.557        2546.156
  24076759.669    24076758.7514   24076760.2174  126524261.905 5  98590316.03942
      3097.387        2413.553
  21438429.219    21438429.2324   21438430.4104  112659713.282 8  87786802.31945
      -117.814         -91.793
  21473618.678    21473618.8384   21473620.9644  112844658.073 7  87930915.87445
      2282.446        1778.523
  22664811.701    22664811.5594   22664814.3414  119104383.108 7  92808629.09344
     -1361.017       -1060.511
  21373705.844    21373705.8344   21373708.1444  112319596.189 7  87521793.07045
      1290.219        1005.359
 06  5  9 17 10  0.0000000  0 11G 3G 7G 8G10G15G18G19G21G26G27G29
  22225488.192    22225488.2974   22225491.1554  116795754.360 7  91009686.70644
       834.010         649.904
  22798347.852    22798347.6684   22798350.3604  119806108.263 6  93355425.71643
     -2109.683       -1643.916
  21771714.994    21771714.8914   21771717.5934  114411157.297 7  89151571.37945
       795.522         619.888
  23057112.912    23057111.9594   23057115.2614  121165927.324 6  94415019.88943
     -3455.116       -2692.324
  21616625.390    21616625.0194   21616628.0694  113596177.132 7  88516502.30544
      1806.131        1407.365
  23481430.193    23481429.9694   23481431.9474  123395773.719 6  96152557.05542
      3257.710        2538.497
  24059108.780    24059106.8504   24059110.4564  126431506.059 5  98518038.73642
      3086.020        2404.705
  21439162.392    21439162.4044   21439163.4194  112663565.861 8  87789804.33045
      -139.335        -108.587
  21460646.518    21460646.6694   21460649.2104  112776490.336 8  87877798.16845
      2261.771        1762.406
  22672629.818    22672629.7964   22672632.5904  119145469.645 7  92840644.57544
     -1378.424       -1074.089
  21366395.128    21366395.2024   21366397.3364  112281178.973 7  87491857.59345
      1270.500         989.998
 06  5  9 17 10 30.0000000  0 11G 3G 7G 8G10G15G18G19G21G26G27G29
  22220786.607    22220786.4924   22220789.4514  116771047.056 6  90990434.29744
       812.341         632.971
  22810434.639    22810434.2704   22810437.6604  119869625.231 6  93404919.45443
     -2125.720       -1656.417
  21767234.861    21767234.8284   21767237.5204  114387614.292 8  89133226.19345
       773.212         602.490
  23076865.659    23076864.7874   23076868.3534  121269727.925 6  94495903.43543
     -3465.868       -2700.674
  21606368.048    21606367.6624   21606371.0464  113542274.620 7  88474500.34244
      1786.523        1392.080
  23462857.993    23462859.2654   23462860.4874  123298179.197 6  96076509.36842
      3247.727        2530.697
  24041521.464    24041521.1864   24041522.5794  126339084.717 6  98446022.15542
      3074.536        2395.771
  21440016.848    21440016.7054   21440017.8254  112668055.078 8  87793302.42245
      -160.756        -125.287
  21447790.654    21447790.8634   21447793.1494  112708932.029 7  87825155.32845
      2241.202        1746.387
  22680545.844    22680546.0794   22680548.7454  119187068.253 7  92873059.07444
     -1395.657       -1087.541
  21359194.883    21359194.9394   21359197.0844  112243341.372 8  87462373.76045
      1251.101         974.886
 06  5  9 17 11  0.0000000  0 11G 3G 7G 8G10G15G18G19G21G26G27G29
  22216205.231    22216205.3744   22216208.8334  116746973.791 7  90971675.89244
       791.949         617.088
  22822611.080    22822610.2924   22822613.4514  119933610.262 6  93454777.90743
     -2140.315       -1667.753
  21762879.886    21762880.0094   21762882.6734  114364729.907 7  89115394.21345
       751.992         585.960
  23096677.358    23096676.6444   23096680.3674  121373842.007 6  94577031.23343
     -3475.363       -2708.077
  21596220.486    21596220.0694   21596222.9854  113488947.617 7  88432946.84444
      1768.185        1377.807
  23444341.401    23444341.2764   23444343.1844  123200870.527 6  96000684.43342
      3239.124        2523.986
  24023998.225    24023997.1594   24023997.2944  126246994.796 5  98374263.83442
      3064.301        2387.809
  21440991.351    21440991.0074   21440992.1844  112673175.361 8  87797292.25345
      -180.993        -141.032
  21435050.168    21435050.2784   21435052.7664  112641979.795 7  87772984.76145
      2221.846        1731.298
  22688557.915    22688558.1614   22688560.8794  119229172.205 7  92905867.34344
     -1411.736       -1100.053
  21352104.131    21352104.1314   21352106.2294  112206078.995 8  87433338.15645
      1232.707         960.552
 06  5  9 17 11 30.0000000  0 11G 3G 7G 8G10G15G18G19G21G26G27G29
  22211743.846    22211743.4784   22211746.4834  116723526.305 7  90953405.18044
       770.504         600.388
  22834873.239    22834873.6034   22834876.5514  119998051.948 6  93504992.22543
     -2156.124       -1680.093
  21758649.038    21758648.8964   21758651.5464  114342495.445 7  89098068.67345
       729.668         568.570
  23116547.176    23116546.5174   23116550.0174  121478257.382 6  94658393.80343
     -3486.098       -2716.448
  21586180.546    21586180.3424   21586183.6794  113436188.530 7  88391835.87744
      1748.477        1362.449
  23425876.964    23425877.2414   23425879.2574  123103840.631 6  95925076.71442
      3229.011        2516.086
  24006534.544    24006535.0514   24006536.4674  126155229.413 6  98302758.45342
      3052.830        2378.808
  21442083.723    21442083.4694   21442084.9744  112678917.706 7  87801766.80645
      -202.428        -157.746
  21422423.131    21422423.6534   21422425.9244  112575626.594 7  87721280.98245
      2201.147        1715.180
  22696664.561    22696664.5084   22696667.1614  119271770.983 7  92939061.17544
     -1428.824       -1113.374
  21345121.414    21345121.3654   21345123.2744  112169383.542 7  87404744.30645
      1213.066         945.257
 06  5  9 17 12  0.0000000  0 11G 3G 7G 8G10G15G18G19G21G26G27G29
  22207403.028    22207402.9024   22207405.6634  116700715.248 7  90935630.30244
       749.342         583.891
  22847224.290    22847224.4954   22847228.0614  120062957.864 6  93555568.27843
     -2171.611       -1692.172
  21754543.878    21754543.6634   21754546.2444  114320921.687 7  89081257.96045
       707.736         551.470
  23136475.257    23136475.3344   23136478.5644  121582981.400 6  94739996.88243
     -3496.303       -2724.391
  21576251.294    21576250.6884   21576253.8334  113384009.210 7  88351176.69544
      1729.238        1347.449
  23407468.517    23407468.0134   23407470.0244  123007101.992 6  95849695.94742
      3219.384        2508.626
  23989136.733    23989136.5174   23989135.8744  126063800.710 5  98231515.34442
      3041.419        2369.995
  21443296.796    21443296.5654   21443297.6984  112685291.779 7  87806733.62045
      -223.285        -173.984
  21409913.110    21409913.4074   21409915.6374  112509884.430 7  87670053.32745
      2180.903        1699.402
  22704866.624    22704866.5294   22704869.5604  119314873.016 7  92972647.16244
     -1445.532       -1126.369
  21338248.358    21338248.3084   21338250.2644  112133265.771 7  87376600.60545
      1193.991         930.399
 06  5  9 17 12 30.0000000  0 11G 3G 7G 8G10G15G18G19G21G26G27G29
  22203183.010    22203183.3324   22203186.2734  116678540.365 7  90918351.25944
       728.833         567.920
  22859663.256    22859663.2824   22859667.0344  120128324.826 6  93606503.58143
     -2186.337       -1703.635
  21750564.035    21750563.8074   21750566.5574  114300008.452 8  89064961.94045
       686.461         534.909
  23156461.729    23156461.0954   23156465.0014  121688010.136 6  94821837.40343
     -3505.611       -2731.628
  21566432.123    21566431.9684   21566435.2884  113332410.037 7  88310969.58244
      1710.515        1332.858
  23389115.461    23389115.2734   23389116.7864  122910655.005 6  95774542.46942
      3210.163        2501.402
  23971802.077    23971802.3434   23971802.6774  125972710.050 5  98160535.71742
      3030.961        2361.796
  21444629.849    21444629.3654   21444630.5994  112692295.833 8  87812191.33745
      -243.715        -189.915
  21397519.200    21397519.5144   21397522.0844  112444754.134 7  87619302.46445
      2161.145        1684.016
  22713164.235    22713163.8424   22713166.6114  119358475.528 7  93006623.14044
     -1461.359       -1138.722
  21331485.150    21331485.1364   21331487.2374  112097725.392 8  87348906.82145
      1175.386         915.886
 06  5  9 17 13  0.0000000  0 11G 3G 7G 8G10G15G18G19G21G26G27G29
  22199082.390    22199082.6194   22199085.5634  116656992.912 7  90901561.13344
       707.583         551.360
  22872188.088    22872187.6934   22872191.1734  120194141.683 6  93657789.42543
     -2201.509       -1715.461
  21746708.723    21746708.3804   21746710.9404  114279747.343 7  89049174.07145
       664.299         517.629
  23176504.131    23176503.2624   23176507.1004  121793331.616 6  94903906.03243
     -3515.721       -2739.534
  21556722.030    21556722.0484   21556725.3704  113281383.896 7  88271208.97544
      1691.144        1317.786
  23370816.142    23370816.2094   23370818.0164  122814493.329 6  95699611.27143
      3200.487        2493.886
  23954531.918    23954530.5594   23954532.3134  125881950.738 6  98089814.21942
      3019.692        2353.040
  21446080.853    21446080.4454   21446081.4374  112699920.748 8  87818132.82745
      -264.666        -206.237
  21385240.343    21385240.6424   21385243.0994  112380228.895 7  87569023.07245
      2140.585        1667.995
  22721554.448    22721554.1234   22721557.0094  119402568.038 7  93040980.93044
     -1478.071       -1151.750
  21324830.028    21324830.2854   21324832.4904  112062754.282 8  87321656.61445
      1156.031         900.809
 06  5  9 17 13 30.0000000  0 11G 3G 7G 8G10G15G18G19G21G26G27G29
  22195103.057    22195102.6004   22195105.5144  116636080.090 7  90885265.47444
       686.485         534.915
  22884798.909    22884798.6154   22884801.8864  120260412.836 6  93709429.28543
     -2216.638       -1727.251
  21742978.433    21742978.4554   21742981.0794  114260145.717 8  89033900.08445
       642.281         500.475
  23196602.311    23196602.1964   23196605.2724  121898949.802 6  94986205.86443
     -3525.684       -2747.284
  21547122.791    21547122.4464   21547125.5824  113230939.008 7  88231901.29245
      1671.807        1302.703
  23352573.261    23352573.8794   23352574.7694  122718625.598 6  95624909.16043
      3190.720        2486.254
  23937325.342    23937324.7604   23937326.5964  125791532.036 5  98019358.13442
      3008.111        2343.953
  21447650.850    21447650.7554   21447651.8294  112708173.086 7  87824563.20445
      -285.533        -222.503
  21373078.380    21373078.7844   21373080.9964  112316317.231 7  87519221.79145
      2120.105        1652.032
  22730039.191    22730039.0474   22730042.1904  119447155.921 7  93075724.74044
     -1494.609       -1164.633
  21318285.078    21318285.2334   21318287.4304  112028360.028 7  87294855.91445
      1136.802         885.826
 06  5  9 17 14  0.0000000  0 11G 3G 7G 8G10G15G18G19G21G26G27G29
  22191244.800    22191244.8574   22191248.1634  116615805.224 7  90869467.00844
       664.969         518.139
  22897496.464    22897495.6774   22897499.1554  120327138.513 6  93761423.31743
     -2231.880       -1739.141
  21739374.193    21739374.1664   21739376.9334  114241206.041 8  89019141.90445
       620.012         483.090
  23216756.868    23216756.5834   23216759.9474  122004864.075 6  95068736.42443
     -3535.630       -2755.042
  21537634.340    21537634.7894   21537637.8814  113181079.320 7  88193049.60544
      1652.018        1287.260
  23334387.028    23334387.4684   23334389.2634  122623055.892 6  95550439.25843
      3180.508        2478.300
  23920185.173    23920183.9274   23920185.8094  125701458.460 5  97949170.96142
      2996.493        2334.932
  21449341.032    21449340.8224   21449342.2174  112717054.823 7  87831484.04045
      -306.732        -239.039
  21361034.366    21361034.2684   21361036.6984  112253023.402 7  87469901.93945
      2099.245        1635.751
  22738618.326    22738618.1194   22738620.9644  119492239.614 7  93110854.87344
     -1511.281       -1177.637
  21311850.630    21311850.6944   21311852.8524  111994545.818 7  87268507.20046
      1117.270         870.581
 06  5  9 17 14 30.0000000  0 11G 3G 7G 8G10G15G18G19G21G26G27G29
  22187507.952    22187507.9654   22187511.0504  116596168.806 7  90854165.98844
       643.839         501.688
  22910279.648    22910279.7474   22910283.3634  120394316.561 6  93813769.82043
     -2246.954       -1750.878
  21735896.507    21735896.2924   21735898.8514  114222929.498 8  89004900.44345
       598.126         466.076
  23236968.106    23236968.1874   23236970.9824  122111072.163 6  95151495.90943
     -3545.298       -2762.583
  21528258.810    21528258.4174   21528261.5234  113131806.905 7  88154655.54845
      1632.575        1272.129
  23316257.018    23316257.5034   23316259.5984  122527787.038 6  95476203.79543
      3170.424        2470.488
  23903110.028    23903109.6434   23903111.0044  125611733.046 6  97879255.12142
      2984.799        2325.790
  21451151.117    21451150.7124   21451152.0304  112726565.629 8  87838895.04045
      -327.514        -255.208
  21349107.909    21349107.9784   21349110.1094  112190349.814 7  87421065.39245
      2078.726        1619.787
  22747291.809    22747291.5084   22747294.4894  119537818.108 7  93146370.56144
     -1527.560       -1190.301
  21305526.695    21305526.5974   21305528.6414  111961312.598 8  87242611.19846
      1098.100         855.680
 06  5  9 17 15  0.0000000  0 11G 3G 7G 8G10G15G18G19G21G26G27G29
  22183892.969    22183893.1844   22183896.2284  116577172.861 7  90839363.94744
       622.333         484.947
  22923149.442    22923149.1174   22923152.8884  120461946.647 6  93866468.57443
     -2262.080       -1762.624
  21732545.017    21732544.9844   21732547.6664  114205318.482 8  88991177.58445
       575.881         448.746
  23257234.371    23257233.8544   23257237.8544  122217573.025 6  95234483.53843
     -3555.123       -2770.200
  21518994.578    21518994.5224   21518997.7344  113083124.958 7  88116721.59744
      1612.790        1256.750
  23298186.516    23298186.2344   23298188.1764  122432822.812 6  95402205.71043
      3160.124        2462.419
  23886103.367    23886102.3444   23886104.3204  125522359.232 6  97809613.16242
      2972.978        2316.603
  21453080.827    21453080.5144   21453081.6644  112736706.812 7  87846797.25345
      -348.570        -271.607
  21337299.905    21337300.2654   21337302.5294  112128300.046 7  87372714.94945
      2057.846        1603.525
  22756059.120    22756059.1224   22756061.9334  119583891.512 7  93182271.89344
     -1544.079       -1203.177
  21299313.396    21299313.6734   21299315.7004  111928662.971 7  87217169.95145
      1078.566         840.452
 06  5  9 17 15 30.0000000  0 11G 3G 7G 8G10G15G18G19G21G26G27G29
  22180399.805    22180400.3684   22180403.3594  116558817.595 7  90825061.11344
       600.650         468.047
  22936104.662    22936104.1614   22936107.2974  120530025.870 6  93919517.30343
     -2277.351       -1774.565
  21729320.281    21729320.2484   21729322.8304  114188372.504 7  88977972.93845
       553.169         431.043
  23277555.998    23277555.5954   23277558.6504  122324363.290 6  95317696.68943
     -3565.150       -2778.036
  21509843.364    21509842.9944   21509846.0694  113035034.451 7  88079248.49744
      1592.628        1241.024
  23280173.952    23280173.2504   23280175.3464  122338164.734 6  95328446.16243
      3149.546        2454.206
  23869163.579    23869162.7504   23869164.9274  125433339.374 6  97740247.12642
      2960.828        2307.169
  21455130.421    21455130.1014   21455131.6244  112747477.693 8  87855190.14345
      -370.064        -288.345
  21325611.214    21325611.4674   21325613.7714  112066875.523 7  87324851.71445
      2036.413        1586.815
  22764920.265    22764920.1964   22764923.2544  119630457.686 7  93218557.20844
     -1560.984       -1216.324
  21293211.498    21293211.6484   21293213.7154  111896597.074 8  87192183.55645
      1058.552         824.856
 06  5  9 17 16  0.0000000  0 11G 3G 7G 8G10G15G18G19G21G26G27G29
  22177027.923    22177028.2114   22177031.4284  116541096.651 7  90811252.56244
       580.571         452.382
  22949143.234    22949142.2394   22949147.0024  120598545.086 6  93972908.88643
     -2290.813       -1785.073
  21726221.016    21726221.0594   21726223.6074  114172085.531 8  88965281.79745
       532.367         414.827
  23297931.029    23297930.2254   23297934.1484  122431433.340 6  95401127.84543
     -3573.107       -2784.229
  21500803.814    21500803.1834   21500806.4994  112987530.172 7  88042232.19945
      1574.171        1226.638
  23262218.069    23262218.3784   23262220.0294  122243807.751 6  95254921.25943
      3140.652        2447.246
  23852290.007    23852290.0514   23852289.9594  125344668.822 6  97671153.15243
      2950.262        2298.938
  21457298.360    21457298.3064   21457299.5494  112758870.980 7  87864068.01645
      -389.668        -303.634
  21314040.454    21314040.8094   21314043.0934  112006071.050 7  87277471.63645
      2017.004        1571.687
  22773873.941    22773873.7304   22773876.6014  119677508.303 7  93255220.01944
     -1576.000       -1228.063
  21287219.492    21287219.6214   21287221.6694  111865108.725 8  87167647.19145
      1040.520         810.794
 06  5  9 17 16 30.0000000  0 11G 3G 7G 8G10G15G18G19G21G26G27G29
  22173776.919    22173777.2994   22173780.0764  116524012.671 7  90797940.50244
       558.716         435.358
  22962265.913    22962265.2104   22962269.6474  120667503.920 6  94026643.01443
     -2306.031       -1796.913
  21723247.620    21723247.5304   21723250.0384  114156459.837 8  88953105.93645
       509.709         397.172
  23318359.001    23318358.3814   23318362.4374  122538782.109 6  95484776.17743
     -3583.065       -2791.990
  21491876.286    21491875.7404   21491878.7914  112940615.632 7  88005675.43045
      1553.935        1210.835
  23244321.001    23244320.7654   23244322.5954  122149756.231 6  95181634.34943
      3129.792        2438.805
  23835483.604    23835482.8864   23835484.9084  125256352.083 6  97602335.03843
      2937.744        2289.116
  21459585.064    21459585.1504   21459586.4374  112770888.373 8  87873432.23245
      -411.032        -320.262
  21302588.293    21302588.8194   21302591.0234  111945890.588 7  87230577.79945
      1995.543        1554.974
  22782919.446    22782919.2834   22782922.1364  119725043.405 7  93292260.35944
     -1592.708       -1241.075
  21281337.958    21281337.9114   21281340.0404  111834200.515 8  87143562.89146
      1020.505         795.207
 06  5  9 17 17  0.0000000  0 11G 3G 7G 8G10G15G18G19G21G26G27G29
  22170645.728    22170645.9884   22170648.8334  116507559.144 7  90785119.60544
       537.860         419.123
  22975470.331    22975469.9244   22975473.0724  120736893.736 6  94080712.98943
     -2320.181       -1807.918
  21720398.939    21720398.5834   21720401.4184  114141489.455 7  88941440.70945
       487.965         380.233
  23338837.869    23338837.4334   23338841.1384  122646400.515 6  95568634.62343
     -3591.856       -2798.843
  21483060.047    21483059.4904   21483063.0214  112894285.986 7  87969574.41445
      1534.414        1195.660
  23226480.489    23226480.7894   23226482.5204  122056005.556 6  95108581.92343
      3119.956        2431.147
  23818744.280    23818743.3664   23818744.4664  125168384.753 6  97533789.12743
      2926.346        2280.260
  21461989.406    21461989.2514   21461990.6374  112783522.474 7  87883276.96045
      -431.519        -336.231
  21291254.350    21291254.5264   21291256.9994  111886329.436 7  87184166.54045
      1974.888        1538.880
  22792055.760    22792055.4674   22792058.4484  119773054.732 7  93329671.77944
     -1608.430       -1253.309
  21275565.637    21275565.7314   21275567.6784  111803866.847 8  87119926.28246
      1001.385         780.312
 06  5  9 17 17 30.0000000  0 11G 3G 7G 8G10G15G18G19G21G26G27G29
  22167635.792    22167636.2374   22167639.1434  116491742.472 7  90772794.97544
       516.376         402.377
  22988757.286    22988756.7864   22988760.2034  120806717.975 6  94135121.48943
     -2334.745       -1819.278
  21717675.979    21717675.7074   21717678.4494  114127180.555 7  88930290.91945
       465.725         362.906
  23359369.233    23359368.0274   23359372.2354  122754291.450 6  95652705.42543
     -3600.986       -2805.936
  21474356.602    21474356.0134   21474359.2574  112848548.604 7  87933934.93245
      1514.548        1180.159
  23208699.240    23208699.1504   23208701.5234  121962563.960 6  95035770.30843
      3109.411        2422.936
  23802072.729    23802071.6904   23802073.2034  125080774.864 6  97465521.67843
      2914.137        2270.757
  21464511.982    21464511.9304   21464513.3564  112796779.093 8  87893606.77745
      -452.450        -352.550
  21280039.641    21280039.7954   21280042.0424  111827395.374 8  87138243.91745
      1953.754        1522.409
  22801283.478    22801283.1974   22801286.1924  119821546.626 7  93367457.65644
     -1624.555       -1265.892
  21269903.703    21269903.8144   21269905.9044  111774114.073 8  87096742.32346
       981.816         765.055
 06  5  9 17 18  0.0000000  0 11G 3G 7G 8G10G15G18G19G21G26G27G29
  22164749.578    22164749.8764   22164752.8664  116476575.197 7  90760976.28544
       493.975         384.876
  23002129.034    23002128.5244   23002132.2324  120876987.024 6  94189876.58943
     -2350.442       -1831.502
  21715081.464    21715081.3524   21715083.8544  114113546.389 7  88919666.89245
       442.478         344.777
  23379953.199    23379953.0044   23379956.6384  122862464.845 6  95736996.33043
     -3611.101       -2813.832
  21465768.119    21465767.6314   21465771.0604  112803417.393 7  87898767.77945
      1493.447        1163.729
  23190979.014    23190979.2834   23190981.1474  121869445.940 6  94963210.84443
      3097.705        2413.815
  23785472.125    23785471.2814   23785471.9174  124993537.673 6  97397544.72843
      2900.975        2260.488
  21467155.280    21467155.2324   21467156.8404  112810670.095 7  87904430.94945
      -474.497        -369.749
  21268946.725    21268947.0574   21268949.2574  111769102.707 8  87092821.08345
      1931.478        1505.044
  22810604.402    22810604.6564   22810607.6264  119870530.420 7  93405626.83244
     -1641.686       -1279.254
  21264354.715    21264355.1344   21264357.2654  111744955.484 8  87074021.36246
       961.177         748.966
 06  5  9 17 18 30.0000000  0 11G 3G 7G 8G10G15G18G19G21G26G27G29
  22161985.357    22161985.0574   22161988.3714  116462046.565 7  90749655.29044
       473.707         369.115
  23015583.043    23015582.9274   23015586.1144  120947686.750 6  94244967.26043
     -2363.905       -1842.020
  21712613.229    21712612.9304   21712615.7374  114100575.660 8  88909559.83245
       421.389         328.351
  23400589.100    23400589.2494   23400592.2624  122970906.102 6  95821495.95243
     -3619.252       -2820.185
  21457292.921    21457292.9434   21457295.9114  112758882.208 7  87864065.06845
      1474.585        1149.021
  23173318.875    23173319.2674   23173321.1914  121776641.908 6  94890896.05443
      3088.154        2406.329
  23768940.050    23768939.7094   23768941.1674  124906663.717 6  97329850.76243
      2889.567        2251.618
  21469917.141    21469917.0684   21469918.2784  112825183.161 7  87915739.81445
      -494.079        -384.995
  21257974.244    21257974.5034   21257976.8444  111711441.680 7  87047890.43245
      1911.480        1489.467
  22820016.931    22820016.9114   22820019.9744  119919992.571 7  93444168.73944
     -1656.644       -1290.875
  21258917.432    21258917.2994   21258919.4124  111716380.003 7  87051754.77446
       942.872         734.698
 06  5  9 17 19  0.0000000  0 11G 3G 7G 8G10G15G18G19G21G26G27G29
  22159343.335    22159343.4164   22159346.5774  116448163.181 7  90738837.09544
       451.469         351.816
  23029119.176    23029119.3024   23029122.5414  121018821.215 6  94300396.68243
     -2378.814       -1853.630
  21710272.622    21710272.1294   21710274.9194  114088274.561 8  88899974.55945
       398.349         310.399
  23421276.580    23421275.9584   23421280.1544  123079618.841 6  95906207.13043
     -3628.698       -2827.569
  21448933.480    21448933.1464   21448936.4114  112714950.818 7  87829832.86045
      1453.831        1132.867
  23155720.914    23155720.8784   23155721.9074  121684160.239 6  94818832.41243
      3076.875        2397.579
  23752479.399    23752478.4894   23752480.1994  124820161.607 6  97262446.53043
      2876.443        2241.383
  21472798.405    21472798.3344   21472799.8294  112840323.928 8  87927537.80445
      -515.531        -401.707
  21247123.421    21247123.6024   21247125.8194  111654420.210 8  87003458.14045
      1889.664        1472.469
  22829520.918    22829521.2434   22829524.2194  119969937.662 7  93483086.97744
     -1673.437       -1303.965
  21253591.790    21253591.6834   21253593.9024  111688394.409 8  87029947.83346
       922.596         718.911
 06  5  9 17 19 30.0000000  0 11G 3G 7G 8G10G15G18G19G21G26G27G29
  22156823.259    22156823.5834   22156826.5364  116434920.545 7  90728518.10844
       430.602         335.543
  23042737.057    23042736.8024   23042740.5544  121090383.478 6  94356159.47143
     -2392.738       -1864.469
  21708058.000    21708057.8314   21708060.7064  114076639.003 7  88890907.88745
       376.566         293.445
  23442014.350    23442014.1004   23442017.6304  123188595.886 6  95991124.26843
     -3637.061       -2834.092
  21440687.688    21440687.2334   21440690.6724  112671620.175 7  87796068.75145
      1434.052        1117.434
  23138183.117    23138183.1884   23138184.9894  121591998.818 6  94747018.38643
      3066.376        2389.372
  23736088.927    23736089.1344   23736089.5864  124734029.343 6  97195330.51343
      2864.617        2232.175
  21475798.194    21475797.9874   21475799.3504  112856087.562 7  87939821.14645
      -536.012        -417.664
  21236393.731    21236393.9694   21236396.3894  111598035.652 7  86959522.13845
      1868.666        1456.116
  22839116.485    22839116.2274   22839119.1194  120020359.329 6  93522376.56144
     -1688.851       -1315.974
  21248377.726    21248377.9894   21248380.0704  111660995.099 8  87008597.73645
       903.410         703.962
 06  5  9 17 20  0.0000000  0 11G 3G 7G 8G10G15G18G19G21G26G27G29
  22154425.656    22154425.3504   22154428.0574  116422319.885 7  90718699.32544
       409.224         318.883
  23056435.698    23056435.3204   23056439.6324  121162372.142 6  94412254.48843
     -2406.768       -1875.387
  21705970.888    21705970.7934   21705973.6674  114065670.459 7  88882360.96645
       354.320         276.085
  23462802.620    23462801.5854   23462805.5474  123297835.376 6  96076245.90743
     -3645.666       -2840.758
  21432556.905    21432556.7124   21432559.8524  112628892.582 7  87762774.54045
      1413.993        1101.809
  23120706.576    23120706.5174   23120709.0244  121500160.439 6  94675456.04943
      3055.823        2381.195
  23719769.333    23719768.8864   23719770.5354  124648269.729 6  97128504.76543
      2852.392        2222.648
  21478916.542    21478916.4154   21478917.5284  112872474.562 7  87952590.24045
      -556.798        -433.859
  21225785.856    21225786.1694   21225788.3864  111542290.561 8  86916084.42245
      1847.373        1439.514
  22848801.803    22848801.8644   22848804.7204  120071257.025 7  93562037.08344
     -1704.571       -1328.221
  21243275.729    21243275.9074   21243277.9854  111634183.498 8  86987705.60046
       883.665         688.565
 06  5  9 17 20 30.0000000  0 11G 3G 7G 8G10G15G18G19G21G26G27G29
  22152151.952    22152152.0554   22152154.7244  116410371.159 7  90709388.52444
       387.398         301.848
  23070217.239    23070216.8184   23070221.2314  121234794.224 6  94468687.23143
     -2421.269       -1886.708
  21704012.637    21704012.2984   21704015.0404  114055378.502 7  88874341.25945
       331.878         258.590
  23483640.787    23483640.2194   23483644.2084  123407343.796 6  96161577.09143
     -3654.825       -2847.908
  21424543.292    21424542.6554   21424545.9574  112586779.081 7  87729958.85245
      1393.729        1086.014
  23103294.215    23103294.1994   23103295.7534  121408656.409 6  94604154.23543
      3044.571        2372.392
  23703523.110    23703522.9934   23703524.3084  124562894.933 6  97061978.94143
      2839.123        2212.276
  21482154.915    21482154.9704   21482156.4364  112889493.292 7  87965851.58545
      -577.608        -450.088
  21215301.549    21215302.0594   21215304.0724  111487196.071 7  86873153.67045
      1825.809        1422.693
  22858579.388    22858579.4514   22858582.0154  120122638.253 7  93602074.39744
     -1720.767       -1340.873
  21238287.508    21238287.4404   21238289.4584  111607969.500 8  86967279.12846
       864.032         673.261
 06  5  9 17 21  0.0000000  0 11G 3G 7G 8G10G15G18G19G21G26G27G29
  22150001.457    22150001.7214   22150004.8004  116399072.383 7  90700584.28844
       365.368         284.675
  23084080.527    23084080.4334   23084083.8334  121307645.361 6  94525454.31043
     -2435.908       -1898.119
  21702182.266    21702182.0424   21702184.9874  114045761.116 7  88866847.18145
       308.895         240.690
  23504530.017    23504529.1074   23504533.0054  123517116.311 6  96247114.07843
     -3663.864       -2854.972
  21416645.844    21416645.1574   21416648.7834  112545278.844 7  87697621.02345
      1372.656        1069.600
  23085944.467    23085945.4084   23085946.2294  121317486.985 6  94533113.15443
      3032.941        2363.314
  23687349.873    23687349.5984   23687350.8294  124477905.008 6  96995753.03343
      2826.135        2202.200
  21485513.382    21485512.9934   21485514.6034  112907141.514 8  87979603.45845
      -599.220        -466.922
  21204941.305    21204941.4214   21204943.7294  111432752.018 7  86830729.75245
      1803.527        1405.341
  22868448.328    22868448.0914   22868451.1004  120174499.196 7  93642485.49844
     -1737.085       -1353.574
  21233412.392    21233412.6274   21233414.6244  111582351.522 8  86947317.08946
       843.511         657.276
 06  5  9 17 21 30.0000000  0 11G 3G 7G 8G10G15G18G19G21G26G27G29
  22147973.459    22147973.0584   22147976.1184  116388412.108 7  90692277.62944
       344.406         268.349
  23098023.133    23098022.4204   23098026.3044  121380911.362 6  94582544.66943
     -2449.278       -1908.537
  21700478.446    21700478.1034   21700480.8694  114036806.753 8  88859869.74145
       287.149         223.754
  23525466.076    23525465.6124   23525469.8954  123627138.277 6  96332845.45643
     -3671.664       -2861.023
  21408863.524    21408863.1094   21408866.3494  112504381.549 7  87665753.02345
      1352.902        1054.210
  23068658.033    23068657.7454   23068659.3654  121226642.570 6  94462325.33343
      3022.549        2355.215
  23671249.560    23671247.8814   23671249.0174  124393291.159 6  96929820.36743
      2813.953        2192.690
  21488989.110    21488988.8594   21488990.2984  112925406.577 7  87993835.97445
      -619.366        -482.626
  21194702.800    21194703.1164   21194705.1234  111378948.178 7  86788804.70345
      1782.608        1389.041
  22878405.753    22878405.6204   22878408.2164  120226826.412 7  93683259.91844
     -1752.274       -1365.397
  21228648.965    21228649.0024   21228650.8994  111557318.637 8  86927810.96146
       824.448         642.419
 06  5  9 17 22  0.0000000  0 11G 3G 7G 8G10G15G18G19G21G26G27G29
  22146066.700    22146066.7044   22146069.2214  116378393.098 7  90684470.67244
       323.251         251.868
  23112043.957    23112044.4384   23112047.8824  121454592.564 6  94639958.55643
     -2462.924       -1919.195
  21698901.238    21698900.9284   21698903.6784  114028518.461 7  88853411.32445
       265.198         206.630
  23546449.471    23546449.4924   23546454.1064  123737409.752 6  96418771.24643
     -3679.762       -2867.350
  21401196.515    21401196.0664   21401199.2074  112464091.317 7  87634358.05645
      1332.946        1038.650
  23051433.393    23051433.5944   23051435.5064  121136127.818 6  94391794.41643
      3011.627        2346.723
  23655219.772    23655218.7284   23655219.3494  124309057.712 6  96864184.12643
      2801.281        2182.798
  21492582.668    21492582.2374   21492583.7984  112944290.265 7  88008550.52245
      -639.733        -498.501
  21184586.966    21184587.1204   21184589.3354  111325788.707 8  86747381.76345
      1761.231        1372.375
  22888451.692    22888452.0054   22888455.2784  120279620.873 7  93724398.43544
     -1767.539       -1377.318
  21223997.164    21223997.2854   21223999.3144  111532873.643 8  86908762.93846
       805.116         627.352
 06  5  9 17 22 30.0000000  0 11G 3G 7G 8G10G15G18G19G21G26G27G29
  22144282.577    22144282.3094   22144285.3194  116369017.790 7  90677165.20444
       301.750         235.142
  23126143.832    23126144.0214   23126147.5734  121528688.939 6  94697695.95143
     -2476.903       -1930.065
  21697451.415    21697450.9944   21697453.9034  114020899.095 7  88847474.15145
       242.824         189.215
  23567481.135    23567481.5524   23567484.9164  123847930.384 6  96504891.18143
     -3688.334       -2874.035
  21393645.822    21393645.1554   21393648.2804  112424411.865 7  87603439.03245
      1312.437        1022.680
  23034272.450    23034272.5054   23034274.6964  121045947.456 6  94321524.04243
      3000.282        2337.897
  23639264.100    23639262.5584   23639263.8364  124225209.288 6  96798847.72043
      2788.494        2172.856
  21496294.312    21496293.8914   21496295.3084  112963794.696 7  88023748.78145
      -660.554        -514.716
  21174594.181    21174594.6234   21174596.8574  111273277.969 8  86706464.33045
      1739.462        1355.427
  22898587.756    22898587.7464   22898590.4274  120332883.390 7  93765901.67244
     -1783.229       -1389.529
  21219457.850    21219457.8604   21219459.9594  111509019.764 8  86890175.51946
       785.261         611.901
 06  5  9 17 23  0.0000000  0 11G 3G 7G 8G10G15G18G19G21G26G27G29
  22142621.548    22142621.5644   22142624.3034  116360288.849 7  90670363.39644
       280.031         218.193
  23140323.292    23140323.6994   23140327.2694  121603200.789 6  94755757.07843
     -2490.805       -1940.907
  21696129.024    21696129.1544   21696131.5864  114013950.750 8  88842059.85845
       220.219         171.584
  23588560.291    23588560.0574   23588564.2964  123958699.842 6  96591205.01543
     -3696.692       -2880.581
  21386211.988    21386211.3364   21386214.4414  112385347.034 7  87572998.92445
      1291.738        1006.532
  23017176.476    23017176.1464   23017178.2474  120956105.943 6  94251517.70643
      2988.870        2329.001
  23623382.474    23623381.3784   23623381.9224  124141750.705 6  96733815.07243
      2775.325        2162.569
  21500124.379    21500124.0544   21500125.3484  112983921.370 7  88039431.87545
      -681.461        -531.019
  21164726.226    21164726.2534   21164728.5594  111221419.949 7  86666055.50645
      1717.421        1338.247
  22908812.345    22908812.3394   22908815.4024  120386614.511 6  93807770.05944
     -1799.032       -1401.859
  21215031.618    21215031.7544   21215033.7844  111485759.875 8  86872050.95546
       765.154         596.214
 06  5  9 17 23 30.0000000  0 11G 3G 7G 8G10G15G18G19G21G26G27G29
  22141082.951    22141083.0474   22141086.0404  116352203.560 7  90664063.19444
       258.701         201.589
  23154580.341    23154580.0294   23154583.7154  121678122.225 6  94814137.38143
     -2504.372       -1951.422
  21694934.005    21694933.8424   21694936.5424  114007670.711 8  88837166.32045
       198.147         154.397
  23609685.575    23609685.2194   23609688.6854  124069712.033 6  96677707.99843
     -3704.479       -2886.588
  21378894.527    21378894.2214   21378897.4104  112346895.036 7  87543036.34245
      1271.384         990.674
  23000144.339    23000144.7834   23000146.0244  120866601.983 6  94181774.38143
      2977.629        2320.227
  23607574.265    23607573.4154   23607574.3384  124058681.318 6  96669085.62343
      2762.406        2152.519
  21504071.786    21504071.5944   21504073.4064  113004666.664 7  88055597.02745
      -701.940        -546.969
  21154981.671    21154982.0714   21154984.0464  111170213.204 8  86626154.16645
      1695.889        1321.473
  22919125.588    22919125.2664   22919128.0734  120440809.670 7  93850000.04444
     -1814.297       -1413.738
  21210717.583    21210717.9074   21210719.8984  111463091.123 8  86854387.01146
       745.617         580.998
 06  5  9 17 24  0.0000000  0 11G 3G 7G 8G10G15G18G19G21G26G27G29
  22139669.230    22139669.0724   22139671.9254  116344773.425 7  90658273.47144
       236.353         184.187
  23168916.975    23168916.5114   23168920.7904  121753462.506 6  94872844.01743
     -2518.736       -1962.651
  21693868.276    21693868.1594   21693871.0484  114002070.728 7  88832802.69645
       174.937         136.305
  23630858.350    23630858.0084   23630861.4894  124180976.243 6  96764407.35043
     -3713.380       -2893.557
  21371696.260    21371695.9054   21371699.2354  112309068.680 7  87513561.26545
      1250.000         974.030
  22983178.698    22983179.1424   22983180.9514  120777449.658 6  94112305.06643
      2965.465        2310.735
  23591843.649    23591842.4984   23591843.8854  123976015.068 6  96604670.39243
      2748.354        2141.539
  21508139.268    21508139.3744   21508140.4554  113026041.310 7  88072252.60045
      -723.333        -563.649
  21145363.900    21145364.1414   21145366.1354  111119670.593 7  86586770.33645
      1673.281        1303.842
  22929528.523    22929528.1794   22929531.3334  120495478.295 6  93892598.98344
     -1830.602       -1426.439
  21206519.011    21206518.9784   21206521.2614  111441025.804 8  86837193.27546
       725.123         565.030
 06  5  9 17 24 30.0000000  0 11G 3G 7G 8G10G15G18G19G21G26G27G29
  22138377.569    22138377.6524   22138380.6854  116337987.390 7  90652985.65644
       214.927         167.469
  23183330.783    23183329.9504   23183335.2224  121829208.454 6  94931866.75943
     -2532.228       -1973.135
  21692930.118    21692930.0504   21692932.7544  113997140.148 8  88828960.67845
       152.608         118.911
  23652076.761    23652075.7984   23652080.2784  124292478.665 6  96851292.30743
     -3721.185       -2899.612
  21364615.107    21364615.1204   21364618.2364  112271858.131 7  87484566.03845
      1229.518         958.057
  22966279.280    22966279.1754   22966280.7484  120688639.689 6  94043102.52743
      2954.099        2301.894
  23576187.427    23576186.7474   23576188.4204  123893743.218 6  96540562.45643
      2735.203        2131.316
  21512324.495    21512324.1314   21512325.4624  113048033.564 7  88089389.42445
      -743.911        -579.667
  21135870.485    21135870.7364   21135873.0144  111069782.905 8  86547896.82945
      1651.408        1286.795
  22940019.133    22940019.2534   22940022.1724  120550607.472 7  93935556.77344
     -1845.831       -1438.318
  21202432.846    21202432.8574   21202435.0364  111419553.201 8  86820461.39546
       705.350         549.625
 06  5  9 17 25  0.0000000  0 11G 3G 7G 8G10G15G18G19G21G26G27G29
  22137209.310    22137209.6114   22137211.8364  116331846.854 7  90648200.89644
       193.405         150.695
  23197821.730    23197822.1164   23197825.4094  121905358.547 6  94991204.43243
     -2545.498       -1983.511
  21692119.478    21692119.0504   21692121.8034  113992879.561 8  88825640.74545
       130.289         101.536
  23673340.121    23673339.0024   23673343.0794  124404217.377 6  96938361.42343
     -3728.949       -2905.678
  21357651.913    21357651.9374   21357655.1184  112235265.746 7  87456052.49445
      1208.870         941.971
  22949444.721    22949444.5444   22949447.1644  120600175.147 6  93974169.13343
      2942.498        2292.859
  23560607.317    23560606.6564   23560607.7714  123811868.929 6  96476764.31443
      2721.940        2121.013
  21516626.737    21516626.6694   21516627.9214  113070643.241 8  88107007.33645
      -764.491        -595.709
  21126502.388    21126502.5834   21126504.7894  111020552.626 8  86509535.59445
      1629.476        1269.713
  22950597.441    22950597.6484   22950600.1734  120606196.533 7  93978872.91544
     -1861.151       -1450.274
  21198459.825    21198459.9104   21198462.1554  111398674.845 8  86804192.57146
       685.485         534.138
 06  5  9 17 25 30.0000000  0 11G 3G 7G 8G10G15G18G19G21G26G27G29
  22136163.359    22136163.4524   22136166.8014  116326352.022 7  90643919.17944
       172.048         134.055
  23212389.611    23212388.7614   23212392.9554  121981910.870 6  95050855.53043
     -2558.646       -1993.744
  21691436.140    21691436.1064   21691438.7714  113989289.734 7  88822843.47445
       108.059          84.198
  23694647.276    23694646.9724   23694650.9064  124516190.002 6  97025612.76343
     -3736.478       -2911.528
  21350806.956    21350806.5874   21350809.8984  112199293.413 7  87428022.10545
      1188.359         925.985
  22932676.904    22932676.7654   22932678.5424  120512059.075 6  93905507.31643
      2931.078        2283.899
  23545104.185    23545103.4184   23545104.0924  123730395.262 6  96413278.37043
      2708.796        2110.721
  21521047.104    21521046.7264   21521048.1534  113093870.826 8  88125106.75445
      -784.889        -611.612
  21117259.466    21117259.7984   21117261.9844  110971981.924 7  86471688.32546
      1607.649        1252.697
  22961262.951    22961262.9064   22961266.0064  120662244.383 7  94022546.54744
     -1876.193       -1461.971
  21194599.769    21194600.0254   21194602.2044  111378391.532 7  86788387.41546
       665.769         518.763
 06  5  9 17 26  0.0000000  0 11G 3G 7G 8G10G15G18G19G21G26G27G29
  22135243.494    22135243.3534   22135246.5924  116321516.975 7  90640151.59244
       149.910         116.793
  23227035.873    23227035.3954   23227039.5544  122058876.733 6  95110828.82942
     -2572.638       -2004.652
  21690883.271    21690883.0634   21690885.9354  113986384.355 8  88820579.53945
        85.221          66.410
  23716001.189    23716001.3274   23716004.8534  124628407.773 6  97113055.12843
     -3744.753       -2917.956
  21344082.282    21344082.0874   21344085.2974  112163956.168 7  87400486.59445
      1167.038         909.393
  22915978.338    22915978.2424   22915980.0094  120424307.440 6  93837129.44943
      2918.707        2274.317
  23529679.245    23529678.4044   23529679.1574  123649338.451 6  96350117.24643
      2694.764        2099.808
  21525587.135    21525586.7764   21525588.0994  113117728.994 7  88143697.53245
      -805.992        -628.042
  21108145.257    21108145.4124   21108147.7414  110924086.010 8  86434366.86245
      1585.027        1235.079
  22972018.316    22972018.2064   22972021.1724  120718763.379 7  94066587.31244
     -1891.957       -1474.237
  21190856.047    21190856.1994   21190858.2814  111358717.580 8  86773057.07846
       645.413         502.922
 06  5  9 17 26 30.0000000  0 11G 3G 7G 8G10G15G18G19G21G26G27G29
  22134444.422    22134444.2644   22134447.1724  116317317.116 7  90636878.96844
       128.976         100.511
  23241755.961    23241755.3424   23241759.1774  122136229.402 6  95171103.56142
     -2585.254       -2014.449
  21690456.217    21690455.9464   21690458.5114  113984139.127 7  88818830.01045
        63.437          49.438
  23737398.159    23737396.7784   23737401.4364  124740843.554 6  97200667.38443
     -3752.096       -2923.702
  21337474.679    21337474.1984   21337477.2754  112129230.714 7  87373427.80445
      1146.945         893.737
  22899344.269    22899344.3254   22899346.2904  120336897.407 6  93769017.75343
      2907.505        2265.594
  23514329.497    23514328.4984   23514329.3744  123568676.022 6  96287263.40943
      2681.654        2089.580
  21530241.984    21530241.6974   21530243.1264  113142191.937 8  88162759.57745
      -825.866        -643.521
  21099155.175    21099155.1754   21099157.3314  110876841.811 7  86397553.23345
      1563.581        1218.385
  22982857.803    22982858.2334   22982860.9074  120775726.725 7  94110974.29844
     -1906.603       -1485.689
  21187223.694    21187223.6924   21187225.9354  111339628.795 8  86758182.72246
       626.221         487.964
 06  5  9 17 27  0.0000000  0 11G 3G 7G 8G10G15G18G19G21G26G27G29
  22133766.868    22133766.9374   22133770.2274  116313758.490 7  90634106.00644
       107.805          84.011
  23256549.521    23256548.9034   23256553.1974  122213972.370 6  95231682.41642
     -2597.922       -2024.346
  21690155.639    21690155.3064   21690158.1274  113982559.793 7  88817599.36045
        41.499          32.332
  23758835.245    23758835.4964   23758838.9444  124853500.587 6  97288452.03143
     -3758.911       -2929.036
  21330984.349    21330983.5914   21330987.0204  112095124.384 7  87346851.44845
      1126.500         877.797
  22882777.681    22882778.0154   22882779.2914  120249837.274 6  93701178.72343
      2896.133        2256.723
  23499056.543    23499056.1744   23499056.9534  123488415.841 6  96224722.90643
      2668.495        2079.348
  21535013.274    21535013.3344   21535014.4744  113167265.366 7  88182297.28745
      -845.953        -659.177
  21090290.288    21090290.4594   21090292.5104  110830257.094 8  86361253.49545
      1541.835        1201.439
  22993783.131    22993783.1094   22993785.8844  120833138.700 7  94155710.87844
     -1921.246       -1497.066
  21183703.818    21183703.9274   21183705.7714  111321131.592 8  86743769.33546
       606.678         472.736
 06  5  9 17 27 30.0000000  0 11G 3G 7G 8G10G15G18G19G21G26G27G29
  22133212.706    22133212.5054   22133215.9874  116310845.638 7  90631836.30544
        86.204          67.169
  23271418.085    23271417.6784   23271422.6954  122292107.764 6  95292567.05542
     -2611.197       -2034.689
  21689982.596    21689982.5144   21689985.2354  113981651.107 7  88816891.29445
        18.898          14.726
  23780316.254    23780315.1024   23780319.9984  124966380.803 6  97376410.58043
     -3766.576       -2934.971
  21324612.832    21324612.4914   21324615.7194  112061643.057 7  87320762.10245
      1105.485         861.412
  22866278.955    22866278.4584   22866280.2474  120163133.706 6  93633617.56843
      2884.016        2247.287
  23483860.990    23483860.7044   23483861.8694  123408565.385 6  96162501.69943
      2654.642        2068.549
  21539901.737    21539901.4714   21539902.9414  113192952.906 7  88202313.55145
      -866.658        -675.321
  21081551.980    21081552.2564   21081554.3244  110784337.728 8  86325472.20846
      1519.393        1183.940
  23004793.969    23004794.0754   23004797.0104  120891001.950 7  94200799.11944
     -1936.417       -1508.893
  21180297.465    21180297.4734   21180299.4674  111303230.860 8  86729820.73146
       586.544         457.053
 06  5  9 17 28  0.0000000  0 11G 3G 7G 8G10G15G18G19G21G26G27G29
  22132780.241    22132780.2834   22132783.2324  116308572.519 6  90630065.04444
        64.793          50.487
  23286359.864    23286360.3814   23286363.4504  122370627.297 6  95353751.01142
     -2624.083       -2044.741
  21689936.365    21689936.1394   21689938.8464  113981407.008 7  88816701.07345
        -3.285          -2.564
  23801836.731    23801836.7594   23801841.0494  125079475.643 6  97464536.37543
     -3773.768       -2940.615
  21318359.503    21318359.3914   21318362.4934  112028781.741 7  87295155.87545
      1084.724         845.230
  22849846.411    22849845.9534   22849848.7214  120076783.140 6  93566331.43943
      2872.140        2238.018
  23468743.455    23468743.1104   23468744.4704  123329121.224 6  96100597.12643
      2641.003        2057.922
  21544905.436    21544905.1414   21544906.6074  113219247.670 8  88222802.96045
      -886.893        -691.096
  21072939.677    21072939.6614   21072941.9394  110739079.183 8  86290205.84246
      1497.253        1166.691
  23015890.074    23015889.3294   23015892.2634  120949308.860 6  94246233.06144
     -1951.310       -1520.495
  21177003.521    21177003.5334   21177005.4284  111285921.061 8  86716332.60146
       566.800         441.650
 06  5  9 17 28 30.0000000  0 11G 3G 7G 8G10G15G18G19G21G26G27G29
  22132471.162    22132471.0564   22132474.3354  116306948.267 7  90628799.37344
        43.202          33.688
  23301375.668    23301375.7484   23301379.1694  122449537.469 6  95415239.37542
     -2636.924       -2054.730
  21690018.014    21690017.8444   21690020.4994  113981836.529 7  88817035.77145
       -25.772         -20.088
  23823401.167    23823400.3884   23823404.3814  125192791.531 6  97552834.39643
     -3781.127       -2946.344
  21312226.125    21312225.9074   21312229.0374  111996550.649 7  87270040.73745
      1063.720         828.882
  22833483.667    22833484.0764   22833484.9804  119990796.872 6  93499329.18643
      2860.004        2228.555
  23453705.260    23453705.1944   23453705.8484  123250094.246 6  96039017.59643
      2627.036        2047.074
  21550026.154    21550025.8344   21550027.4904  113246157.844 7  88243771.93045
      -907.402        -707.064
  21064454.759    21064455.1694   21064457.2914  110694491.994 8  86255462.61145
      1474.822        1149.212
  23027070.979    23027071.2504   23027073.4954  121008066.478 6  94292018.21344
     -1966.343       -1532.206
  21173823.739    21173823.8814   21173825.7054  111269211.540 8  86703312.20946
       546.819         426.092
 06  5  9 17 29  0.0000000  0 11G 3G 7G 8G10G15G18G19G21G26G27G29
  22132283.565    22132283.8104   22132286.7444  116305963.044 7  90628031.72844
        21.835          17.004
  23316464.533    23316464.8094   23316466.7934  122528826.478 6  95477022.95042
     -2649.773       -2064.729
  21690226.114    21690225.9234   21690228.5064  113982930.051 8  88817887.87145
       -47.862         -37.293
  23845003.277    23845003.3914   23845007.2424  125306315.972 6  97641294.94342
     -3788.058       -2951.734
  21306211.267    21306210.9064   21306213.7524  111964941.319 7  87245410.09745
      1042.805         812.586
  22817189.123    22817189.3044   22817190.9004  119905167.150 7  93432604.79643
      2847.892        2219.152
  23438744.648    23438744.9714   23438745.7094  123171477.352 6  95977757.69743
      2613.370        2036.394
  21555262.254    21555261.8894   21555263.2164  113273672.971 8  88265212.31245
      -927.756        -722.926
  21056096.498    21056096.5284   21056098.7684  110650567.793 8  86221235.99345
      1452.604        1131.911
  23038335.286    23038335.7874   23038338.2504  121067263.509 6  94338145.76544
     -1980.870       -1543.530
  21170756.330    21170756.4974   21170758.3194  111253092.886 8  86690752.23346
       526.975         410.641
